Wetterdaten: Sonntag, 09.07.2017
Datum Zeit Temp. A. Pool Temp. Feuchte A. Luftdruck Regen Wind Richtung Richtung Sonnenschein ET UV Solar Taupunkt Windchill Windben Empfang
09.07.2017 00:00 19,2 C 25,6 C 89 % 1013,7 hPa 0,0 l/m 2,9 km/h (1 Bft) S 190 0 min 0,000 mm 0,0 UV-I 0 W/m 17,3 C 19,2 C 4,8 km/h (1 Bft) 97,87 %
09.07.2017 00:02 19,2 C 25,6 C 89 % 1013,7 hPa 0,0 l/m 2,6 km/h (1 Bft) S 190 0 min 0,000 mm 0,0 UV-I 0 W/m 17,3 C 19,2 C 4,8 km/h (1 Bft) 97,37 %
09.07.2017 00:04 19,2 C 25,6 C 88 % 1013,7 hPa 0,0 l/m 2,9 km/h (1 Bft) S 190 0 min 0,000 mm 0,0 UV-I 0 W/m 17,2 C 19,2 C 3,2 km/h (1 Bft) 95,74 %
09.07.2017 00:06 19,3 C 25,6 C 89 % 1013,7 hPa 0,0 l/m 3,5 km/h (1 Bft) S 190 0 min 0,000 mm 0,0 UV-I 0 W/m 17,4 C 19,3 C 4,8 km/h (1 Bft) 98,00 %
09.07.2017 00:08 19,3 C 25,6 C 88 % 1013,7 hPa 0,0 l/m 3,7 km/h (1 Bft) S 190 0 min 0,000 mm 0,0 UV-I 0 W/m 17,3 C 19,3 C 6,4 km/h (2 Bft) 95,74 %
09.07.2017 00:10 19,3 C 25,6 C 88 % 1013,7 hPa 0,0 l/m 2,0 km/h (1 Bft) S 190 0 min 0,000 mm 0,0 UV-I 0 W/m 17,3 C 19,3 C 4,8 km/h (1 Bft) 97,87 %
09.07.2017 00:12 19,3 C 25,6 C 88 % 1013,7 hPa 0,0 l/m 2,6 km/h (1 Bft) S 190 0 min 0,000 mm 0,0 UV-I 0 W/m 17,3 C 19,3 C 4,8 km/h (1 Bft) 97,87 %
09.07.2017 00:14 19,3 C 25,6 C 88 % 1013,8 hPa 0,0 l/m 1,5 km/h (1 Bft) S 190 0 min 0,000 mm 0,0 UV-I 0 W/m 17,3 C 19,3 C 4,8 km/h (1 Bft) 97,87 %
09.07.2017 00:16 19,3 C 25,6 C 88 % 1013,9 hPa 0,0 l/m 3,9 km/h (1 Bft) S 190 0 min 0,000 mm 0,0 UV-I 0 W/m 17,3 C 19,3 C 6,4 km/h (2 Bft) 97,87 %
09.07.2017 00:18 19,3 C 25,6 C 88 % 1013,9 hPa 0,0 l/m 5,6 km/h (1 Bft) S-SW 194 0 min 0,000 mm 0,0 UV-I 0 W/m 17,3 C 19,3 C 6,4 km/h (2 Bft) 95,74 %
09.07.2017 00:20 19,3 C 25,6 C 88 % 1013,9 hPa 0,0 l/m 3,8 km/h (1 Bft) S-SW 196 0 min 0,000 mm 0,0 UV-I 0 W/m 17,3 C 19,3 C 6,4 km/h (2 Bft) 95,74 %
09.07.2017 00:22 19,3 C 25,6 C 88 % 1013,9 hPa 0,0 l/m 1,4 km/h (1 Bft) S-SW 196 0 min 0,000 mm 0,0 UV-I 0 W/m 17,3 C 19,3 C 4,8 km/h (1 Bft) 97,87 %
09.07.2017 00:24 19,3 C 25,6 C 88 % 1013,8 hPa 0,0 l/m 1,3 km/h (1 Bft) S-SW 196 0 min 0,000 mm 0,0 UV-I 0 W/m 17,3 C 19,3 C 3,2 km/h (1 Bft) 97,87 %
09.07.2017 00:26 19,3 C 25,6 C 88 % 1013,9 hPa 0,0 l/m 1,9 km/h (1 Bft) S-SW 196 0 min 0,000 mm 0,0 UV-I 0 W/m 17,3 C 19,3 C 4,8 km/h (1 Bft) 97,87 %
09.07.2017 00:28 19,3 C 25,6 C 88 % 1014,0 hPa 0,0 l/m 2,9 km/h (1 Bft) S-SW 196 0 min 0,000 mm 0,0 UV-I 0 W/m 17,3 C 19,3 C 6,4 km/h (2 Bft) 100,00 %
09.07.2017 00:30 19,3 C 25,6 C 88 % 1014,0 hPa 0,0 l/m 4,3 km/h (1 Bft) S-SW 196 0 min 0,000 mm 0,0 UV-I 0 W/m 17,3 C 19,3 C 6,4 km/h (2 Bft) 95,74 %
09.07.2017 00:32 19,3 C 25,6 C 88 % 1014,0 hPa 0,0 l/m 6,1 km/h (2 Bft) S-SW 203 0 min 0,000 mm 0,0 UV-I 0 W/m 17,3 C 19,3 C 9,7 km/h (2 Bft) 97,22 %
09.07.2017 00:34 19,2 C 25,6 C 88 % 1014,1 hPa 0,0 l/m 4,6 km/h (1 Bft) S-SW 203 0 min 0,000 mm 0,0 UV-I 0 W/m 17,2 C 19,2 C 6,4 km/h (2 Bft) 95,74 %
09.07.2017 00:36 19,2 C 25,6 C 88 % 1014,1 hPa 0,0 l/m 4,8 km/h (1 Bft) S-SW 193 0 min 0,000 mm 0,0 UV-I 0 W/m 17,2 C 19,2 C 6,4 km/h (2 Bft) 98,00 %
09.07.2017 00:38 19,2 C 25,6 C 88 % 1014,0 hPa 0,0 l/m 3,3 km/h (1 Bft) S-SW 194 0 min 0,000 mm 0,0 UV-I 0 W/m 17,2 C 19,2 C 4,8 km/h (1 Bft) 97,87 %
09.07.2017 00:40 19,2 C 25,6 C 88 % 1014,1 hPa 0,0 l/m 3,6 km/h (1 Bft) S 185 0 min 0,000 mm 0,0 UV-I 0 W/m 17,2 C 19,2 C 6,4 km/h (2 Bft) 97,87 %
09.07.2017 00:42 19,2 C 25,6 C 88 % 1014,1 hPa 0,0 l/m 4,1 km/h (1 Bft) S 184 0 min 0,000 mm 0,0 UV-I 0 W/m 17,2 C 19,2 C 6,4 km/h (2 Bft) 95,74 %
09.07.2017 00:44 19,2 C 25,6 C 88 % 1014,1 hPa 0,0 l/m 4,5 km/h (1 Bft) S 181 0 min 0,000 mm 0,0 UV-I 0 W/m 17,2 C 19,2 C 6,4 km/h (2 Bft) 97,87 %
09.07.2017 00:46 19,3 C 25,0 C 88 % 1014,1 hPa 0,0 l/m 4,0 km/h (1 Bft) S 180 0 min 0,000 mm 0,0 UV-I 0 W/m 17,3 C 19,3 C 6,4 km/h (2 Bft) 93,62 %
09.07.2017 00:48 19,3 C 25,0 C 88 % 1014,1 hPa 0,0 l/m 2,9 km/h (1 Bft) S 180 0 min 0,000 mm 0,0 UV-I 0 W/m 17,3 C 19,3 C 4,8 km/h (1 Bft) 93,62 %
09.07.2017 00:50 19,3 C 25,0 C 88 % 1014,2 hPa 0,0 l/m 5,7 km/h (1 Bft) S-SW 194 0 min 0,000 mm 0,0 UV-I 0 W/m 17,3 C 19,3 C 8,0 km/h (2 Bft) 93,62 %
09.07.2017 00:52 19,3 C 25,0 C 88 % 1014,2 hPa 0,0 l/m 4,3 km/h (1 Bft) S-SW 207 0 min 0,000 mm 0,0 UV-I 0 W/m 17,3 C 19,3 C 4,8 km/h (1 Bft) 95,74 %
09.07.2017 00:54 19,4 C 25,0 C 87 % 1014,2 hPa 0,0 l/m 4,1 km/h (1 Bft) S-SW 199 0 min 0,000 mm 0,0 UV-I 0 W/m 17,2 C 19,4 C 6,4 km/h (2 Bft) 95,74 %
09.07.2017 00:56 19,4 C 25,0 C 87 % 1014,1 hPa 0,0 l/m 3,1 km/h (1 Bft) S-SW 199 0 min 0,000 mm 0,0 UV-I 0 W/m 17,2 C 19,4 C 6,4 km/h (2 Bft) 95,74 %
09.07.2017 00:58 19,4 C 25,0 C 87 % 1014,3 hPa 0,0 l/m 3,1 km/h (1 Bft) SW 215 0 min 0,000 mm 0,0 UV-I 0 W/m 17,2 C 19,4 C 6,4 km/h (2 Bft) 94,00 %
09.07.2017 01:00 19,4 C 25,0 C 87 % 1014,2 hPa 0,0 l/m 5,1 km/h (1 Bft) SW 219 0 min 0,000 mm 0,0 UV-I 0 W/m 17,2 C 19,4 C 6,4 km/h (2 Bft) 92,00 %
09.07.2017 01:02 19,4 C 25,0 C 87 % 1014,3 hPa 0,0 l/m 3,7 km/h (1 Bft) SW 219 0 min 0,000 mm 0,0 UV-I 0 W/m 17,2 C 19,4 C 6,4 km/h (2 Bft) 97,22 %
09.07.2017 01:04 19,5 C 25,0 C 87 % 1014,3 hPa 0,0 l/m 3,5 km/h (1 Bft) SW 219 0 min 0,000 mm 0,0 UV-I 0 W/m 17,3 C 19,5 C 4,8 km/h (1 Bft) 94,23 %
09.07.2017 01:06 19,5 C 25,0 C 87 % 1014,4 hPa 0,0 l/m 4,4 km/h (1 Bft) SW 219 0 min 0,000 mm 0,0 UV-I 0 W/m 17,3 C 19,5 C 6,4 km/h (2 Bft) 95,74 %
09.07.2017 01:08 19,5 C 25,0 C 87 % 1014,3 hPa 0,0 l/m 3,3 km/h (1 Bft) SW 219 0 min 0,000 mm 0,0 UV-I 0 W/m 17,3 C 19,5 C 4,8 km/h (1 Bft) 95,83 %
09.07.2017 01:10 19,5 C 25,0 C 87 % 1014,2 hPa 0,0 l/m 3,8 km/h (1 Bft) S 175 0 min 0,000 mm 0,0 UV-I 0 W/m 17,3 C 19,5 C 6,4 km/h (2 Bft) 93,88 %
09.07.2017 01:12 19,5 C 25,0 C 87 % 1014,1 hPa 0,0 l/m 3,0 km/h (1 Bft) S 175 0 min 0,000 mm 0,0 UV-I 0 W/m 17,3 C 19,5 C 6,4 km/h (2 Bft) 93,75 %
09.07.2017 01:14 19,5 C 25,0 C 87 % 1014,1 hPa 0,0 l/m 1,0 km/h (0 Bft) S 175 0 min 0,000 mm 0,0 UV-I 0 W/m 17,3 C 19,5 C 3,2 km/h (1 Bft) 93,62 %
09.07.2017 01:16 19,5 C 25,0 C 87 % 1014,1 hPa 0,0 l/m 3,4 km/h (1 Bft) S 175 0 min 0,000 mm 0,0 UV-I 0 W/m 17,3 C 19,5 C 4,8 km/h (1 Bft) 93,62 %
09.07.2017 01:18 19,6 C 25,0 C 87 % 1014,0 hPa 0,0 l/m 2,3 km/h (1 Bft) S 175 0 min 0,000 mm 0,0 UV-I 0 W/m 17,4 C 19,6 C 3,2 km/h (1 Bft) 94,74 %
09.07.2017 01:20 19,6 C 25,0 C 87 % 1014,0 hPa 0,0 l/m 3,0 km/h (1 Bft) S 175 0 min 0,000 mm 0,0 UV-I 0 W/m 17,4 C 19,6 C 4,8 km/h (1 Bft) 95,74 %
09.07.2017 01:22 19,6 C 25,0 C 87 % 1013,9 hPa 0,0 l/m 2,4 km/h (1 Bft) S 175 0 min 0,000 mm 0,0 UV-I 0 W/m 17,4 C 19,6 C 4,8 km/h (1 Bft) 97,87 %
09.07.2017 01:24 19,7 C 25,0 C 87 % 1013,9 hPa 0,0 l/m 5,1 km/h (1 Bft) S 185 0 min 0,000 mm 0,0 UV-I 0 W/m 17,5 C 19,7 C 9,7 km/h (2 Bft) 91,49 %
09.07.2017 01:26 19,7 C 25,0 C 87 % 1013,8 hPa 0,0 l/m 3,0 km/h (1 Bft) S 181 0 min 0,000 mm 0,0 UV-I 0 W/m 17,5 C 19,7 C 6,4 km/h (2 Bft) 97,87 %
09.07.2017 01:28 19,7 C 25,0 C 86 % 1013,8 hPa 0,0 l/m 3,8 km/h (1 Bft) S 182 0 min 0,000 mm 0,0 UV-I 0 W/m 17,3 C 19,7 C 6,4 km/h (2 Bft) 95,74 %
09.07.2017 01:30 19,7 C 25,0 C 86 % 1013,8 hPa 0,0 l/m 3,9 km/h (1 Bft) S 186 0 min 0,000 mm 0,0 UV-I 0 W/m 17,3 C 19,7 C 6,4 km/h (2 Bft) 95,74 %
09.07.2017 01:32 19,8 C 25,0 C 86 % 1013,8 hPa 0,0 l/m 5,5 km/h (1 Bft) S-SW 200 0 min 0,000 mm 0,0 UV-I 0 W/m 17,4 C 19,8 C 8,0 km/h (2 Bft) 97,87 %
09.07.2017 01:34 19,8 C 25,0 C 86 % 1013,9 hPa 0,0 l/m 5,5 km/h (1 Bft) S 188 0 min 0,000 mm 0,0 UV-I 0 W/m 17,4 C 19,8 C 8,0 km/h (2 Bft) 96,00 %
09.07.2017 01:36 19,8 C 25,0 C 86 % 1013,9 hPa 0,0 l/m 4,7 km/h (1 Bft) S-SW 198 0 min 0,000 mm 0,0 UV-I 0 W/m 17,4 C 19,8 C 6,4 km/h (2 Bft) 97,87 %
09.07.2017 01:38 19,8 C 25,0 C 86 % 1013,9 hPa 0,0 l/m 6,5 km/h (2 Bft) S-SW 211 0 min 0,000 mm 0,0 UV-I 0 W/m 17,4 C 19,8 C 9,7 km/h (2 Bft) 98,00 %
09.07.2017 01:40 19,8 C 25,0 C 86 % 1013,9 hPa 0,0 l/m 6,1 km/h (2 Bft) SW 227 0 min 0,000 mm 0,0 UV-I 0 W/m 17,4 C 19,8 C 8,0 km/h (2 Bft) 97,87 %
09.07.2017 01:42 19,8 C 25,0 C 86 % 1013,9 hPa 0,0 l/m 6,0 km/h (2 Bft) S-SW 203 0 min 0,000 mm 0,0 UV-I 0 W/m 17,4 C 19,8 C 9,7 km/h (2 Bft) 91,49 %
09.07.2017 01:44 19,8 C 25,0 C 86 % 1013,9 hPa 0,0 l/m 5,6 km/h (1 Bft) SW 227 0 min 0,000 mm 0,0 UV-I 0 W/m 17,4 C 19,8 C 8,0 km/h (2 Bft) 95,74 %
09.07.2017 01:46 19,8 C 25,0 C 85 % 1013,9 hPa 0,0 l/m 3,8 km/h (1 Bft) SW 223 0 min 0,000 mm 0,0 UV-I 0 W/m 17,2 C 19,8 C 4,8 km/h (1 Bft) 93,62 %
09.07.2017 01:48 19,8 C 25,0 C 86 % 1013,9 hPa 0,0 l/m 2,8 km/h (1 Bft) SW 223 0 min 0,000 mm 0,0 UV-I 0 W/m 17,4 C 19,8 C 4,8 km/h (1 Bft) 93,62 %
09.07.2017 01:50 19,8 C 25,0 C 86 % 1013,9 hPa 0,0 l/m 3,1 km/h (1 Bft) SW 223 0 min 0,000 mm 0,0 UV-I 0 W/m 17,4 C 19,8 C 4,8 km/h (1 Bft) 94,87 %
09.07.2017 01:52 19,8 C 25,0 C 86 % 1013,9 hPa 0,0 l/m 3,5 km/h (1 Bft) SW 236 0 min 0,000 mm 0,0 UV-I 0 W/m 17,4 C 19,8 C 4,8 km/h (1 Bft) 97,87 %
09.07.2017 01:54 19,8 C 25,0 C 86 % 1013,9 hPa 0,0 l/m 3,5 km/h (1 Bft) SW 236 0 min 0,000 mm 0,0 UV-I 0 W/m 17,4 C 19,8 C 4,8 km/h (1 Bft) 95,74 %
09.07.2017 01:56 19,7 C 25,0 C 86 % 1013,8 hPa 0,0 l/m 3,9 km/h (1 Bft) S-SW 211 0 min 0,000 mm 0,0 UV-I 0 W/m 17,3 C 19,7 C 6,4 km/h (2 Bft) 95,74 %
09.07.2017 01:58 19,7 C 25,0 C 86 % 1013,7 hPa 0,0 l/m 3,6 km/h (1 Bft) S-SW 211 0 min 0,000 mm 0,0 UV-I 0 W/m 17,3 C 19,7 C 4,8 km/h (1 Bft) 97,87 %
09.07.2017 02:00 19,7 C 25,0 C 86 % 1013,6 hPa 0,0 l/m 3,4 km/h (1 Bft) S-SW 211 0 min 0,000 mm 0,0 UV-I 0 W/m 17,3 C 19,7 C 4,8 km/h (1 Bft) 95,74 %
09.07.2017 02:02 19,6 C 25,0 C 87 % 1013,6 hPa 0,0 l/m 3,0 km/h (1 Bft) S-SW 211 0 min 0,000 mm 0,0 UV-I 0 W/m 17,4 C 19,6 C 4,8 km/h (1 Bft) 97,87 %
09.07.2017 02:04 19,6 C 25,0 C 87 % 1013,6 hPa 0,0 l/m 3,5 km/h (1 Bft) S-SW 211 0 min 0,000 mm 0,0 UV-I 0 W/m 17,4 C 19,6 C 4,8 km/h (1 Bft) 96,00 %
09.07.2017 02:06 19,6 C 25,0 C 87 % 1013,7 hPa 0,0 l/m 4,1 km/h (1 Bft) S-SW 211 0 min 0,000 mm 0,0 UV-I 0 W/m 17,4 C 19,6 C 6,4 km/h (2 Bft) 97,87 %
09.07.2017 02:08 19,6 C 25,0 C 87 % 1013,7 hPa 0,0 l/m 4,6 km/h (1 Bft) S-SW 211 0 min 0,000 mm 0,0 UV-I 0 W/m 17,4 C 19,6 C 6,4 km/h (2 Bft) 97,87 %
09.07.2017 02:10 19,6 C 25,0 C 87 % 1013,8 hPa 0,0 l/m 4,7 km/h (1 Bft) S-SW 207 0 min 0,000 mm 0,0 UV-I 0 W/m 17,4 C 19,6 C 6,4 km/h (2 Bft) 97,87 %
09.07.2017 02:12 19,6 C 25,0 C 87 % 1013,8 hPa 0,0 l/m 5,3 km/h (1 Bft) SW 223 0 min 0,000 mm 0,0 UV-I 0 W/m 17,4 C 19,6 C 6,4 km/h (2 Bft) 95,74 %
09.07.2017 02:14 19,6 C 25,0 C 87 % 1013,7 hPa 0,0 l/m 4,7 km/h (1 Bft) SW 223 0 min 0,000 mm 0,0 UV-I 0 W/m 17,4 C 19,6 C 6,4 km/h (2 Bft) 95,74 %
09.07.2017 02:16 19,6 C 25,0 C 87 % 1013,7 hPa 0,0 l/m 2,2 km/h (1 Bft) SW 223 0 min 0,000 mm 0,0 UV-I 0 W/m 17,4 C 19,6 C 4,8 km/h (1 Bft) 93,62 %
09.07.2017 02:18 19,5 C 25,0 C 87 % 1013,7 hPa 0,0 l/m 1,5 km/h (1 Bft) SW 223 0 min 0,000 mm 0,0 UV-I 0 W/m 17,3 C 19,5 C 3,2 km/h (1 Bft) 95,74 %
09.07.2017 02:20 19,4 C 25,0 C 87 % 1013,7 hPa 0,0 l/m 2,0 km/h (1 Bft) SW 223 0 min 0,000 mm 0,0 UV-I 0 W/m 17,2 C 19,4 C 3,2 km/h (1 Bft) 95,74 %
09.07.2017 02:22 19,4 C 25,0 C 87 % 1013,7 hPa 0,0 l/m 2,4 km/h (1 Bft) SW 223 0 min 0,000 mm 0,0 UV-I 0 W/m 17,2 C 19,4 C 4,8 km/h (1 Bft) 91,49 %
09.07.2017 02:24 19,4 C 25,0 C 87 % 1013,7 hPa 0,0 l/m 2,8 km/h (1 Bft) SW 223 0 min 0,000 mm 0,0 UV-I 0 W/m 17,2 C 19,4 C 4,8 km/h (1 Bft) 95,74 %
09.07.2017 02:26 19,4 C 25,0 C 87 % 1013,7 hPa 0,0 l/m 1,8 km/h (1 Bft) SW 223 0 min 0,000 mm 0,0 UV-I 0 W/m 17,2 C 19,4 C 4,8 km/h (1 Bft) 92,31 %
09.07.2017 02:28 19,3 C 25,0 C 87 % 1013,7 hPa 0,0 l/m 2,7 km/h (1 Bft) SW 223 0 min 0,000 mm 0,0 UV-I 0 W/m 17,1 C 19,3 C 4,8 km/h (1 Bft) 95,74 %
09.07.2017 02:30 19,3 C 25,0 C 87 % 1013,8 hPa 0,0 l/m 1,5 km/h (1 Bft) SW 215 0 min 0,000 mm 0,0 UV-I 0 W/m 17,1 C 19,3 C 3,2 km/h (1 Bft) 96,00 %
09.07.2017 02:32 19,3 C 25,0 C 87 % 1013,8 hPa 0,0 l/m 1,7 km/h (1 Bft) S-SW 211 0 min 0,000 mm 0,0 UV-I 0 W/m 17,1 C 19,3 C 4,8 km/h (1 Bft) 98,00 %
09.07.2017 02:34 19,2 C 25,0 C 88 % 1013,8 hPa 0,0 l/m 1,5 km/h (1 Bft) S-SW 208 0 min 0,000 mm 0,0 UV-I 0 W/m 17,2 C 19,2 C 3,2 km/h (1 Bft) 95,74 %
09.07.2017 02:36 19,2 C 25,0 C 88 % 1013,7 hPa 0,0 l/m 0,3 km/h (0 Bft) S-SW 208 0 min 0,000 mm 0,0 UV-I 0 W/m 17,2 C 19,2 C 1,6 km/h (1 Bft) 93,62 %
09.07.2017 02:38 19,2 C 25,0 C 88 % 1013,7 hPa 0,0 l/m 0,8 km/h (0 Bft) S-SW 208 0 min 0,000 mm 0,0 UV-I 0 W/m 17,2 C 19,2 C 1,6 km/h (1 Bft) 93,62 %
09.07.2017 02:40 19,2 C 25,0 C 88 % 1013,7 hPa 0,0 l/m 1,2 km/h (1 Bft) S-SW 208 0 min 0,000 mm 0,0 UV-I 0 W/m 17,2 C 19,2 C 3,2 km/h (1 Bft) 95,74 %
09.07.2017 02:42 19,2 C 25,0 C 88 % 1013,7 hPa 0,0 l/m 0,0 km/h (0 Bft) S-SW 208 0 min 0,000 mm 0,0 UV-I 0 W/m 17,2 C 19,2 C 1,6 km/h (1 Bft) 96,00 %
09.07.2017 02:44 19,2 C 25,0 C 88 % 1013,8 hPa 0,0 l/m 0,0 km/h (0 Bft) S-SW 208 0 min 0,000 mm 0,0 UV-I 0 W/m 17,2 C 19,2 C 0,0 km/h (0 Bft) 95,74 %
09.07.2017 02:46 19,2 C 25,0 C 88 % 1013,9 hPa 0,0 l/m 0,0 km/h (0 Bft) S-SW 208 0 min 0,000 mm 0,0 UV-I 0 W/m 17,2 C 19,2 C 0,0 km/h (0 Bft) 91,49 %
09.07.2017 02:48 19,1 C 25,0 C 88 % 1013,9 hPa 0,0 l/m 0,0 km/h (0 Bft) S-SW 208 0 min 0,000 mm 0,0 UV-I 0 W/m 17,1 C 19,1 C 1,6 km/h (1 Bft) 93,62 %
09.07.2017 02:50 19,1 C 25,0 C 88 % 1013,9 hPa 0,0 l/m 0,2 km/h (0 Bft) S-SW 208 0 min 0,000 mm 0,0 UV-I 0 W/m 17,1 C 19,1 C 3,2 km/h (1 Bft) 88,89 %
09.07.2017 02:52 18,9 C 25,0 C 88 % 1013,9 hPa 0,0 l/m 1,4 km/h (1 Bft) S-SW 208 0 min 0,000 mm 0,0 UV-I 0 W/m 16,9 C 18,9 C 3,2 km/h (1 Bft) 95,74 %
09.07.2017 02:54 18,8 C 25,0 C 88 % 1013,9 hPa 0,0 l/m 0,0 km/h (0 Bft) S-SW 208 0 min 0,000 mm 0,0 UV-I 0 W/m 16,8 C 18,8 C 0,0 km/h (0 Bft) 93,62 %
09.07.2017 02:56 18,7 C 25,0 C 88 % 1013,9 hPa 0,0 l/m 0,0 km/h (0 Bft) S-SW 208 0 min 0,000 mm 0,0 UV-I 0 W/m 16,7 C 18,7 C 0,0 km/h (0 Bft) 93,62 %
09.07.2017 02:58 18,6 C 25,0 C 89 % 1013,9 hPa 0,0 l/m 0,0 km/h (0 Bft) S-SW 208 0 min 0,000 mm 0,0 UV-I 0 W/m 16,7 C 18,6 C 0,0 km/h (0 Bft) 91,67 %
09.07.2017 03:00 18,5 C 25,0 C 89 % 1013,9 hPa 0,0 l/m 0,0 km/h (0 Bft) S-SW 208 0 min 0,000 mm 0,0 UV-I 0 W/m 16,7 C 18,5 C 0,0 km/h (0 Bft) 91,49 %
09.07.2017 03:02 18,4 C 25,0 C 89 % 1013,9 hPa 0,0 l/m 0,7 km/h (0 Bft) S-SW 208 0 min 0,000 mm 0,0 UV-I 0 W/m 16,6 C 18,4 C 3,2 km/h (1 Bft) 91,49 %
09.07.2017 03:04 18,4 C 25,0 C 90 % 1013,9 hPa 0,0 l/m 1,9 km/h (1 Bft) S-SW 208 0 min 0,000 mm 0,0 UV-I 0 W/m 16,7 C 18,4 C 3,2 km/h (1 Bft) 90,00 %
09.07.2017 03:06 18,3 C 25,0 C 90 % 1013,9 hPa 0,0 l/m 2,9 km/h (1 Bft) S-SW 208 0 min 0,000 mm 0,0 UV-I 0 W/m 16,6 C 18,3 C 3,2 km/h (1 Bft) 91,67 %
09.07.2017 03:08 18,2 C 25,0 C 90 % 1013,9 hPa 0,0 l/m 4,5 km/h (1 Bft) S-SW 208 0 min 0,000 mm 0,0 UV-I 0 W/m 16,5 C 18,2 C 4,8 km/h (1 Bft) 97,92 %
09.07.2017 03:10 18,2 C 25,0 C 90 % 1013,8 hPa 0,0 l/m 4,1 km/h (1 Bft) S-SO 163 0 min 0,000 mm 0,0 UV-I 0 W/m 16,5 C 18,2 C 6,4 km/h (2 Bft) 91,49 %
09.07.2017 03:12 18,1 C 25,0 C 91 % 1013,8 hPa 0,0 l/m 2,5 km/h (1 Bft) S-SO 163 0 min 0,000 mm 0,0 UV-I 0 W/m 16,6 C 18,1 C 3,2 km/h (1 Bft) 91,49 %
09.07.2017 03:14 18,1 C 25,0 C 91 % 1013,8 hPa 0,0 l/m 2,5 km/h (1 Bft) S-SO 163 0 min 0,000 mm 0,0 UV-I 0 W/m 16,6 C 18,1 C 3,2 km/h (1 Bft) 91,49 %
09.07.2017 03:16 18,1 C 25,0 C 91 % 1013,8 hPa 0,0 l/m 1,4 km/h (1 Bft) S-SO 163 0 min 0,000 mm 0,0 UV-I 0 W/m 16,6 C 18,1 C 3,2 km/h (1 Bft) 91,49 %
09.07.2017 03:18 18,1 C 25,0 C 91 % 1013,8 hPa 0,0 l/m 2,5 km/h (1 Bft) S-SO 163 0 min 0,000 mm 0,0 UV-I 0 W/m 16,6 C 18,1 C 3,2 km/h (1 Bft) 91,49 %
09.07.2017 03:20 18,0 C 25,0 C 91 % 1013,7 hPa 0,0 l/m 1,7 km/h (1 Bft) S-SO 163 0 min 0,000 mm 0,0 UV-I 0 W/m 16,5 C 18,0 C 3,2 km/h (1 Bft) 97,87 %
09.07.2017 03:22 18,1 C 25,0 C 91 % 1013,7 hPa 0,0 l/m 0,2 km/h (0 Bft) S-SO 163 0 min 0,000 mm 0,0 UV-I 0 W/m 16,6 C 18,1 C 1,6 km/h (1 Bft) 95,74 %
09.07.2017 03:24 18,0 C 25,0 C 91 % 1013,6 hPa 0,0 l/m 0,5 km/h (0 Bft) S-SO 163 0 min 0,000 mm 0,0 UV-I 0 W/m 16,5 C 18,0 C 1,6 km/h (1 Bft) 95,74 %
09.07.2017 03:26 18,0 C 25,0 C 91 % 1013,7 hPa 0,0 l/m 0,3 km/h (0 Bft) S-SO 163 0 min 0,000 mm 0,0 UV-I 0 W/m 16,5 C 18,0 C 1,6 km/h (1 Bft) 97,37 %
09.07.2017 03:28 18,0 C 25,0 C 91 % 1013,6 hPa 0,0 l/m 0,5 km/h (0 Bft) S-SO 163 0 min 0,000 mm 0,0 UV-I 0 W/m 16,5 C 18,0 C 1,6 km/h (1 Bft) 97,87 %
09.07.2017 03:30 18,0 C 25,0 C 91 % 1013,6 hPa 0,0 l/m 0,0 km/h (0 Bft) S-SO 163 0 min 0,000 mm 0,0 UV-I 0 W/m 16,5 C 18,0 C 1,6 km/h (1 Bft) 97,87 %
09.07.2017 03:32 18,1 C 25,0 C 91 % 1013,7 hPa 0,0 l/m 0,0 km/h (0 Bft) S-SO 163 0 min 0,000 mm 0,0 UV-I 0 W/m 16,6 C 18,1 C 0,0 km/h (0 Bft) 95,74 %
09.07.2017 03:34 18,0 C 25,0 C 91 % 1013,6 hPa 0,0 l/m 0,0 km/h (0 Bft) S-SO 163 0 min 0,000 mm 0,0 UV-I 0 W/m 16,5 C 18,0 C 0,0 km/h (0 Bft) 97,87 %
09.07.2017 03:36 18,1 C 25,0 C 91 % 1013,5 hPa 0,0 l/m 0,0 km/h (0 Bft) S-SO 163 0 min 0,000 mm 0,0 UV-I 0 W/m 16,6 C 18,1 C 0,0 km/h (0 Bft) 97,87 %
09.07.2017 03:38 18,1 C 25,0 C 91 % 1013,5 hPa 0,0 l/m 0,0 km/h (0 Bft) S-SO 163 0 min 0,000 mm 0,0 UV-I 0 W/m 16,6 C 18,1 C 0,0 km/h (0 Bft) 93,62 %
09.07.2017 03:40 18,1 C 25,0 C 91 % 1013,5 hPa 0,0 l/m 0,2 km/h (0 Bft) S-SO 163 0 min 0,000 mm 0,0 UV-I 0 W/m 16,6 C 18,1 C 1,6 km/h (1 Bft) 98,00 %
09.07.2017 03:42 18,0 C 25,0 C 91 % 1013,5 hPa 0,0 l/m 0,0 km/h (0 Bft) S-SO 163 0 min 0,000 mm 0,0 UV-I 0 W/m 16,5 C 18,0 C 0,0 km/h (0 Bft) 95,74 %
09.07.2017 03:44 18,0 C 25,0 C 91 % 1013,4 hPa 0,0 l/m 0,0 km/h (0 Bft) S-SO 163 0 min 0,000 mm 0,0 UV-I 0 W/m 16,5 C 18,0 C 0,0 km/h (0 Bft) 98,00 %
09.07.2017 03:46 17,9 C 25,0 C 91 % 1013,4 hPa 0,0 l/m 0,0 km/h (0 Bft) S-SO 163 0 min 0,000 mm 0,0 UV-I 0 W/m 16,4 C 17,9 C 0,0 km/h (0 Bft) 95,74 %
09.07.2017 03:48 17,9 C 25,0 C 91 % 1013,4 hPa 0,0 l/m 0,0 km/h (0 Bft) S-SO 163 0 min 0,000 mm 0,0 UV-I 0 W/m 16,4 C 17,9 C 0,0 km/h (0 Bft) 94,44 %
09.07.2017 03:50 17,9 C 25,0 C 91 % 1013,4 hPa 0,0 l/m 0,0 km/h (0 Bft) S-SO 163 0 min 0,000 mm 0,0 UV-I 0 W/m 16,4 C 17,9 C 0,0 km/h (0 Bft) 94,00 %
09.07.2017 03:52 17,8 C 25,0 C 91 % 1013,4 hPa 0,0 l/m 0,0 km/h (0 Bft) S-SO 163 0 min 0,000 mm 0,0 UV-I 0 W/m 16,3 C 17,8 C 0,0 km/h (0 Bft) 95,74 %
09.07.2017 03:54 17,8 C 25,0 C 91 % 1013,4 hPa 0,0 l/m 0,0 km/h (0 Bft) S-SO 163 0 min 0,000 mm 0,0 UV-I 0 W/m 16,3 C 17,8 C 0,0 km/h (0 Bft) 97,87 %
09.07.2017 03:56 17,7 C 25,0 C 91 % 1013,3 hPa 0,0 l/m 0,0 km/h (0 Bft) S-SO 163 0 min 0,000 mm 0,0 UV-I 0 W/m 16,2 C 17,7 C 0,0 km/h (0 Bft) 97,87 %
09.07.2017 03:58 17,7 C 25,0 C 91 % 1013,4 hPa 0,0 l/m 0,8 km/h (0 Bft) S-SO 163 0 min 0,000 mm 0,0 UV-I 0 W/m 16,2 C 17,7 C 3,2 km/h (1 Bft) 95,74 %
09.07.2017 04:00 17,6 C 25,0 C 91 % 1013,4 hPa 0,0 l/m 2,6 km/h (1 Bft) S-SO 163 0 min 0,000 mm 0,0 UV-I 0 W/m 16,1 C 17,6 C 3,2 km/h (1 Bft) 97,87 %
09.07.2017 04:02 17,6 C 25,0 C 91 % 1013,4 hPa 0,0 l/m 1,9 km/h (1 Bft) S-SO 163 0 min 0,000 mm 0,0 UV-I 0 W/m 16,1 C 17,6 C 3,2 km/h (1 Bft) 86,67 %
09.07.2017 04:04 17,4 C 25,0 C 91 % 1013,3 hPa 0,0 l/m 2,5 km/h (1 Bft) S-SO 163 0 min 0,000 mm 0,0 UV-I 0 W/m 15,9 C 17,4 C 3,2 km/h (1 Bft) 95,74 %
09.07.2017 04:06 17,3 C 25,0 C 91 % 1013,3 hPa 0,0 l/m 2,6 km/h (1 Bft) S-SO 163 0 min 0,000 mm 0,0 UV-I 0 W/m 15,8 C 17,3 C 3,2 km/h (1 Bft) 98,00 %
09.07.2017 04:08 17,3 C 25,0 C 92 % 1013,2 hPa 0,0 l/m 2,6 km/h (1 Bft) S-SO 163 0 min 0,000 mm 0,0 UV-I 0 W/m 16,0 C 17,3 C 3,2 km/h (1 Bft) 97,87 %
09.07.2017 04:10 17,4 C 25,0 C 92 % 1013,2 hPa 0,0 l/m 2,8 km/h (1 Bft) S-SO 163 0 min 0,000 mm 0,0 UV-I 0 W/m 16,1 C 17,4 C 6,4 km/h (2 Bft) 97,87 %
09.07.2017 04:13 17,5 C 25,0 C 92 % 1013,3 hPa 0,0 l/m 1,8 km/h (1 Bft) S-SO 163 0 min 0,000 mm 0,0 UV-I 0 W/m 16,2 C 17,5 C 3,2 km/h (1 Bft) 95,77 %
09.07.2017 04:14 17,6 C 25,0 C 92 % 1013,3 hPa 0,0 l/m 0,5 km/h (0 Bft) S-SO 163 0 min 0,000 mm 0,0 UV-I 0 W/m 16,3 C 17,6 C 1,6 km/h (1 Bft) 95,83 %
09.07.2017 04:16 17,6 C 25,0 C 92 % 1013,2 hPa 0,0 l/m 0,4 km/h (0 Bft) S-SO 163 0 min 0,000 mm 0,0 UV-I 0 W/m 16,3 C 17,6 C 1,6 km/h (1 Bft) 95,74 %
09.07.2017 04:18 17,4 C 25,0 C 91 % 1013,2 hPa 0,0 l/m 0,0 km/h (0 Bft) S-SO 163 0 min 0,000 mm 0,0 UV-I 0 W/m 15,9 C 17,4 C 0,0 km/h (0 Bft) 93,62 %
09.07.2017 04:20 17,3 C 25,0 C 91 % 1013,1 hPa 0,0 l/m 0,0 km/h (0 Bft) S-SO 163 0 min 0,000 mm 0,0 UV-I 0 W/m 15,8 C 17,3 C 0,0 km/h (0 Bft) 98,00 %
09.07.2017 04:22 17,3 C 25,0 C 91 % 1013,1 hPa 0,0 l/m 1,0 km/h (0 Bft) S-SO 163 0 min 0,000 mm 0,0 UV-I 0 W/m 15,8 C 17,3 C 1,6 km/h (1 Bft) 97,87 %
09.07.2017 04:24 17,3 C 25,0 C 92 % 1013,1 hPa 0,0 l/m 0,8 km/h (0 Bft) S-SO 163 0 min 0,000 mm 0,0 UV-I 0 W/m 16,0 C 17,3 C 1,6 km/h (1 Bft) 97,22 %
09.07.2017 04:26 17,3 C 25,0 C 92 % 1013,2 hPa 0,0 l/m 1,2 km/h (1 Bft) S-SO 163 0 min 0,000 mm 0,0 UV-I 0 W/m 16,0 C 17,3 C 3,2 km/h (1 Bft) 95,83 %
09.07.2017 04:28 17,3 C 25,0 C 92 % 1013,1 hPa 0,0 l/m 1,8 km/h (1 Bft) S-SO 163 0 min 0,000 mm 0,0 UV-I 0 W/m 16,0 C 17,3 C 3,2 km/h (1 Bft) 95,83 %
09.07.2017 04:30 17,3 C 25,0 C 92 % 1013,1 hPa 0,0 l/m 1,0 km/h (0 Bft) S-SO 163 0 min 0,000 mm 0,0 UV-I 0 W/m 16,0 C 17,3 C 3,2 km/h (1 Bft) 97,87 %
09.07.2017 04:32 17,3 C 25,0 C 92 % 1013,1 hPa 0,0 l/m 0,2 km/h (0 Bft) S-SO 163 0 min 0,000 mm 0,0 UV-I 0 W/m 16,0 C 17,3 C 1,6 km/h (1 Bft) 93,62 %
09.07.2017 04:34 17,3 C 25,0 C 92 % 1013,1 hPa 0,0 l/m 0,1 km/h (0 Bft) S-SO 163 0 min 0,000 mm 0,0 UV-I 0 W/m 16,0 C 17,3 C 1,6 km/h (1 Bft) 95,74 %
09.07.2017 04:36 17,3 C 25,0 C 92 % 1013,1 hPa 0,0 l/m 0,0 km/h (0 Bft) S-SO 163 0 min 0,000 mm 0,0 UV-I 0 W/m 16,0 C 17,3 C 0,0 km/h (0 Bft) 95,83 %
09.07.2017 04:38 17,3 C 25,0 C 92 % 1013,0 hPa 0,0 l/m 0,0 km/h (0 Bft) S-SO 163 0 min 0,000 mm 0,0 UV-I 0 W/m 16,0 C 17,3 C 0,0 km/h (0 Bft) 95,74 %
09.07.2017 04:40 17,3 C 25,0 C 92 % 1013,0 hPa 0,0 l/m 1,1 km/h (1 Bft) S-SO 163 0 min 0,000 mm 0,0 UV-I 0 W/m 16,0 C 17,3 C 3,2 km/h (1 Bft) 97,87 %
09.07.2017 04:42 17,3 C 25,0 C 92 % 1013,0 hPa 0,0 l/m 1,5 km/h (1 Bft) S-SO 163 0 min 0,000 mm 0,0 UV-I 0 W/m 16,0 C 17,3 C 3,2 km/h (1 Bft) 96,00 %
09.07.2017 04:44 17,3 C 25,0 C 92 % 1012,9 hPa 0,0 l/m 1,3 km/h (1 Bft) S-SO 163 0 min 0,000 mm 0,0 UV-I 0 W/m 16,0 C 17,3 C 3,2 km/h (1 Bft) 96,00 %
09.07.2017 04:46 17,2 C 25,0 C 92 % 1012,9 hPa 0,0 l/m 0,0 km/h (0 Bft) S-SO 163 0 min 0,000 mm 0,0 UV-I 0 W/m 15,9 C 17,2 C 1,6 km/h (1 Bft) 97,87 %
09.07.2017 04:48 17,2 C 25,0 C 92 % 1013,0 hPa 0,0 l/m 0,0 km/h (0 Bft) S-SO 163 0 min 0,000 mm 0,0 UV-I 0 W/m 15,9 C 17,2 C 0,0 km/h (0 Bft) 93,62 %
09.07.2017 04:50 17,2 C 25,0 C 92 % 1013,0 hPa 0,0 l/m 0,0 km/h (0 Bft) S-SO 163 0 min 0,000 mm 0,0 UV-I 0 W/m 15,9 C 17,2 C 0,0 km/h (0 Bft) 93,62 %
09.07.2017 04:52 17,2 C 25,0 C 92 % 1013,1 hPa 0,0 l/m 0,0 km/h (0 Bft) S-SO 163 0 min 0,000 mm 0,0 UV-I 0 W/m 15,9 C 17,2 C 0,0 km/h (0 Bft) 95,74 %
09.07.2017 04:54 17,2 C 25,0 C 92 % 1013,1 hPa 0,0 l/m 2,4 km/h (1 Bft) S-SO 163 0 min 0,000 mm 0,0 UV-I 0 W/m 15,9 C 17,2 C 3,2 km/h (1 Bft) 94,29 %
09.07.2017 04:56 17,1 C 25,0 C 92 % 1012,9 hPa 0,0 l/m 2,6 km/h (1 Bft) S-SO 163 0 min 0,000 mm 0,0 UV-I 0 W/m 15,8 C 17,1 C 3,2 km/h (1 Bft) 96,00 %
09.07.2017 04:58 17,0 C 25,0 C 92 % 1012,8 hPa 0,0 l/m 0,1 km/h (0 Bft) S-SO 163 0 min 0,000 mm 0,0 UV-I 0 W/m 15,7 C 17,0 C 1,6 km/h (1 Bft) 95,74 %
09.07.2017 05:00 16,9 C 25,0 C 92 % 1012,8 hPa 0,0 l/m 0,0 km/h (0 Bft) S-SO 163 0 min 0,000 mm 0,0 UV-I 2 W/m 15,6 C 16,9 C 0,0 km/h (0 Bft) 95,83 %
09.07.2017 05:02 16,9 C 25,0 C 93 % 1012,8 hPa 0,0 l/m 0,0 km/h (0 Bft) S-SO 163 0 min 0,000 mm 0,0 UV-I 5 W/m 15,8 C 16,9 C 0,0 km/h (0 Bft) 93,62 %
09.07.2017 05:04 16,9 C 25,0 C 93 % 1012,8 hPa 0,0 l/m 0,0 km/h (0 Bft) S-SO 163 0 min 0,000 mm 0,0 UV-I 5 W/m 15,8 C 16,9 C 0,0 km/h (0 Bft) 95,74 %
09.07.2017 05:06 16,8 C 25,0 C 93 % 1012,8 hPa 0,0 l/m 0,0 km/h (0 Bft) S-SO 163 0 min 0,000 mm 0,0 UV-I 5 W/m 15,7 C 16,8 C 0,0 km/h (0 Bft) 93,62 %
09.07.2017 05:08 16,8 C 25,0 C 93 % 1012,8 hPa 0,0 l/m 0,0 km/h (0 Bft) S-SO 163 0 min 0,000 mm 0,0 UV-I 5 W/m 15,7 C 16,8 C 0,0 km/h (0 Bft) 95,74 %
09.07.2017 05:10 16,8 C 25,0 C 93 % 1012,8 hPa 0,0 l/m 0,0 km/h (0 Bft) S-SO 163 0 min 0,000 mm 0,0 UV-I 6 W/m 15,7 C 16,8 C 0,0 km/h (0 Bft) 95,74 %
09.07.2017 05:12 16,8 C 25,0 C 93 % 1012,9 hPa 0,0 l/m 0,0 km/h (0 Bft) S-SO 163 0 min 0,000 mm 0,0 UV-I 7 W/m 15,7 C 16,8 C 0,0 km/h (0 Bft) 93,62 %
09.07.2017 05:14 16,7 C 25,0 C 93 % 1012,9 hPa 0,0 l/m 0,0 km/h (0 Bft) S-SO 163 0 min 0,000 mm 0,0 UV-I 7 W/m 15,6 C 16,7 C 0,0 km/h (0 Bft) 95,74 %
09.07.2017 05:16 16,7 C 25,0 C 93 % 1012,9 hPa 0,0 l/m 0,0 km/h (0 Bft) S-SO 163 0 min 0,000 mm 0,0 UV-I 7 W/m 15,6 C 16,7 C 0,0 km/h (0 Bft) 93,62 %
09.07.2017 05:18 16,6 C 25,0 C 93 % 1012,9 hPa 0,0 l/m 0,0 km/h (0 Bft) S-SO 163 0 min 0,000 mm 0,0 UV-I 7 W/m 15,5 C 16,6 C 0,0 km/h (0 Bft) 95,74 %
09.07.2017 05:20 16,7 C 25,0 C 93 % 1012,8 hPa 0,0 l/m 0,0 km/h (0 Bft) S-SO 163 0 min 0,000 mm 0,0 UV-I 9 W/m 15,6 C 16,7 C 0,0 km/h (0 Bft) 94,00 %
09.07.2017 05:22 16,7 C 25,0 C 93 % 1012,9 hPa 0,0 l/m 0,0 km/h (0 Bft) S-SO 163 0 min 0,000 mm 0,0 UV-I 9 W/m 15,6 C 16,7 C 0,0 km/h (0 Bft) 93,62 %
09.07.2017 05:24 16,7 C 25,0 C 93 % 1012,9 hPa 0,0 l/m 0,0 km/h (0 Bft) S-SO 163 0 min 0,000 mm 0,0 UV-I 9 W/m 15,6 C 16,7 C 0,0 km/h (0 Bft) 97,87 %
09.07.2017 05:26 16,7 C 25,0 C 93 % 1013,0 hPa 0,0 l/m 0,0 km/h (0 Bft) S-SO 163 2 min 0,000 mm 0,0 UV-I 11 W/m 15,6 C 16,7 C 0,0 km/h (0 Bft) 97,87 %
09.07.2017 05:28 16,7 C 25,0 C 93 % 1012,9 hPa 0,0 l/m 0,0 km/h (0 Bft) S-SO 163 2 min 0,000 mm 0,0 UV-I 11 W/m 15,6 C 16,7 C 0,0 km/h (0 Bft) 95,74 %
09.07.2017 05:30 16,7 C 25,0 C 93 % 1012,9 hPa 0,0 l/m 0,0 km/h (0 Bft) S-SO 163 0 min 0,000 mm 0,0 UV-I 12 W/m 15,6 C 16,7 C 0,0 km/h (0 Bft) 95,74 %
09.07.2017 05:32 16,7 C 25,0 C 93 % 1012,9 hPa 0,0 l/m 0,0 km/h (0 Bft) S-SO 163 0 min 0,000 mm 0,0 UV-I 13 W/m 15,6 C 16,7 C 0,0 km/h (0 Bft) 91,67 %
09.07.2017 05:34 16,7 C 25,0 C 93 % 1013,0 hPa 0,0 l/m 0,0 km/h (0 Bft) S-SO 163 0 min 0,000 mm 0,0 UV-I 16 W/m 15,6 C 16,7 C 0,0 km/h (0 Bft) 94,44 %
09.07.2017 05:36 16,7 C 25,0 C 93 % 1013,1 hPa 0,0 l/m 1,7 km/h (1 Bft) S-SO 163 0 min 0,000 mm 0,0 UV-I 18 W/m 15,6 C 16,7 C 3,2 km/h (1 Bft) 95,83 %
09.07.2017 05:38 16,7 C 25,0 C 93 % 1013,1 hPa 0,0 l/m 2,8 km/h (1 Bft) S-SO 163 0 min 0,000 mm 0,0 UV-I 20 W/m 15,6 C 16,7 C 6,4 km/h (2 Bft) 93,62 %
09.07.2017 05:40 16,7 C 25,0 C 93 % 1013,1 hPa 0,0 l/m 2,5 km/h (1 Bft) S-SO 163 0 min 0,000 mm 0,0 UV-I 23 W/m 15,6 C 16,7 C 6,4 km/h (2 Bft) 97,87 %
09.07.2017 05:42 16,7 C 25,0 C 94 % 1013,0 hPa 0,0 l/m 1,0 km/h (0 Bft) S-SO 163 2 min 0,000 mm 0,0 UV-I 30 W/m 15,7 C 16,7 C 3,2 km/h (1 Bft) 97,92 %
09.07.2017 05:44 16,8 C 25,0 C 94 % 1013,0 hPa 0,0 l/m 1,5 km/h (1 Bft) S-SO 163 2 min 0,000 mm 0,0 UV-I 33 W/m 15,8 C 16,8 C 3,2 km/h (1 Bft) 95,74 %
09.07.2017 05:46 16,8 C 25,0 C 93 % 1013,0 hPa 0,0 l/m 0,2 km/h (0 Bft) S-SO 163 2 min 0,000 mm 0,0 UV-I 36 W/m 15,7 C 16,8 C 1,6 km/h (1 Bft) 97,87 %
09.07.2017 05:48 16,7 C 25,0 C 93 % 1013,0 hPa 0,0 l/m 0,0 km/h (0 Bft) S-SO 163 2 min 0,000 mm 0,0 UV-I 38 W/m 15,6 C 16,7 C 0,0 km/h (0 Bft) 97,87 %
09.07.2017 05:50 16,6 C 25,0 C 93 % 1012,9 hPa 0,0 l/m 0,5 km/h (0 Bft) S-SO 163 0 min 0,000 mm 0,0 UV-I 39 W/m 15,5 C 16,6 C 1,6 km/h (1 Bft) 91,49 %
09.07.2017 05:52 16,6 C 25,0 C 93 % 1012,9 hPa 0,0 l/m 0,5 km/h (0 Bft) S-SO 163 0 min 0,000 mm 0,0 UV-I 41 W/m 15,5 C 16,6 C 1,6 km/h (1 Bft) 94,00 %
09.07.2017 05:54 16,4 C 25,0 C 93 % 1012,9 hPa 0,0 l/m 0,1 km/h (0 Bft) S-SO 163 0 min 0,000 mm 0,0 UV-I 43 W/m 15,3 C 16,4 C 1,6 km/h (1 Bft) 97,87 %
09.07.2017 05:56 16,3 C 25,0 C 93 % 1012,9 hPa 0,0 l/m 2,8 km/h (1 Bft) S-SO 163 0 min 0,000 mm 0,0 UV-I 47 W/m 15,2 C 16,3 C 6,4 km/h (2 Bft) 95,74 %
09.07.2017 05:58 16,3 C 25,0 C 94 % 1012,9 hPa 0,0 l/m 2,5 km/h (1 Bft) S-SO 163 2 min 0,000 mm 0,0 UV-I 52 W/m 15,3 C 16,3 C 3,2 km/h (1 Bft) 95,74 %
09.07.2017 06:00 16,4 C 25,0 C 94 % 1012,9 hPa 0,0 l/m 2,7 km/h (1 Bft) S-SO 163 2 min 0,000 mm 0,0 UV-I 55 W/m 15,4 C 16,4 C 6,4 km/h (2 Bft) 95,74 %
09.07.2017 06:02 16,4 C 25,0 C 94 % 1013,0 hPa 0,0 l/m 3,3 km/h (1 Bft) S-SO 163 2 min 0,025 mm 0,0 UV-I 61 W/m 15,4 C 16,4 C 6,4 km/h (2 Bft) 94,00 %
09.07.2017 06:04 16,6 C 25,0 C 94 % 1013,0 hPa 0,0 l/m 3,4 km/h (1 Bft) S-SO 162 2 min 0,000 mm 0,0 UV-I 66 W/m 15,6 C 16,6 C 6,4 km/h (2 Bft) 92,11 %
09.07.2017 06:06 16,7 C 25,0 C 94 % 1013,0 hPa 0,0 l/m 2,3 km/h (1 Bft) S-SO 162 2 min 0,000 mm 0,0 UV-I 71 W/m 15,7 C 16,7 C 3,2 km/h (1 Bft) 93,62 %
09.07.2017 06:08 16,7 C 25,0 C 94 % 1013,0 hPa 0,0 l/m 2,1 km/h (1 Bft) S-SO 162 2 min 0,000 mm 0,0 UV-I 75 W/m 15,7 C 16,7 C 3,2 km/h (1 Bft) 94,00 %
09.07.2017 06:10 16,8 C 25,0 C 94 % 1013,1 hPa 0,0 l/m 0,9 km/h (0 Bft) S-SO 162 2 min 0,000 mm 0,0 UV-I 78 W/m 15,8 C 16,8 C 3,2 km/h (1 Bft) 95,74 %
09.07.2017 06:12 16,8 C 25,0 C 94 % 1013,1 hPa 0,0 l/m 2,3 km/h (1 Bft) S-SO 162 2 min 0,000 mm 0,0 UV-I 83 W/m 15,8 C 16,8 C 3,2 km/h (1 Bft) 93,62 %
09.07.2017 06:14 16,9 C 25,0 C 94 % 1013,1 hPa 0,0 l/m 0,3 km/h (0 Bft) S-SO 162 2 min 0,000 mm 0,0 UV-I 86 W/m 15,9 C 16,9 C 1,6 km/h (1 Bft) 91,49 %
09.07.2017 06:16 16,8 C 25,0 C 93 % 1013,1 hPa 0,0 l/m 0,2 km/h (0 Bft) S-SO 162 2 min 0,000 mm 0,0 UV-I 89 W/m 15,7 C 16,8 C 1,6 km/h (1 Bft) 97,44 %
09.07.2017 06:18 16,9 C 25,0 C 93 % 1013,1 hPa 0,0 l/m 0,0 km/h (0 Bft) S-SO 162 2 min 0,000 mm 0,0 UV-I 93 W/m 15,8 C 16,9 C 0,0 km/h (0 Bft) 94,00 %
09.07.2017 06:20 16,9 C 25,0 C 93 % 1013,1 hPa 0,0 l/m 0,0 km/h (0 Bft) S-SO 162 2 min 0,000 mm 0,0 UV-I 97 W/m 15,8 C 16,9 C 0,0 km/h (0 Bft) 95,74 %
09.07.2017 06:22 17,1 C 25,0 C 93 % 1013,1 hPa 0,0 l/m 0,0 km/h (0 Bft) S-SO 162 2 min 0,000 mm 0,0 UV-I 100 W/m 16,0 C 17,1 C 0,0 km/h (0 Bft) 96,00 %
09.07.2017 06:24 17,1 C 25,0 C 93 % 1013,1 hPa 0,0 l/m 0,0 km/h (0 Bft) S-SO 162 2 min 0,000 mm 0,0 UV-I 95 W/m 16,0 C 17,1 C 0,0 km/h (0 Bft) 97,87 %
09.07.2017 06:26 17,2 C 25,0 C 93 % 1013,1 hPa 0,0 l/m 0,0 km/h (0 Bft) S-SO 162 0 min 0,000 mm 0,0 UV-I 66 W/m 16,1 C 17,2 C 0,0 km/h (0 Bft) 95,74 %
09.07.2017 06:28 17,3 C 25,0 C 93 % 1013,1 hPa 0,0 l/m 1,1 km/h (1 Bft) S-SO 162 0 min 0,000 mm 0,0 UV-I 51 W/m 16,2 C 17,3 C 1,6 km/h (1 Bft) 97,87 %
09.07.2017 06:30 17,4 C 25,0 C 93 % 1013,1 hPa 0,0 l/m 0,6 km/h (0 Bft) S-SO 162 0 min 0,000 mm 0,0 UV-I 51 W/m 16,3 C 17,4 C 1,6 km/h (1 Bft) 97,87 %
09.07.2017 06:32 17,4 C 25,0 C 93 % 1013,1 hPa 0,0 l/m 0,0 km/h (0 Bft) S-SO 162 0 min 0,000 mm 0,0 UV-I 53 W/m 16,3 C 17,4 C 0,0 km/h (0 Bft) 96,00 %
09.07.2017 06:34 17,6 C 25,0 C 93 % 1013,1 hPa 0,0 l/m 0,0 km/h (0 Bft) S-SO 162 0 min 0,000 mm 0,0 UV-I 61 W/m 16,5 C 17,6 C 0,0 km/h (0 Bft) 95,74 %
09.07.2017 06:36 17,6 C 25,0 C 93 % 1013,0 hPa 0,0 l/m 0,0 km/h (0 Bft) S-SO 162 2 min 0,000 mm 0,0 UV-I 115 W/m 16,5 C 17,6 C 0,0 km/h (0 Bft) 95,74 %
09.07.2017 06:38 17,6 C 25,0 C 93 % 1013,0 hPa 0,0 l/m 0,0 km/h (0 Bft) S-SO 162 2 min 0,000 mm 0,0 UV-I 130 W/m 16,5 C 17,6 C 0,0 km/h (0 Bft) 96,00 %
09.07.2017 06:40 17,6 C 25,0 C 93 % 1013,0 hPa 0,0 l/m 0,0 km/h (0 Bft) S-SO 162 2 min 0,000 mm 0,0 UV-I 135 W/m 16,5 C 17,6 C 0,0 km/h (0 Bft) 97,87 %
09.07.2017 06:42 17,6 C 25,0 C 92 % 1013,0 hPa 0,0 l/m 0,0 km/h (0 Bft) S-SO 162 2 min 0,000 mm 0,0 UV-I 139 W/m 16,3 C 17,6 C 0,0 km/h (0 Bft) 93,62 %
09.07.2017 06:44 17,7 C 25,0 C 92 % 1013,0 hPa 0,0 l/m 0,1 km/h (0 Bft) S-SO 162 2 min 0,000 mm 0,0 UV-I 143 W/m 16,4 C 17,7 C 1,6 km/h (1 Bft) 94,29 %
09.07.2017 06:46 17,8 C 25,0 C 92 % 1013,1 hPa 0,0 l/m 1,1 km/h (1 Bft) S-SO 162 2 min 0,000 mm 0,0 UV-I 150 W/m 16,5 C 17,8 C 1,6 km/h (1 Bft) 95,74 %
09.07.2017 06:48 17,8 C 25,0 C 91 % 1013,1 hPa 0,0 l/m 1,7 km/h (1 Bft) S-SO 162 2 min 0,000 mm 0,0 UV-I 155 W/m 16,3 C 17,8 C 3,2 km/h (1 Bft) 100,00 %
09.07.2017 06:50 17,9 C 25,0 C 91 % 1013,1 hPa 0,0 l/m 1,2 km/h (1 Bft) S-SO 162 2 min 0,000 mm 0,0 UV-I 160 W/m 16,4 C 17,9 C 3,2 km/h (1 Bft) 97,87 %
09.07.2017 06:52 18,0 C 25,0 C 91 % 1013,1 hPa 0,0 l/m 0,7 km/h (0 Bft) S-SO 162 2 min 0,000 mm 0,0 UV-I 164 W/m 16,5 C 18,0 C 1,6 km/h (1 Bft) 100,00 %
09.07.2017 06:54 18,2 C 25,0 C 91 % 1013,1 hPa 0,0 l/m 0,2 km/h (0 Bft) S-SO 162 2 min 0,000 mm 0,0 UV-I 169 W/m 16,7 C 18,2 C 1,6 km/h (1 Bft) 93,62 %
09.07.2017 06:56 18,3 C 25,0 C 91 % 1013,0 hPa 0,0 l/m 0,0 km/h (0 Bft) S-SO 162 2 min 0,000 mm 0,0 UV-I 173 W/m 16,8 C 18,3 C 0,0 km/h (0 Bft) 97,92 %
09.07.2017 06:58 18,4 C 25,0 C 90 % 1013,1 hPa 0,0 l/m 0,9 km/h (0 Bft) S-SO 162 2 min 0,000 mm 0,0 UV-I 177 W/m 16,7 C 18,4 C 1,6 km/h (1 Bft) 95,74 %
09.07.2017 07:00 18,6 C 25,0 C 90 % 1013,1 hPa 0,0 l/m 0,4 km/h (0 Bft) S-SO 162 2 min 0,051 mm 0,0 UV-I 183 W/m 16,9 C 18,6 C 1,6 km/h (1 Bft) 93,62 %
09.07.2017 07:02 18,7 C 25,0 C 89 % 1013,1 hPa 0,0 l/m 0,9 km/h (0 Bft) S-SO 162 2 min 0,000 mm 0,0 UV-I 188 W/m 16,8 C 18,7 C 1,6 km/h (1 Bft) 95,74 %
09.07.2017 07:04 18,8 C 25,0 C 89 % 1013,2 hPa 0,0 l/m 0,0 km/h (0 Bft) S-SO 163 2 min 0,000 mm 0,0 UV-I 193 W/m 16,9 C 18,8 C 0,0 km/h (0 Bft) 95,74 %
09.07.2017 07:06 18,9 C 25,0 C 89 % 1013,1 hPa 0,0 l/m 0,6 km/h (0 Bft) S-SO 162 2 min 0,000 mm 0,0 UV-I 198 W/m 17,0 C 18,9 C 1,6 km/h (1 Bft) 93,75 %
09.07.2017 07:08 19,1 C 25,0 C 88 % 1013,2 hPa 0,0 l/m 0,4 km/h (0 Bft) S-SO 162 2 min 0,000 mm 0,0 UV-I 202 W/m 17,1 C 19,1 C 1,6 km/h (1 Bft) 95,74 %
09.07.2017 07:10 19,3 C 25,0 C 88 % 1013,2 hPa 0,0 l/m 0,0 km/h (0 Bft) S-SO 162 2 min 0,000 mm 0,0 UV-I 208 W/m 17,3 C 19,3 C 0,0 km/h (0 Bft) 95,74 %
09.07.2017 07:12 19,4 C 25,0 C 87 % 1013,1 hPa 0,0 l/m 0,0 km/h (0 Bft) S-SO 162 2 min 0,000 mm 0,1 UV-I 214 W/m 17,2 C 19,4 C 0,0 km/h (0 Bft) 95,74 %
09.07.2017 07:14 19,5 C 25,0 C 87 % 1013,1 hPa 0,0 l/m 0,0 km/h (0 Bft) S-SO 162 2 min 0,000 mm 0,5 UV-I 220 W/m 17,3 C 19,5 C 0,0 km/h (0 Bft) 97,87 %
09.07.2017 07:16 19,7 C 25,0 C 86 % 1013,2 hPa 0,0 l/m 0,2 km/h (0 Bft) S-SO 162 2 min 0,000 mm 0,5 UV-I 227 W/m 17,3 C 19,7 C 1,6 km/h (1 Bft) 95,74 %
09.07.2017 07:18 19,8 C 25,0 C 85 % 1013,1 hPa 0,0 l/m 0,0 km/h (0 Bft) S-SO 162 2 min 0,000 mm 0,5 UV-I 233 W/m 17,2 C 19,8 C 0,0 km/h (0 Bft) 97,87 %
09.07.2017 07:20 19,9 C 25,0 C 85 % 1013,1 hPa 0,0 l/m 0,1 km/h (0 Bft) S-SO 162 2 min 0,000 mm 0,5 UV-I 238 W/m 17,3 C 19,9 C 1,6 km/h (1 Bft) 97,87 %
09.07.2017 07:22 19,9 C 25,0 C 84 % 1013,0 hPa 0,0 l/m 0,2 km/h (0 Bft) S-SO 162 2 min 0,000 mm 0,5 UV-I 243 W/m 17,1 C 19,9 C 1,6 km/h (1 Bft) 95,74 %
09.07.2017 07:24 20,1 C 25,0 C 82 % 1013,1 hPa 0,0 l/m 0,2 km/h (0 Bft) S-SO 162 2 min 0,000 mm 0,6 UV-I 250 W/m 16,9 C 20,1 C 1,6 km/h (1 Bft) 93,62 %
09.07.2017 07:26 20,2 C 25,0 C 81 % 1013,1 hPa 0,0 l/m 0,0 km/h (0 Bft) S-SO 162 2 min 0,000 mm 0,6 UV-I 256 W/m 16,8 C 20,2 C 0,0 km/h (0 Bft) 95,74 %
09.07.2017 07:28 20,3 C 25,0 C 81 % 1013,1 hPa 0,0 l/m 0,0 km/h (0 Bft) S-SO 162 2 min 0,000 mm 0,6 UV-I 263 W/m 16,9 C 20,3 C 0,0 km/h (0 Bft) 95,74 %
09.07.2017 07:30 20,5 C 25,0 C 80 % 1013,1 hPa 0,0 l/m 0,1 km/h (0 Bft) S-SO 162 2 min 0,000 mm 0,6 UV-I 269 W/m 16,9 C 20,5 C 1,6 km/h (1 Bft) 95,74 %
09.07.2017 07:32 20,6 C 25,0 C 80 % 1013,1 hPa 0,0 l/m 0,1 km/h (0 Bft) S-SO 162 2 min 0,000 mm 0,7 UV-I 275 W/m 17,0 C 20,6 C 1,6 km/h (1 Bft) 95,74 %
09.07.2017 07:34 20,7 C 25,0 C 79 % 1013,1 hPa 0,0 l/m 0,0 km/h (0 Bft) S-SO 162 2 min 0,000 mm 0,7 UV-I 280 W/m 16,9 C 20,7 C 0,0 km/h (0 Bft) 100,00 %
09.07.2017 07:36 20,7 C 25,0 C 80 % 1013,2 hPa 0,0 l/m 0,5 km/h (0 Bft) S-SO 163 2 min 0,000 mm 0,7 UV-I 285 W/m 17,1 C 20,7 C 1,6 km/h (1 Bft) 100,00 %
09.07.2017 07:38 20,7 C 25,0 C 79 % 1013,2 hPa 0,0 l/m 0,7 km/h (0 Bft) S-SO 163 2 min 0,000 mm 0,7 UV-I 291 W/m 16,9 C 20,7 C 3,2 km/h (1 Bft) 95,83 %
09.07.2017 07:40 20,8 C 25,0 C 80 % 1013,2 hPa 0,0 l/m 0,0 km/h (0 Bft) S-SO 163 2 min 0,000 mm 0,8 UV-I 297 W/m 17,2 C 20,8 C 1,6 km/h (1 Bft) 93,62 %
09.07.2017 07:42 20,8 C 25,0 C 80 % 1013,2 hPa 0,0 l/m 0,0 km/h (0 Bft) S-SO 163 2 min 0,000 mm 0,8 UV-I 301 W/m 17,2 C 20,8 C 0,0 km/h (0 Bft) 95,74 %
09.07.2017 07:44 20,9 C 25,0 C 79 % 1013,2 hPa 0,0 l/m 0,0 km/h (0 Bft) S-SO 163 2 min 0,000 mm 0,8 UV-I 310 W/m 17,1 C 20,9 C 0,0 km/h (0 Bft) 100,00 %
09.07.2017 07:46 21,1 C 25,0 C 79 % 1013,2 hPa 0,0 l/m 0,0 km/h (0 Bft) S-SO 163 2 min 0,000 mm 0,9 UV-I 316 W/m 17,3 C 21,1 C 0,0 km/h (0 Bft) 97,87 %
09.07.2017 07:48 21,2 C 25,0 C 78 % 1013,2 hPa 0,0 l/m 0,0 km/h (0 Bft) S-SO 163 2 min 0,000 mm 0,9 UV-I 323 W/m 17,2 C 21,2 C 0,0 km/h (0 Bft) 95,74 %
09.07.2017 07:50 21,2 C 25,0 C 79 % 1013,2 hPa 0,0 l/m 0,0 km/h (0 Bft) S-SO 163 2 min 0,000 mm 0,9 UV-I 329 W/m 17,4 C 21,2 C 0,0 km/h (0 Bft) 97,87 %
09.07.2017 07:52 21,2 C 25,0 C 79 % 1013,2 hPa 0,0 l/m 0,0 km/h (0 Bft) S-SO 163 2 min 0,000 mm 0,9 UV-I 336 W/m 17,4 C 21,2 C 0,0 km/h (0 Bft) 100,00 %
09.07.2017 07:54 21,3 C 25,0 C 78 % 1013,3 hPa 0,0 l/m 0,0 km/h (0 Bft) S-SO 163 2 min 0,000 mm 1,0 UV-I 339 W/m 17,3 C 21,3 C 0,0 km/h (0 Bft) 100,00 %
09.07.2017 07:56 21,4 C 25,0 C 79 % 1013,2 hPa 0,0 l/m 0,1 km/h (0 Bft) S-SO 163 2 min 0,000 mm 1,0 UV-I 348 W/m 17,6 C 21,4 C 1,6 km/h (1 Bft) 97,87 %
09.07.2017 07:58 21,7 C 25,0 C 77 % 1013,2 hPa 0,0 l/m 0,0 km/h (0 Bft) S-SO 163 2 min 0,000 mm 1,0 UV-I 354 W/m 17,5 C 21,7 C 0,0 km/h (0 Bft) 97,87 %
09.07.2017 08:00 21,8 C 25,0 C 77 % 1013,3 hPa 0,0 l/m 0,3 km/h (0 Bft) S-SO 163 2 min 0,153 mm 1,1 UV-I 359 W/m 17,6 C 21,8 C 3,2 km/h (1 Bft) 95,74 %
09.07.2017 08:02 21,9 C 25,0 C 76 % 1013,3 hPa 0,0 l/m 0,9 km/h (0 Bft) S-SO 163 2 min 0,000 mm 1,1 UV-I 363 W/m 17,5 C 21,9 C 1,6 km/h (1 Bft) 94,74 %
09.07.2017 08:04 22,0 C 25,0 C 76 % 1013,3 hPa 0,0 l/m 0,6 km/h (0 Bft) S-SO 163 2 min 0,000 mm 1,1 UV-I 368 W/m 17,6 C 22,0 C 1,6 km/h (1 Bft) 97,87 %
09.07.2017 08:06 22,1 C 25,0 C 76 % 1013,3 hPa 0,0 l/m 0,6 km/h (0 Bft) S-SO 162 2 min 0,000 mm 1,2 UV-I 373 W/m 17,7 C 22,1 C 3,2 km/h (1 Bft) 100,00 %
09.07.2017 08:08 22,2 C 25,0 C 76 % 1013,2 hPa 0,0 l/m 1,7 km/h (1 Bft) S-SO 162 2 min 0,000 mm 1,2 UV-I 378 W/m 17,8 C 22,2 C 6,4 km/h (2 Bft) 97,87 %
09.07.2017 08:10 22,2 C 25,0 C 75 % 1013,2 hPa 0,0 l/m 1,9 km/h (1 Bft) S-SO 162 2 min 0,000 mm 1,2 UV-I 384 W/m 17,5 C 22,2 C 3,2 km/h (1 Bft) 100,00 %
09.07.2017 08:12 22,2 C 25,0 C 75 % 1013,2 hPa 0,0 l/m 1,2 km/h (1 Bft) S-SO 162 2 min 0,000 mm 1,3 UV-I 389 W/m 17,5 C 22,2 C 3,2 km/h (1 Bft) 97,87 %
09.07.2017 08:14 22,2 C 25,0 C 75 % 1013,2 hPa 0,0 l/m 0,1 km/h (0 Bft) S-SO 162 2 min 0,000 mm 1,3 UV-I 393 W/m 17,5 C 22,2 C 1,6 km/h (1 Bft) 94,00 %
09.07.2017 08:16 22,3 C 25,0 C 75 % 1013,2 hPa 0,0 l/m 0,7 km/h (0 Bft) S-SO 162 2 min 0,000 mm 1,3 UV-I 399 W/m 17,6 C 22,3 C 3,2 km/h (1 Bft) 100,00 %
09.07.2017 08:18 22,5 C 25,0 C 74 % 1013,2 hPa 0,0 l/m 1,6 km/h (1 Bft) O-NO 71 2 min 0,000 mm 1,3 UV-I 404 W/m 17,6 C 22,5 C 4,8 km/h (1 Bft) 97,87 %
09.07.2017 08:20 22,7 C 25,0 C 75 % 1013,2 hPa 0,0 l/m 0,9 km/h (0 Bft) O-NO 71 2 min 0,000 mm 1,4 UV-I 409 W/m 18,0 C 22,7 C 3,2 km/h (1 Bft) 100,00 %
09.07.2017 08:22 22,8 C 25,0 C 74 % 1013,3 hPa 0,0 l/m 2,5 km/h (1 Bft) N-NO 32 2 min 0,000 mm 1,4 UV-I 415 W/m 17,9 C 22,8 C 4,8 km/h (1 Bft) 97,87 %
09.07.2017 08:24 22,9 C 25,0 C 74 % 1013,3 hPa 0,0 l/m 1,8 km/h (1 Bft) N-NO 32 2 min 0,000 mm 1,4 UV-I 419 W/m 18,0 C 22,9 C 3,2 km/h (1 Bft) 95,74 %
09.07.2017 08:26 22,8 C 25,0 C 73 % 1013,3 hPa 0,0 l/m 1,7 km/h (1 Bft) NO 42 2 min 0,000 mm 1,5 UV-I 425 W/m 17,7 C 22,8 C 4,8 km/h (1 Bft) 100,00 %
09.07.2017 08:28 22,9 C 25,0 C 73 % 1013,3 hPa 0,0 l/m 2,4 km/h (1 Bft) NO 42 2 min 0,000 mm 1,5 UV-I 431 W/m 17,8 C 22,9 C 4,8 km/h (1 Bft) 95,74 %
09.07.2017 08:30 23,0 C 25,0 C 73 % 1013,4 hPa 0,0 l/m 0,4 km/h (0 Bft) NO 42 2 min 0,000 mm 1,5 UV-I 435 W/m 17,9 C 23,0 C 1,6 km/h (1 Bft) 97,92 %
09.07.2017 08:32 23,2 C 25,0 C 73 % 1013,4 hPa 0,0 l/m 3,4 km/h (1 Bft) NO 41 2 min 0,000 mm 1,6 UV-I 441 W/m 18,1 C 23,2 C 6,4 km/h (2 Bft) 97,87 %
09.07.2017 08:34 23,2 C 25,0 C 72 % 1013,4 hPa 0,0 l/m 3,4 km/h (1 Bft) NO 44 2 min 0,000 mm 1,6 UV-I 448 W/m 17,9 C 23,2 C 6,4 km/h (2 Bft) 100,00 %
09.07.2017 08:36 23,2 C 25,0 C 73 % 1013,4 hPa 0,0 l/m 4,5 km/h (1 Bft) NO 50 2 min 0,000 mm 1,7 UV-I 453 W/m 18,1 C 23,2 C 6,4 km/h (2 Bft) 93,62 %
09.07.2017 08:38 23,3 C 25,0 C 70 % 1013,4 hPa 0,0 l/m 3,4 km/h (1 Bft) NO 51 2 min 0,000 mm 1,7 UV-I 458 W/m 17,5 C 23,3 C 4,8 km/h (1 Bft) 97,87 %
09.07.2017 08:40 23,4 C 25,0 C 71 % 1013,3 hPa 0,0 l/m 2,7 km/h (1 Bft) NO 51 2 min 0,000 mm 1,7 UV-I 463 W/m 17,8 C 23,4 C 4,8 km/h (1 Bft) 97,92 %
09.07.2017 08:42 23,6 C 25,0 C 69 % 1013,4 hPa 0,0 l/m 1,9 km/h (1 Bft) NO 51 2 min 0,000 mm 1,8 UV-I 469 W/m 17,6 C 23,6 C 4,8 km/h (1 Bft) 100,00 %
09.07.2017 08:44 23,6 C 25,0 C 69 % 1013,4 hPa 0,0 l/m 2,3 km/h (1 Bft) NO 51 2 min 0,000 mm 1,8 UV-I 474 W/m 17,6 C 23,6 C 4,8 km/h (1 Bft) 95,74 %
09.07.2017 08:46 23,6 C 25,0 C 69 % 1013,4 hPa 0,0 l/m 2,3 km/h (1 Bft) NO 51 2 min 0,000 mm 1,9 UV-I 478 W/m 17,6 C 23,6 C 4,8 km/h (1 Bft) 97,87 %
09.07.2017 08:48 23,7 C 25,0 C 67 % 1013,5 hPa 0,0 l/m 0,8 km/h (0 Bft) NO 50 2 min 0,000 mm 1,9 UV-I 482 W/m 17,2 C 23,7 C 3,2 km/h (1 Bft) 97,87 %
09.07.2017 08:50 23,7 C 25,0 C 68 % 1013,4 hPa 0,0 l/m 0,4 km/h (0 Bft) NO 50 2 min 0,000 mm 2,0 UV-I 488 W/m 17,4 C 23,7 C 1,6 km/h (1 Bft) 95,74 %
09.07.2017 08:52 23,8 C 25,0 C 66 % 1013,3 hPa 0,0 l/m 1,8 km/h (1 Bft) N-NO 17 2 min 0,000 mm 2,0 UV-I 495 W/m 17,1 C 23,8 C 3,2 km/h (1 Bft) 98,00 %
09.07.2017 08:54 23,8 C 25,0 C 66 % 1013,3 hPa 0,0 l/m 2,0 km/h (1 Bft) NW 323 2 min 0,000 mm 2,0 UV-I 500 W/m 17,1 C 23,8 C 4,8 km/h (1 Bft) 95,74 %
09.07.2017 08:56 23,8 C 25,0 C 67 % 1013,2 hPa 0,0 l/m 0,6 km/h (0 Bft) N-NW 330 2 min 0,000 mm 2,1 UV-I 505 W/m 17,3 C 23,8 C 3,2 km/h (1 Bft) 93,62 %
09.07.2017 08:58 24,0 C 25,0 C 70 % 1013,2 hPa 0,0 l/m 3,5 km/h (1 Bft) NO 46 2 min 0,000 mm 2,1 UV-I 510 W/m 18,2 C 24,0 C 6,4 km/h (2 Bft) 97,92 %
09.07.2017 09:00 24,2 C 25,0 C 69 % 1013,2 hPa 0,0 l/m 3,0 km/h (1 Bft) NO 46 2 min 0,279 mm 2,2 UV-I 518 W/m 18,1 C 24,2 C 8,0 km/h (2 Bft) 97,87 %
09.07.2017 09:02 24,2 C 25,0 C 68 % 1013,3 hPa 0,0 l/m 2,2 km/h (1 Bft) NO 42 2 min 0,000 mm 2,2 UV-I 525 W/m 17,9 C 24,2 C 6,4 km/h (2 Bft) 97,87 %
09.07.2017 09:04 24,3 C 25,0 C 67 % 1013,2 hPa 0,0 l/m 2,1 km/h (1 Bft) NO 36 2 min 0,000 mm 2,3 UV-I 532 W/m 17,8 C 24,3 C 6,4 km/h (2 Bft) 97,87 %
09.07.2017 09:06 24,2 C 25,0 C 65 % 1013,3 hPa 0,0 l/m 1,6 km/h (1 Bft) NO 36 2 min 0,000 mm 2,3 UV-I 537 W/m 17,2 C 24,2 C 3,2 km/h (1 Bft) 92,11 %
09.07.2017 09:08 24,2 C 25,0 C 66 % 1013,3 hPa 0,0 l/m 2,3 km/h (1 Bft) NO 36 2 min 0,000 mm 2,3 UV-I 542 W/m 17,4 C 24,2 C 4,8 km/h (1 Bft) 94,00 %
09.07.2017 09:10 24,3 C 25,0 C 66 % 1013,3 hPa 0,0 l/m 2,2 km/h (1 Bft) NO 35 2 min 0,000 mm 2,4 UV-I 547 W/m 17,5 C 24,3 C 4,8 km/h (1 Bft) 94,00 %
09.07.2017 09:12 24,6 C 25,0 C 66 % 1013,4 hPa 0,0 l/m 0,6 km/h (0 Bft) NO 34 2 min 0,000 mm 2,4 UV-I 549 W/m 17,8 C 24,6 C 1,6 km/h (1 Bft) 95,74 %
09.07.2017 09:14 24,6 C 25,0 C 65 % 1013,4 hPa 0,0 l/m 1,0 km/h (0 Bft) NO 34 2 min 0,000 mm 2,5 UV-I 558 W/m 17,6 C 24,6 C 3,2 km/h (1 Bft) 95,74 %
09.07.2017 09:16 24,7 C 25,0 C 63 % 1013,4 hPa 0,0 l/m 3,3 km/h (1 Bft) NO 34 2 min 0,000 mm 2,5 UV-I 564 W/m 17,2 C 24,7 C 6,4 km/h (2 Bft) 94,00 %
09.07.2017 09:18 24,8 C 25,0 C 63 % 1013,5 hPa 0,0 l/m 3,0 km/h (1 Bft) N-NO 33 2 min 0,000 mm 2,5 UV-I 532 W/m 17,3 C 24,8 C 6,4 km/h (2 Bft) 93,62 %
09.07.2017 09:20 24,9 C 25,0 C 64 % 1013,4 hPa 0,0 l/m 3,8 km/h (1 Bft) N-NO 33 2 min 0,000 mm 2,6 UV-I 545 W/m 17,6 C 24,9 C 4,8 km/h (1 Bft) 93,62 %
09.07.2017 09:22 25,0 C 25,0 C 65 % 1013,4 hPa 0,0 l/m 3,6 km/h (1 Bft) NO 34 2 min 0,000 mm 2,6 UV-I 567 W/m 17,9 C 25,0 C 6,4 km/h (2 Bft) 93,62 %
09.07.2017 09:24 24,9 C 25,0 C 62 % 1013,4 hPa 0,0 l/m 0,9 km/h (0 Bft) NO 34 2 min 0,000 mm 2,7 UV-I 573 W/m 17,1 C 24,9 C 3,2 km/h (1 Bft) 97,14 %
09.07.2017 09:26 24,9 C 25,0 C 65 % 1013,5 hPa 0,0 l/m 4,2 km/h (1 Bft) NO 38 2 min 0,000 mm 2,8 UV-I 595 W/m 17,9 C 24,9 C 8,0 km/h (2 Bft) 98,00 %
09.07.2017 09:28 25,2 C 25,0 C 61 % 1013,5 hPa 0,0 l/m 0,9 km/h (0 Bft) N-NO 29 2 min 0,000 mm 2,9 UV-I 617 W/m 17,1 C 25,2 C 8,0 km/h (2 Bft) 95,74 %
09.07.2017 09:30 25,2 C 25,0 C 59 % 1013,5 hPa 0,0 l/m 2,9 km/h (1 Bft) N 10 2 min 0,000 mm 3,0 UV-I 643 W/m 16,6 C 25,2 C 8,0 km/h (2 Bft) 95,74 %
09.07.2017 09:32 25,1 C 25,0 C 60 % 1013,5 hPa 0,0 l/m 2,1 km/h (1 Bft) N-NW 346 2 min 0,000 mm 3,1 UV-I 687 W/m 16,8 C 25,1 C 3,2 km/h (1 Bft) 100,00 %
09.07.2017 09:34 25,1 C 25,0 C 60 % 1013,4 hPa 0,0 l/m 2,0 km/h (1 Bft) N-NW 338 2 min 0,000 mm 3,2 UV-I 726 W/m 16,8 C 25,1 C 4,8 km/h (1 Bft) 97,96 %
09.07.2017 09:36 24,9 C 25,0 C 61 % 1013,4 hPa 0,0 l/m 2,6 km/h (1 Bft) N-NO 22 2 min 0,000 mm 3,3 UV-I 777 W/m 16,8 C 24,9 C 8,0 km/h (2 Bft) 97,92 %
09.07.2017 09:38 25,3 C 25,0 C 61 % 1013,4 hPa 0,0 l/m 1,3 km/h (1 Bft) N 350 2 min 0,000 mm 2,9 UV-I 717 W/m 17,2 C 25,3 C 4,8 km/h (1 Bft) 95,74 %
09.07.2017 09:40 25,3 C 25,0 C 60 % 1013,4 hPa 0,0 l/m 0,8 km/h (0 Bft) N 351 2 min 0,000 mm 2,6 UV-I 437 W/m 17,0 C 25,3 C 1,6 km/h (1 Bft) 100,00 %
09.07.2017 09:42 25,3 C 25,0 C 59 % 1013,4 hPa 0,0 l/m 0,6 km/h (0 Bft) N 351 2 min 0,000 mm 2,8 UV-I 498 W/m 16,7 C 25,3 C 1,6 km/h (1 Bft) 97,87 %
09.07.2017 09:44 25,3 C 25,0 C 60 % 1013,4 hPa 0,0 l/m 0,3 km/h (0 Bft) N 351 2 min 0,000 mm 3,0 UV-I 513 W/m 17,0 C 25,3 C 1,6 km/h (1 Bft) 96,00 %
09.07.2017 09:46 25,4 C 25,0 C 59 % 1013,4 hPa 0,0 l/m 0,7 km/h (0 Bft) N 355 2 min 0,000 mm 2,6 UV-I 408 W/m 16,8 C 25,4 C 3,2 km/h (1 Bft) 95,74 %
09.07.2017 09:48 25,3 C 25,0 C 59 % 1013,5 hPa 0,0 l/m 0,5 km/h (0 Bft) N 355 2 min 0,000 mm 2,6 UV-I 381 W/m 16,7 C 25,3 C 1,6 km/h (1 Bft) 95,74 %
09.07.2017 09:50 25,3 C 25,0 C 59 % 1013,5 hPa 0,0 l/m 2,7 km/h (1 Bft) NW 325 2 min 0,000 mm 2,9 UV-I 411 W/m 16,7 C 25,3 C 4,8 km/h (1 Bft) 97,14 %
09.07.2017 09:52 25,3 C 25,0 C 61 % 1013,4 hPa 0,0 l/m 3,9 km/h (1 Bft) S-SW 206 2 min 0,000 mm 3,4 UV-I 493 W/m 17,2 C 25,3 C 8,0 km/h (2 Bft) 97,87 %
09.07.2017 09:54 25,6 C 25,0 C 60 % 1013,4 hPa 0,0 l/m 2,1 km/h (1 Bft) S-SW 211 2 min 0,000 mm 3,2 UV-I 536 W/m 17,2 C 25,6 C 4,8 km/h (1 Bft) 97,87 %
09.07.2017 09:56 25,5 C 25,0 C 58 % 1013,5 hPa 0,0 l/m 3,8 km/h (1 Bft) SW 217 2 min 0,000 mm 3,7 UV-I 664 W/m 16,6 C 25,5 C 6,4 km/h (2 Bft) 98,00 %
09.07.2017 09:58 25,4 C 25,0 C 58 % 1013,5 hPa 0,0 l/m 5,0 km/h (1 Bft) SW 221 2 min 0,000 mm 3,7 UV-I 744 W/m 16,5 C 25,4 C 6,4 km/h (2 Bft) 97,87 %
09.07.2017 10:00 25,5 C 25,0 C 59 % 1013,5 hPa 0,0 l/m 1,6 km/h (1 Bft) SW 221 2 min 0,000 mm 3,7 UV-I 733 W/m 16,9 C 25,5 C 4,8 km/h (1 Bft) 94,00 %
09.07.2017 10:02 25,7 C 25,0 C 60 % 1013,5 hPa 0,0 l/m 1,6 km/h (1 Bft) SW 214 2 min 0,381 mm 3,8 UV-I 736 W/m 17,3 C 25,7 C 6,4 km/h (2 Bft) 92,68 %
09.07.2017 10:04 25,8 C 25,0 C 58 % 1013,5 hPa 0,0 l/m 0,8 km/h (0 Bft) S 184 2 min 0,000 mm 3,9 UV-I 747 W/m 16,9 C 25,8 C 3,2 km/h (1 Bft) 93,62 %
09.07.2017 10:06 25,9 C 25,0 C 59 % 1013,6 hPa 0,0 l/m 0,4 km/h (0 Bft) S 184 2 min 0,000 mm 3,8 UV-I 737 W/m 17,3 C 25,9 C 1,6 km/h (1 Bft) 93,62 %
09.07.2017 10:08 26,2 C 25,0 C 60 % 1013,6 hPa 0,0 l/m 0,2 km/h (0 Bft) S 184 2 min 0,000 mm 3,7 UV-I 704 W/m 17,8 C 26,2 C 1,6 km/h (1 Bft) 89,36 %
09.07.2017 10:10 26,3 C 25,0 C 57 % 1013,6 hPa 0,0 l/m 1,5 km/h (1 Bft) S 180 2 min 0,000 mm 3,4 UV-I 700 W/m 17,1 C 26,3 C 4,8 km/h (1 Bft) 88,00 %
09.07.2017 10:12 26,3 C 25,0 C 57 % 1013,5 hPa 0,0 l/m 2,3 km/h (1 Bft) S 177 2 min 0,000 mm 3,7 UV-I 609 W/m 17,1 C 26,3 C 3,2 km/h (1 Bft) 94,00 %
09.07.2017 10:14 26,3 C 25,0 C 57 % 1013,5 hPa 0,0 l/m 0,6 km/h (0 Bft) S 177 2 min 0,000 mm 3,8 UV-I 703 W/m 17,1 C 26,3 C 3,2 km/h (1 Bft) 98,00 %
09.07.2017 10:16 26,4 C 25,0 C 59 % 1013,6 hPa 0,0 l/m 0,6 km/h (0 Bft) S 177 2 min 0,000 mm 4,3 UV-I 778 W/m 17,7 C 26,4 C 3,2 km/h (1 Bft) 95,74 %
09.07.2017 10:18 26,9 C 25,0 C 58 % 1013,6 hPa 0,0 l/m 1,9 km/h (1 Bft) S 179 2 min 0,000 mm 4,3 UV-I 882 W/m 17,9 C 26,9 C 4,8 km/h (1 Bft) 94,44 %
09.07.2017 10:20 26,9 C 25,0 C 55 % 1013,6 hPa 0,0 l/m 3,6 km/h (1 Bft) W-SW 237 2 min 0,000 mm 3,3 UV-I 759 W/m 17,1 C 26,9 C 4,8 km/h (1 Bft) 97,87 %
09.07.2017 10:22 26,7 C 25,0 C 57 % 1013,6 hPa 0,0 l/m 2,5 km/h (1 Bft) S-SW 202 2 min 0,000 mm 3,2 UV-I 469 W/m 17,5 C 26,7 C 11,3 km/h (2 Bft) 95,74 %
09.07.2017 10:24 26,7 C 25,0 C 57 % 1013,6 hPa 0,0 l/m 6,0 km/h (2 Bft) S-SW 212 2 min 0,000 mm 2,9 UV-I 495 W/m 17,5 C 26,7 C 9,7 km/h (2 Bft) 93,62 %
09.07.2017 10:26 26,7 C 25,0 C 56 % 1013,7 hPa 0,0 l/m 6,6 km/h (2 Bft) S-SW 211 0 min 0,000 mm 2,8 UV-I 389 W/m 17,2 C 26,7 C 9,7 km/h (2 Bft) 93,62 %
09.07.2017 10:28 26,6 C 25,0 C 56 % 1013,7 hPa 0,0 l/m 7,5 km/h (2 Bft) W-SW 242 0 min 0,000 mm 2,9 UV-I 400 W/m 17,1 C 26,4 C 12,9 km/h (3 Bft) 97,87 %
09.07.2017 10:30 26,4 C 25,0 C 57 % 1013,7 hPa 0,0 l/m 5,9 km/h (2 Bft) W 259 2 min 0,000 mm 3,1 UV-I 425 W/m 17,2 C 26,4 C 11,3 km/h (2 Bft) 98,00 %
09.07.2017 10:32 26,2 C 25,0 C 57 % 1013,7 hPa 0,0 l/m 1,9 km/h (1 Bft) W 261 2 min 0,000 mm 3,0 UV-I 443 W/m 17,0 C 26,2 C 4,8 km/h (1 Bft) 94,00 %
09.07.2017 10:34 26,1 C 25,0 C 57 % 1013,7 hPa 0,0 l/m 2,7 km/h (1 Bft) SW 235 2 min 0,000 mm 2,9 UV-I 429 W/m 16,9 C 26,1 C 4,8 km/h (1 Bft) 95,74 %
09.07.2017 10:36 26,2 C 25,0 C 57 % 1013,7 hPa 0,0 l/m 6,2 km/h (2 Bft) SW 225 0 min 0,000 mm 2,7 UV-I 392 W/m 17,0 C 26,2 C 12,9 km/h (3 Bft) 94,00 %
09.07.2017 10:38 26,2 C 25,0 C 57 % 1013,7 hPa 0,0 l/m 7,4 km/h (2 Bft) W-SW 242 0 min 0,000 mm 2,6 UV-I 348 W/m 17,0 C 26,0 C 11,3 km/h (2 Bft) 92,11 %
09.07.2017 10:40 26,2 C 25,0 C 57 % 1013,9 hPa 0,0 l/m 5,4 km/h (1 Bft) W-SW 244 0 min 0,000 mm 2,7 UV-I 347 W/m 17,0 C 26,2 C 9,7 km/h (2 Bft) 97,87 %
09.07.2017 10:42 26,2 C 25,0 C 56 % 1013,9 hPa 0,0 l/m 3,9 km/h (1 Bft) SW 226 0 min 0,000 mm 2,8 UV-I 367 W/m 16,7 C 26,2 C 4,8 km/h (1 Bft) 95,74 %
09.07.2017 10:44 26,2 C 25,0 C 56 % 1013,7 hPa 0,0 l/m 8,9 km/h (2 Bft) W-SW 250 0 min 0,000 mm 3,0 UV-I 374 W/m 16,7 C 25,7 C 12,9 km/h (3 Bft) 94,00 %
09.07.2017 10:46 26,1 C 25,0 C 57 % 1013,8 hPa 0,0 l/m 6,0 km/h (2 Bft) W-SW 242 0 min 0,000 mm 2,8 UV-I 298 W/m 16,9 C 26,1 C 12,9 km/h (3 Bft) 95,74 %
09.07.2017 10:48 26,0 C 25,0 C 59 % 1013,9 hPa 0,0 l/m 8,0 km/h (2 Bft) SW 224 0 min 0,000 mm 3,1 UV-I 321 W/m 17,4 C 25,7 C 12,9 km/h (3 Bft) 89,36 %
09.07.2017 10:50 26,1 C 25,0 C 58 % 1013,9 hPa 0,0 l/m 8,4 km/h (2 Bft) SW 236 0 min 0,000 mm 3,8 UV-I 339 W/m 17,2 C 25,7 C 16,1 km/h (3 Bft) 93,62 %
09.07.2017 10:52 26,2 C 25,0 C 58 % 1013,8 hPa 0,0 l/m 9,4 km/h (2 Bft) W-SW 252 2 min 0,000 mm 3,9 UV-I 698 W/m 17,3 C 25,6 C 14,5 km/h (3 Bft) 93,62 %
09.07.2017 10:54 26,3 C 25,6 C 56 % 1013,8 hPa 0,0 l/m 7,2 km/h (2 Bft) S-SW 210 2 min 0,000 mm 4,2 UV-I 722 W/m 16,8 C 26,1 C 11,3 km/h (2 Bft) 91,67 %
09.07.2017 10:56 26,3 C 25,0 C 56 % 1013,7 hPa 0,0 l/m 6,3 km/h (2 Bft) W 273 2 min 0,000 mm 4,7 UV-I 722 W/m 16,8 C 26,3 C 11,3 km/h (2 Bft) 95,74 %
09.07.2017 10:58 26,4 C 25,6 C 55 % 1013,9 hPa 0,0 l/m 7,3 km/h (2 Bft) W 265 2 min 0,000 mm 5,1 UV-I 802 W/m 16,6 C 26,2 C 12,9 km/h (3 Bft) 94,00 %
09.07.2017 11:00 26,6 C 25,6 C 54 % 1013,9 hPa 0,0 l/m 8,6 km/h (2 Bft) W-SW 256 2 min 0,381 mm 5,4 UV-I 848 W/m 16,5 C 26,2 C 14,5 km/h (3 Bft) 95,74 %
09.07.2017 11:02 26,8 C 25,6 C 53 % 1013,9 hPa 0,0 l/m 8,4 km/h (2 Bft) W-SW 244 2 min 0,000 mm 5,2 UV-I 908 W/m 16,4 C 26,4 C 12,9 km/h (3 Bft) 94,74 %
09.07.2017 11:04 26,9 C 25,6 C 53 % 1013,8 hPa 0,0 l/m 6,6 km/h (2 Bft) W-SW 240 2 min 0,000 mm 5,5 UV-I 913 W/m 16,5 C 26,9 C 12,9 km/h (3 Bft) 93,62 %
09.07.2017 11:06 26,9 C 25,6 C 52 % 1013,9 hPa 0,0 l/m 8,5 km/h (2 Bft) W-NW 288 2 min 0,000 mm 5,7 UV-I 974 W/m 16,2 C 26,5 C 14,5 km/h (3 Bft) 94,00 %
09.07.2017 11:08 26,8 C 25,6 C 53 % 1013,8 hPa 0,0 l/m 10,4 km/h (2 Bft) SW 236 2 min 0,000 mm 5,7 UV-I 958 W/m 16,4 C 26,1 C 14,5 km/h (3 Bft) 90,00 %
09.07.2017 11:10 27,1 C 25,6 C 54 % 1013,8 hPa 0,0 l/m 10,3 km/h (2 Bft) W-NW 287 2 min 0,000 mm 5,7 UV-I 849 W/m 17,0 C 26,4 C 16,1 km/h (3 Bft) 97,87 %
09.07.2017 11:12 27,2 C 25,6 C 53 % 1013,8 hPa 0,0 l/m 4,5 km/h (1 Bft) S 183 2 min 0,000 mm 5,5 UV-I 892 W/m 16,8 C 27,2 C 12,9 km/h (3 Bft) 97,87 %
09.07.2017 11:14 27,4 C 25,6 C 50 % 1013,8 hPa 0,0 l/m 6,2 km/h (2 Bft) SW 227 2 min 0,000 mm 5,7 UV-I 933 W/m 16,0 C 27,4 C 14,5 km/h (3 Bft) 97,37 %
09.07.2017 11:16 27,4 C 25,6 C 52 % 1013,8 hPa 0,0 l/m 8,2 km/h (2 Bft) W-NW 284 2 min 0,000 mm 5,9 UV-I 944 W/m 16,7 C 27,1 C 14,5 km/h (3 Bft) 97,87 %
09.07.2017 11:18 27,5 C 25,6 C 52 % 1013,8 hPa 0,0 l/m 7,6 km/h (2 Bft) W-SW 252 2 min 0,000 mm 5,4 UV-I 930 W/m 16,7 C 27,3 C 12,9 km/h (3 Bft) 95,74 %
09.07.2017 11:20 27,4 C 25,6 C 52 % 1013,8 hPa 0,0 l/m 8,4 km/h (2 Bft) W-SW 244 2 min 0,000 mm 4,3 UV-I 563 W/m 16,7 C 27,1 C 16,1 km/h (3 Bft) 97,87 %
09.07.2017 11:22 27,4 C 25,6 C 50 % 1013,9 hPa 0,0 l/m 12,7 km/h (3 Bft) SW 228 2 min 0,000 mm 4,1 UV-I 460 W/m 16,0 C 26,5 C 19,3 km/h (3 Bft) 100,00 %
09.07.2017 11:24 27,3 C 25,6 C 50 % 1013,9 hPa 0,0 l/m 8,9 km/h (2 Bft) W-NW 287 2 min 0,000 mm 4,8 UV-I 594 W/m 15,9 C 26,9 C 14,5 km/h (3 Bft) 95,74 %
09.07.2017 11:26 27,3 C 25,6 C 52 % 1013,7 hPa 0,0 l/m 9,1 km/h (2 Bft) W-NW 286 2 min 0,000 mm 5,6 UV-I 934 W/m 16,6 C 26,8 C 12,9 km/h (3 Bft) 95,74 %
09.07.2017 11:28 27,6 C 25,6 C 52 % 1013,7 hPa 0,0 l/m 7,5 km/h (2 Bft) W-SW 247 2 min 0,000 mm 5,9 UV-I 896 W/m 16,8 C 27,4 C 17,7 km/h (3 Bft) 100,00 %
09.07.2017 11:30 27,9 C 25,6 C 49 % 1013,7 hPa 0,0 l/m 12,0 km/h (2 Bft) S-SO 158 2 min 0,000 mm 6,0 UV-I 911 W/m 16,2 C 27,1 C 19,3 km/h (3 Bft) 97,87 %
09.07.2017 11:32 28,1 C 25,6 C 49 % 1013,6 hPa 0,0 l/m 9,0 km/h (2 Bft) W-SW 253 2 min 0,000 mm 5,9 UV-I 901 W/m 16,4 C 27,7 C 20,9 km/h (4 Bft) 89,58 %
09.07.2017 11:34 28,2 C 25,6 C 49 % 1013,7 hPa 0,0 l/m 12,0 km/h (2 Bft) SW 219 2 min 0,000 mm 5,7 UV-I 828 W/m 16,5 C 27,5 C 19,3 km/h (3 Bft) 95,74 %
09.07.2017 11:36 28,3 C 25,6 C 50 % 1013,7 hPa 0,0 l/m 8,9 km/h (2 Bft) SW 222 2 min 0,000 mm 5,7 UV-I 805 W/m 16,9 C 27,9 C 17,7 km/h (3 Bft) 95,74 %
09.07.2017 11:38 28,3 C 25,6 C 48 % 1013,8 hPa 0,0 l/m 17,1 km/h (3 Bft) W 259 2 min 0,000 mm 5,6 UV-I 774 W/m 16,2 C 27,1 C 30,6 km/h (5 Bft) 95,74 %
09.07.2017 11:40 28,2 C 25,6 C 49 % 1013,7 hPa 0,0 l/m 12,7 km/h (3 Bft) W 269 2 min 0,000 mm 5,6 UV-I 815 W/m 16,5 C 27,4 C 24,1 km/h (4 Bft) 97,87 %
09.07.2017 11:42 28,2 C 25,6 C 49 % 1013,7 hPa 0,0 l/m 14,9 km/h (3 Bft) W-SW 242 2 min 0,000 mm 5,8 UV-I 834 W/m 16,5 C 27,2 C 24,1 km/h (4 Bft) 91,49 %
09.07.2017 11:44 28,1 C 25,6 C 49 % 1013,6 hPa 0,0 l/m 10,2 km/h (2 Bft) SW 230 2 min 0,000 mm 5,9 UV-I 844 W/m 16,4 C 27,6 C 17,7 km/h (3 Bft) 97,87 %
09.07.2017 11:46 28,2 C 25,6 C 50 % 1013,7 hPa 0,0 l/m 16,9 km/h (3 Bft) W-SW 252 2 min 0,000 mm 5,9 UV-I 900 W/m 16,8 C 27,0 C 30,6 km/h (5 Bft) 100,00 %
09.07.2017 11:48 28,1 C 25,6 C 51 % 1013,6 hPa 0,0 l/m 10,7 km/h (2 Bft) W-SW 252 2 min 0,000 mm 5,4 UV-I 969 W/m 17,0 C 27,5 C 17,7 km/h (3 Bft) 95,74 %
09.07.2017 11:50 28,1 C 25,6 C 50 % 1013,6 hPa 0,0 l/m 13,7 km/h (3 Bft) W-SW 252 2 min 0,000 mm 4,8 UV-I 631 W/m 16,7 C 27,2 C 22,5 km/h (4 Bft) 100,00 %
09.07.2017 11:52 27,9 C 25,6 C 50 % 1013,5 hPa 0,0 l/m 13,5 km/h (3 Bft) W-SW 238 2 min 0,000 mm 5,3 UV-I 711 W/m 16,5 C 27,0 C 20,9 km/h (4 Bft) 95,74 %
09.07.2017 11:54 28,0 C 25,6 C 51 % 1013,5 hPa 0,0 l/m 10,4 km/h (2 Bft) SW 215 2 min 0,000 mm 5,0 UV-I 683 W/m 16,9 C 27,4 C 22,5 km/h (4 Bft) 94,74 %
09.07.2017 11:56 28,1 C 25,6 C 50 % 1013,6 hPa 0,0 l/m 10,8 km/h (2 Bft) W-NW 300 2 min 0,000 mm 3,9 UV-I 588 W/m 16,7 C 27,5 C 17,7 km/h (3 Bft) 100,00 %
09.07.2017 11:58 27,9 C 25,6 C 51 % 1013,6 hPa 0,0 l/m 4,0 km/h (1 Bft) S 171 0 min 0,000 mm 3,5 UV-I 429 W/m 16,8 C 27,9 C 11,3 km/h (2 Bft) 98,46 %
09.07.2017 12:00 27,9 C 25,6 C 51 % 1013,6 hPa 0,0 l/m 11,6 km/h (2 Bft) S-SW 198 0 min 0,584 mm 3,6 UV-I 470 W/m 16,8 C 27,2 C 20,9 km/h (4 Bft) 97,87 %
09.07.2017 12:02 27,8 C 25,6 C 51 % 1013,7 hPa 0,0 l/m 13,7 km/h (3 Bft) W 259 2 min 0,000 mm 3,9 UV-I 541 W/m 16,7 C 26,8 C 24,1 km/h (4 Bft) 89,36 %
09.07.2017 12:04 27,8 C 25,6 C 51 % 1013,7 hPa 0,0 l/m 10,2 km/h (2 Bft) W 273 2 min 0,000 mm 3,7 UV-I 548 W/m 16,7 C 27,2 C 17,7 km/h (3 Bft) 96,00 %
09.07.2017 12:06 27,8 C 25,6 C 52 % 1013,7 hPa 0,0 l/m 14,2 km/h (3 Bft) W-SW 246 0 min 0,000 mm 3,1 UV-I 410 W/m 17,0 C 26,8 C 25,7 km/h (4 Bft) 97,30 %
09.07.2017 12:08 27,7 C 25,6 C 51 % 1013,7 hPa 0,0 l/m 11,4 km/h (2 Bft) W 267 0 min 0,000 mm 2,7 UV-I 351 W/m 16,6 C 27,0 C 19,3 km/h (3 Bft) 91,84 %
09.07.2017 12:10 27,5 C 25,6 C 51 % 1013,7 hPa 0,0 l/m 10,1 km/h (2 Bft) W-SW 254 0 min 0,000 mm 2,7 UV-I 359 W/m 16,4 C 26,9 C 22,5 km/h (4 Bft) 97,87 %
09.07.2017 12:12 27,4 C 25,6 C 50 % 1013,6 hPa 0,0 l/m 17,5 km/h (3 Bft) SW 234 0 min 0,000 mm 3,3 UV-I 427 W/m 16,0 C 26,0 C 29,0 km/h (5 Bft) 95,74 %
09.07.2017 12:14 27,3 C 25,6 C 50 % 1013,6 hPa 0,0 l/m 13,3 km/h (3 Bft) W-SW 254 2 min 0,000 mm 4,0 UV-I 519 W/m 15,9 C 26,3 C 22,5 km/h (4 Bft) 95,74 %
09.07.2017 12:16 27,3 C 25,6 C 50 % 1013,6 hPa 0,0 l/m 3,2 km/h (1 Bft) W-SW 248 0 min 0,000 mm 3,8 UV-I 473 W/m 15,9 C 27,3 C 6,4 km/h (2 Bft) 96,23 %
09.07.2017 12:18 27,4 C 25,6 C 51 % 1013,6 hPa 0,0 l/m 6,0 km/h (2 Bft) W 279 0 min 0,000 mm 3,5 UV-I 441 W/m 16,3 C 27,4 C 12,9 km/h (3 Bft) 97,87 %
09.07.2017 12:20 27,5 C 25,6 C 52 % 1013,6 hPa 0,0 l/m 8,9 km/h (2 Bft) W-NW 289 0 min 0,000 mm 3,4 UV-I 447 W/m 16,7 C 27,1 C 22,5 km/h (4 Bft) 97,87 %
09.07.2017 12:22 27,4 C 25,6 C 53 % 1013,5 hPa 0,0 l/m 12,1 km/h (2 Bft) SW 236 0 min 0,000 mm 3,5 UV-I 468 W/m 17,0 C 26,5 C 20,9 km/h (4 Bft) 97,87 %
09.07.2017 12:24 27,4 C 25,6 C 53 % 1013,5 hPa 0,0 l/m 12,3 km/h (3 Bft) W-SW 240 2 min 0,000 mm 4,2 UV-I 612 W/m 17,0 C 26,5 C 20,9 km/h (4 Bft) 97,30 %
09.07.2017 12:26 27,4 C 25,6 C 54 % 1013,6 hPa 0,0 l/m 11,3 km/h (2 Bft) W-SW 252 2 min 0,000 mm 4,2 UV-I 644 W/m 17,3 C 26,6 C 22,5 km/h (4 Bft) 94,34 %
09.07.2017 12:28 27,4 C 25,6 C 54 % 1013,5 hPa 0,0 l/m 13,0 km/h (3 Bft) W-SW 238 2 min 0,000 mm 3,7 UV-I 559 W/m 17,3 C 26,4 C 19,3 km/h (3 Bft) 97,56 %
09.07.2017 12:30 27,4 C 25,6 C 55 % 1013,4 hPa 0,0 l/m 13,5 km/h (3 Bft) SW 225 0 min 0,000 mm 3,4 UV-I 448 W/m 17,5 C 26,4 C 22,5 km/h (4 Bft) 97,87 %
09.07.2017 12:32 27,3 C 25,6 C 54 % 1013,5 hPa 0,0 l/m 15,1 km/h (3 Bft) W 280 0 min 0,000 mm 3,4 UV-I 426 W/m 17,2 C 26,1 C 20,9 km/h (4 Bft) 97,87 %
09.07.2017 12:34 27,2 C 25,6 C 55 % 1013,5 hPa 0,0 l/m 13,9 km/h (3 Bft) W-SW 240 0 min 0,000 mm 3,6 UV-I 451 W/m 17,4 C 26,1 C 25,7 km/h (4 Bft) 97,87 %
09.07.2017 12:36 27,1 C 25,6 C 55 % 1013,4 hPa 0,0 l/m 12,8 km/h (3 Bft) W-SW 249 2 min 0,000 mm 4,0 UV-I 519 W/m 17,3 C 26,1 C 24,1 km/h (4 Bft) 97,87 %
09.07.2017 12:38 27,1 C 25,6 C 57 % 1013,4 hPa 0,0 l/m 13,9 km/h (3 Bft) W 261 2 min 0,000 mm 4,5 UV-I 587 W/m 17,8 C 26,0 C 25,7 km/h (4 Bft) 97,87 %
09.07.2017 12:40 27,2 C 25,6 C 56 % 1013,4 hPa 0,0 l/m 13,9 km/h (3 Bft) W 261 2 min 0,000 mm 5,4 UV-I 722 W/m 17,6 C 26,1 C 19,3 km/h (3 Bft) 100,00 %
09.07.2017 12:42 27,4 C 25,6 C 57 % 1013,4 hPa 0,0 l/m 8,7 km/h (2 Bft) W 267 2 min 0,000 mm 6,1 UV-I 800 W/m 18,1 C 27,0 C 12,9 km/h (3 Bft) 95,74 %
09.07.2017 12:44 27,8 C 25,6 C 55 % 1013,3 hPa 0,0 l/m 6,5 km/h (2 Bft) W 259 2 min 0,000 mm 6,6 UV-I 937 W/m 17,9 C 27,8 C 12,9 km/h (3 Bft) 97,87 %
09.07.2017 12:46 28,0 C 25,6 C 55 % 1013,3 hPa 0,0 l/m 14,1 km/h (3 Bft) W 261 2 min 0,000 mm 6,1 UV-I 929 W/m 18,1 C 27,0 C 17,7 km/h (3 Bft) 93,62 %
09.07.2017 12:48 28,1 C 25,6 C 53 % 1013,4 hPa 0,0 l/m 13,9 km/h (3 Bft) W 275 2 min 0,000 mm 5,8 UV-I 883 W/m 17,6 C 27,2 C 20,9 km/h (4 Bft) 93,75 %
09.07.2017 12:50 28,0 C 25,6 C 53 % 1013,3 hPa 0,0 l/m 13,5 km/h (3 Bft) SW 223 2 min 0,000 mm 5,7 UV-I 862 W/m 17,5 C 27,1 C 19,3 km/h (3 Bft) 95,74 %
09.07.2017 12:52 27,9 C 25,6 C 52 % 1013,4 hPa 0,0 l/m 14,5 km/h (3 Bft) W-SW 250 2 min 0,000 mm 6,5 UV-I 862 W/m 17,1 C 26,9 C 20,9 km/h (4 Bft) 94,00 %
09.07.2017 12:54 27,8 C 25,6 C 52 % 1013,3 hPa 0,0 l/m 14,0 km/h (3 Bft) W-SW 252 2 min 0,000 mm 5,9 UV-I 891 W/m 17,0 C 26,8 C 25,7 km/h (4 Bft) 97,87 %
09.07.2017 12:56 27,9 C 25,6 C 52 % 1013,4 hPa 0,0 l/m 12,4 km/h (3 Bft) W-SW 244 2 min 0,000 mm 7,2 UV-I 942 W/m 17,1 C 27,1 C 20,9 km/h (4 Bft) 96,00 %
09.07.2017 12:58 28,1 C 25,6 C 50 % 1013,4 hPa 0,0 l/m 13,2 km/h (3 Bft) W-SW 242 2 min 0,000 mm 7,4 UV-I 1218 W/m 16,7 C 27,2 C 20,9 km/h (4 Bft) 97,87 %
09.07.2017 13:00 28,0 C 25,6 C 50 % 1013,3 hPa 0,0 l/m 10,3 km/h (2 Bft) W-NW 298 2 min 0,483 mm 5,3 UV-I 898 W/m 16,6 C 27,4 C 19,3 km/h (3 Bft) 93,62 %
09.07.2017 13:02 27,8 C 25,6 C 50 % 1013,3 hPa 0,0 l/m 5,6 km/h (1 Bft) S 178 2 min 0,000 mm 4,5 UV-I 494 W/m 16,4 C 27,8 C 12,9 km/h (3 Bft) 93,62 %
09.07.2017 13:04 27,6 C 25,6 C 51 % 1013,3 hPa 0,0 l/m 7,9 km/h (2 Bft) W-SW 240 2 min 0,000 mm 4,7 UV-I 544 W/m 16,5 C 27,3 C 14,5 km/h (3 Bft) 97,87 %
09.07.2017 13:06 27,5 C 25,6 C 52 % 1013,2 hPa 0,0 l/m 8,1 km/h (2 Bft) W-SW 239 2 min 0,000 mm 5,1 UV-I 628 W/m 16,7 C 27,2 C 16,1 km/h (3 Bft) 95,74 %
09.07.2017 13:08 27,6 C 25,6 C 52 % 1013,2 hPa 0,0 l/m 10,0 km/h (2 Bft) S-SW 197 2 min 0,000 mm 5,0 UV-I 622 W/m 16,8 C 27,0 C 20,9 km/h (4 Bft) 95,74 %
09.07.2017 13:10 27,5 C 25,6 C 53 % 1013,1 hPa 0,0 l/m 10,5 km/h (2 Bft) S 188 2 min 0,000 mm 4,6 UV-I 623 W/m 17,0 C 26,9 C 17,7 km/h (3 Bft) 97,37 %
09.07.2017 13:12 27,4 C 25,6 C 53 % 1013,2 hPa 0,0 l/m 8,1 km/h (2 Bft) W-NW 285 2 min 0,000 mm 4,1 UV-I 497 W/m 17,0 C 27,1 C 14,5 km/h (3 Bft) 93,62 %
09.07.2017 13:14 27,4 C 25,6 C 55 % 1013,2 hPa 0,0 l/m 3,4 km/h (1 Bft) S-SW 213 0 min 0,000 mm 3,9 UV-I 467 W/m 17,5 C 27,4 C 9,7 km/h (2 Bft) 98,00 %
09.07.2017 13:16 27,4 C 25,6 C 54 % 1013,1 hPa 0,0 l/m 4,2 km/h (1 Bft) W 260 0 min 0,000 mm 3,7 UV-I 452 W/m 17,3 C 27,4 C 9,7 km/h (2 Bft) 97,87 %
09.07.2017 13:18 27,3 C 25,6 C 53 % 1013,1 hPa 0,0 l/m 4,0 km/h (1 Bft) W-SW 240 0 min 0,000 mm 3,3 UV-I 399 W/m 16,9 C 27,3 C 6,4 km/h (2 Bft) 93,62 %
09.07.2017 13:20 27,3 C 25,6 C 54 % 1013,2 hPa 0,0 l/m 6,0 km/h (2 Bft) W-SW 255 0 min 0,000 mm 2,9 UV-I 347 W/m 17,2 C 27,3 C 11,3 km/h (2 Bft) 97,87 %
09.07.2017 13:22 27,1 C 25,6 C 55 % 1013,2 hPa 0,0 l/m 8,2 km/h (2 Bft) W-SW 247 0 min 0,000 mm 2,5 UV-I 312 W/m 17,3 C 26,8 C 12,9 km/h (3 Bft) 95,92 %
09.07.2017 13:24 26,9 C 25,6 C 56 % 1013,1 hPa 0,0 l/m 3,1 km/h (1 Bft) W-SW 240 0 min 0,000 mm 2,4 UV-I 290 W/m 17,4 C 26,9 C 4,8 km/h (1 Bft) 97,87 %
09.07.2017 13:26 26,8 C 25,6 C 55 % 1013,2 hPa 0,0 l/m 3,4 km/h (1 Bft) W-SW 249 0 min 0,000 mm 2,2 UV-I 273 W/m 17,0 C 26,8 C 8,0 km/h (2 Bft) 100,00 %
09.07.2017 13:28 26,6 C 25,6 C 56 % 1013,1 hPa 0,0 l/m 3,1 km/h (1 Bft) NW 313 0 min 0,000 mm 2,1 UV-I 256 W/m 17,1 C 26,6 C 8,0 km/h (2 Bft) 98,00 %
09.07.2017 13:30 26,5 C 25,6 C 56 % 1013,1 hPa 0,0 l/m 7,8 km/h (2 Bft) W 263 0 min 0,000 mm 2,0 UV-I 242 W/m 17,0 C 26,2 C 14,5 km/h (3 Bft) 100,00 %
09.07.2017 13:32 26,4 C 25,6 C 57 % 1013,1 hPa 0,0 l/m 3,2 km/h (1 Bft) SW 218 0 min 0,000 mm 1,8 UV-I 229 W/m 17,2 C 26,4 C 6,4 km/h (2 Bft) 100,00 %
09.07.2017 13:34 26,3 C 25,6 C 56 % 1013,1 hPa 0,0 l/m 5,5 km/h (1 Bft) W-NW 284 0 min 0,000 mm 1,7 UV-I 218 W/m 16,8 C 26,3 C 12,9 km/h (3 Bft) 100,00 %
09.07.2017 13:36 26,2 C 25,6 C 57 % 1013,0 hPa 0,0 l/m 6,7 km/h (2 Bft) W 261 0 min 0,000 mm 1,7 UV-I 216 W/m 17,0 C 26,1 C 12,9 km/h (3 Bft) 97,87 %
09.07.2017 13:38 26,1 C 25,6 C 57 % 1013,0 hPa 0,0 l/m 5,0 km/h (1 Bft) W 265 0 min 0,000 mm 1,7 UV-I 218 W/m 16,9 C 26,1 C 11,3 km/h (2 Bft) 97,87 %
09.07.2017 13:40 26,1 C 25,6 C 57 % 1013,0 hPa 0,0 l/m 3,6 km/h (1 Bft) W-NW 294 0 min 0,000 mm 1,7 UV-I 219 W/m 16,9 C 26,1 C 6,4 km/h (2 Bft) 100,00 %
09.07.2017 13:42 26,1 C 25,6 C 58 % 1013,0 hPa 0,0 l/m 0,4 km/h (0 Bft) W-NW 294 0 min 0,000 mm 1,8 UV-I 221 W/m 17,2 C 26,1 C 3,2 km/h (1 Bft) 95,74 %
09.07.2017 13:44 26,1 C 25,6 C 58 % 1012,9 hPa 0,0 l/m 4,2 km/h (1 Bft) NW 316 0 min 0,000 mm 1,8 UV-I 229 W/m 17,2 C 26,1 C 9,7 km/h (2 Bft) 97,87 %
09.07.2017 13:46 26,1 C 25,6 C 58 % 1012,9 hPa 0,0 l/m 4,8 km/h (1 Bft) NW 307 0 min 0,000 mm 1,9 UV-I 238 W/m 17,2 C 26,1 C 12,9 km/h (3 Bft) 100,00 %
09.07.2017 13:48 26,1 C 25,6 C 58 % 1012,9 hPa 0,0 l/m 5,2 km/h (1 Bft) W-NW 290 0 min 0,000 mm 1,9 UV-I 243 W/m 17,2 C 26,1 C 12,9 km/h (3 Bft) 95,74 %
09.07.2017 13:50 26,2 C 25,6 C 59 % 1012,9 hPa 0,0 l/m 2,7 km/h (1 Bft) W 277 0 min 0,000 mm 1,9 UV-I 244 W/m 17,5 C 26,2 C 4,8 km/h (1 Bft) 100,00 %
09.07.2017 13:52 26,3 C 25,6 C 58 % 1012,9 hPa 0,0 l/m 5,1 km/h (1 Bft) W-SW 253 0 min 0,000 mm 2,0 UV-I 249 W/m 17,4 C 26,3 C 11,3 km/h (2 Bft) 97,87 %
09.07.2017 13:54 26,3 C 25,6 C 58 % 1012,9 hPa 0,0 l/m 5,3 km/h (1 Bft) W-NW 288 0 min 0,000 mm 2,0 UV-I 259 W/m 17,4 C 26,3 C 11,3 km/h (2 Bft) 95,74 %
09.07.2017 13:56 26,3 C 25,6 C 58 % 1012,8 hPa 0,0 l/m 4,5 km/h (1 Bft) SW 234 0 min 0,000 mm 2,2 UV-I 270 W/m 17,4 C 26,3 C 9,7 km/h (2 Bft) 95,74 %
09.07.2017 13:58 26,3 C 25,6 C 58 % 1012,8 hPa 0,0 l/m 2,1 km/h (1 Bft) SW 235 0 min 0,000 mm 2,2 UV-I 275 W/m 17,4 C 26,3 C 4,8 km/h (1 Bft) 95,74 %
09.07.2017 14:00 26,3 C 25,6 C 58 % 1012,8 hPa 0,0 l/m 4,5 km/h (1 Bft) W-SW 248 0 min 0,254 mm 2,2 UV-I 277 W/m 17,4 C 26,3 C 9,7 km/h (2 Bft) 95,74 %
09.07.2017 14:02 26,3 C 25,6 C 58 % 1012,8 hPa 0,0 l/m 4,1 km/h (1 Bft) W-NW 289 0 min 0,000 mm 2,2 UV-I 274 W/m 17,4 C 26,3 C 8,0 km/h (2 Bft) 91,67 %
09.07.2017 14:04 26,2 C 25,6 C 58 % 1012,8 hPa 0,0 l/m 2,1 km/h (1 Bft) W-NW 298 0 min 0,000 mm 2,2 UV-I 268 W/m 17,3 C 26,2 C 4,8 km/h (1 Bft) 98,00 %
09.07.2017 14:06 26,3 C 25,6 C 58 % 1012,8 hPa 0,0 l/m 0,9 km/h (0 Bft) NW 319 0 min 0,000 mm 2,0 UV-I 242 W/m 17,4 C 26,3 C 3,2 km/h (1 Bft) 93,62 %
09.07.2017 14:08 26,3 C 25,6 C 59 % 1012,8 hPa 0,0 l/m 0,5 km/h (0 Bft) NW 319 0 min 0,000 mm 1,7 UV-I 216 W/m 17,6 C 26,3 C 1,6 km/h (1 Bft) 98,00 %
09.07.2017 14:10 26,4 C 25,6 C 58 % 1012,8 hPa 0,0 l/m 1,9 km/h (1 Bft) W-SW 248 0 min 0,000 mm 1,6 UV-I 197 W/m 17,5 C 26,4 C 4,8 km/h (1 Bft) 95,74 %
09.07.2017 14:12 26,3 C 25,6 C 58 % 1012,7 hPa 0,0 l/m 3,3 km/h (1 Bft) W-NW 294 0 min 0,000 mm 1,4 UV-I 176 W/m 17,4 C 26,3 C 6,4 km/h (2 Bft) 96,00 %
09.07.2017 14:14 26,3 C 25,6 C 58 % 1012,7 hPa 0,0 l/m 2,7 km/h (1 Bft) NW 306 0 min 0,000 mm 1,2 UV-I 161 W/m 17,4 C 26,3 C 6,4 km/h (2 Bft) 95,74 %
09.07.2017 14:16 26,2 C 25,6 C 58 % 1012,7 hPa 0,0 l/m 3,4 km/h (1 Bft) NW 314 0 min 0,000 mm 1,2 UV-I 152 W/m 17,3 C 26,2 C 6,4 km/h (2 Bft) 94,74 %
09.07.2017 14:18 26,0 C 25,6 C 58 % 1012,6 hPa 0,0 l/m 1,8 km/h (1 Bft) NW 310 0 min 0,000 mm 1,2 UV-I 151 W/m 17,1 C 26,0 C 4,8 km/h (1 Bft) 95,74 %
09.07.2017 14:20 25,9 C 25,6 C 58 % 1012,6 hPa 0,0 l/m 1,7 km/h (1 Bft) NW 310 0 min 0,000 mm 1,2 UV-I 155 W/m 17,0 C 25,9 C 3,2 km/h (1 Bft) 97,87 %
09.07.2017 14:22 25,9 C 25,6 C 60 % 1012,6 hPa 0,0 l/m 0,1 km/h (0 Bft) NW 310 0 min 0,000 mm 1,2 UV-I 166 W/m 17,5 C 25,9 C 1,6 km/h (1 Bft) 97,87 %
09.07.2017 14:24 25,9 C 25,6 C 59 % 1012,6 hPa 0,0 l/m 1,0 km/h (0 Bft) NW 310 0 min 0,000 mm 1,4 UV-I 186 W/m 17,3 C 25,9 C 3,2 km/h (1 Bft) 97,87 %
09.07.2017 14:26 25,9 C 25,6 C 60 % 1012,6 hPa 0,0 l/m 0,2 km/h (0 Bft) NW 310 0 min 0,000 mm 1,7 UV-I 218 W/m 17,5 C 25,9 C 1,6 km/h (1 Bft) 97,87 %
09.07.2017 14:28 26,0 C 25,6 C 59 % 1012,6 hPa 0,0 l/m 1,2 km/h (1 Bft) NW 310 0 min 0,000 mm 2,0 UV-I 269 W/m 17,4 C 26,0 C 4,8 km/h (1 Bft) 93,62 %
09.07.2017 14:30 26,1 C 25,6 C 60 % 1012,5 hPa 0,0 l/m 2,2 km/h (1 Bft) NW 310 0 min 0,000 mm 2,7 UV-I 343 W/m 17,7 C 26,1 C 4,8 km/h (1 Bft) 93,62 %
09.07.2017 14:32 26,2 C 26,1 C 59 % 1012,5 hPa 0,0 l/m 1,7 km/h (1 Bft) NW 310 0 min 0,000 mm 3,1 UV-I 404 W/m 17,5 C 26,2 C 3,2 km/h (1 Bft) 95,74 %
09.07.2017 14:34 26,4 C 26,1 C 58 % 1012,6 hPa 0,0 l/m 0,8 km/h (0 Bft) NW 311 0 min 0,000 mm 3,3 UV-I 431 W/m 17,5 C 26,4 C 3,2 km/h (1 Bft) 93,62 %
09.07.2017 14:36 26,6 C 26,1 C 58 % 1012,5 hPa 0,0 l/m 1,5 km/h (1 Bft) N-NW 336 0 min 0,000 mm 3,4 UV-I 437 W/m 17,6 C 26,6 C 3,2 km/h (1 Bft) 95,74 %
09.07.2017 14:38 26,7 C 26,1 C 58 % 1012,4 hPa 0,0 l/m 4,0 km/h (1 Bft) N-NO 16 0 min 0,000 mm 3,4 UV-I 440 W/m 17,7 C 26,7 C 6,4 km/h (2 Bft) 91,49 %
09.07.2017 14:40 26,8 C 26,1 C 58 % 1012,3 hPa 0,0 l/m 1,5 km/h (1 Bft) N-NO 13 0 min 0,000 mm 3,3 UV-I 423 W/m 17,8 C 26,8 C 4,8 km/h (1 Bft) 95,74 %
09.07.2017 14:42 27,0 C 26,1 C 58 % 1012,2 hPa 0,0 l/m 6,5 km/h (2 Bft) N-NO 29 0 min 0,000 mm 3,0 UV-I 393 W/m 18,0 C 27,0 C 9,7 km/h (2 Bft) 91,49 %
09.07.2017 14:44 27,1 C 26,1 C 58 % 1012,2 hPa 0,0 l/m 7,0 km/h (2 Bft) O-NO 62 0 min 0,000 mm 2,9 UV-I 374 W/m 18,1 C 27,0 C 9,7 km/h (2 Bft) 95,92 %
09.07.2017 14:46 27,0 C 26,1 C 56 % 1012,1 hPa 0,0 l/m 6,2 km/h (2 Bft) N-NO 15 0 min 0,000 mm 2,8 UV-I 363 W/m 17,5 C 27,0 C 8,0 km/h (2 Bft) 93,75 %
09.07.2017 14:48 26,8 C 26,1 C 57 % 1012,1 hPa 0,0 l/m 4,6 km/h (1 Bft) N-NO 23 0 min 0,000 mm 2,8 UV-I 362 W/m 17,6 C 26,8 C 6,4 km/h (2 Bft) 93,62 %
09.07.2017 14:50 26,8 C 26,1 C 58 % 1012,0 hPa 0,0 l/m 5,7 km/h (1 Bft) N-NO 13 0 min 0,000 mm 2,8 UV-I 368 W/m 17,8 C 26,8 C 8,0 km/h (2 Bft) 94,00 %
09.07.2017 14:52 26,9 C 26,1 C 57 % 1012,0 hPa 0,0 l/m 5,9 km/h (2 Bft) NO 44 0 min 0,000 mm 2,8 UV-I 372 W/m 17,6 C 26,9 C 9,7 km/h (2 Bft) 91,49 %
09.07.2017 14:54 27,0 C 26,1 C 58 % 1011,9 hPa 0,0 l/m 7,4 km/h (2 Bft) N-NO 26 0 min 0,000 mm 2,8 UV-I 361 W/m 18,0 C 26,8 C 9,7 km/h (2 Bft) 93,62 %
09.07.2017 14:56 27,0 C 26,1 C 57 % 1011,9 hPa 0,0 l/m 6,3 km/h (2 Bft) NO 40 0 min 0,000 mm 2,6 UV-I 337 W/m 17,7 C 27,0 C 9,7 km/h (2 Bft) 93,62 %
09.07.2017 14:58 27,0 C 26,1 C 58 % 1012,0 hPa 0,0 l/m 7,4 km/h (2 Bft) N-NO 19 0 min 0,000 mm 2,4 UV-I 309 W/m 18,0 C 26,8 C 12,9 km/h (3 Bft) 95,74 %
09.07.2017 15:00 26,9 C 26,1 C 57 % 1012,0 hPa 0,0 l/m 2,3 km/h (1 Bft) NO 45 0 min 0,203 mm 2,2 UV-I 298 W/m 17,6 C 26,9 C 6,4 km/h (2 Bft) 97,87 %
09.07.2017 15:02 26,8 C 26,1 C 58 % 1012,0 hPa 0,0 l/m 5,2 km/h (1 Bft) N-NO 16 0 min 0,000 mm 2,3 UV-I 311 W/m 17,8 C 26,8 C 12,9 km/h (3 Bft) 97,87 %
09.07.2017 15:04 26,7 C 26,1 C 58 % 1012,0 hPa 0,0 l/m 3,2 km/h (1 Bft) N-NO 22 0 min 0,000 mm 2,4 UV-I 327 W/m 17,7 C 26,7 C 6,4 km/h (2 Bft) 95,74 %
09.07.2017 15:06 26,7 C 26,1 C 58 % 1012,0 hPa 0,0 l/m 3,2 km/h (1 Bft) N-NW 335 0 min 0,000 mm 2,4 UV-I 331 W/m 17,7 C 26,7 C 8,0 km/h (2 Bft) 97,30 %
09.07.2017 15:08 26,6 C 26,1 C 58 % 1012,0 hPa 0,0 l/m 1,1 km/h (1 Bft) N-NW 335 0 min 0,000 mm 2,4 UV-I 331 W/m 17,6 C 26,6 C 4,8 km/h (1 Bft) 100,00 %
09.07.2017 15:10 26,7 C 26,1 C 59 % 1012,0 hPa 0,0 l/m 1,9 km/h (1 Bft) NO 44 0 min 0,000 mm 2,4 UV-I 329 W/m 18,0 C 26,7 C 6,4 km/h (2 Bft) 95,74 %
09.07.2017 15:12 26,7 C 26,1 C 59 % 1011,9 hPa 0,0 l/m 6,2 km/h (2 Bft) N-NO 22 0 min 0,000 mm 2,4 UV-I 330 W/m 18,0 C 26,7 C 12,9 km/h (3 Bft) 100,00 %
09.07.2017 15:14 26,8 C 26,1 C 59 % 1011,9 hPa 0,0 l/m 7,4 km/h (2 Bft) NO 56 0 min 0,000 mm 2,4 UV-I 332 W/m 18,1 C 26,6 C 11,3 km/h (2 Bft) 97,87 %
09.07.2017 15:16 26,7 C 26,1 C 59 % 1011,9 hPa 0,0 l/m 8,1 km/h (2 Bft) O-NO 60 0 min 0,000 mm 2,4 UV-I 338 W/m 18,0 C 26,4 C 14,5 km/h (3 Bft) 100,00 %
09.07.2017 15:18 26,8 C 26,1 C 59 % 1011,9 hPa 0,0 l/m 7,8 km/h (2 Bft) N-NO 31 0 min 0,000 mm 2,5 UV-I 350 W/m 18,1 C 26,5 C 14,5 km/h (3 Bft) 97,87 %
09.07.2017 15:20 26,8 C 26,1 C 59 % 1011,9 hPa 0,0 l/m 8,3 km/h (2 Bft) NO 36 0 min 0,000 mm 2,6 UV-I 371 W/m 18,1 C 26,4 C 12,9 km/h (3 Bft) 100,00 %
09.07.2017 15:22 26,9 C 26,1 C 59 % 1011,9 hPa 0,0 l/m 6,0 km/h (2 Bft) NO 38 0 min 0,000 mm 2,8 UV-I 399 W/m 18,2 C 26,9 C 8,0 km/h (2 Bft) 95,74 %
09.07.2017 15:24 26,9 C 26,1 C 58 % 1011,9 hPa 0,0 l/m 6,2 km/h (2 Bft) N-NO 20 0 min 0,000 mm 2,8 UV-I 412 W/m 17,9 C 26,9 C 12,9 km/h (3 Bft) 97,87 %
09.07.2017 15:26 27,0 C 26,1 C 57 % 1011,9 hPa 0,0 l/m 2,3 km/h (1 Bft) N-NO 22 0 min 0,000 mm 2,8 UV-I 402 W/m 17,7 C 27,0 C 4,8 km/h (1 Bft) 97,87 %
09.07.2017 15:28 26,8 C 26,1 C 56 % 1011,8 hPa 0,0 l/m 2,1 km/h (1 Bft) N 10 0 min 0,000 mm 2,7 UV-I 385 W/m 17,3 C 26,8 C 6,4 km/h (2 Bft) 98,00 %
09.07.2017 15:30 26,8 C 26,1 C 57 % 1011,7 hPa 0,0 l/m 1,1 km/h (1 Bft) NW 322 0 min 0,000 mm 2,6 UV-I 372 W/m 17,6 C 26,8 C 4,8 km/h (1 Bft) 100,00 %
09.07.2017 15:32 26,8 C 26,1 C 58 % 1011,6 hPa 0,0 l/m 3,1 km/h (1 Bft) N-NO 17 0 min 0,000 mm 2,5 UV-I 365 W/m 17,8 C 26,8 C 8,0 km/h (2 Bft) 97,87 %
09.07.2017 15:34 26,9 C 26,1 C 58 % 1011,7 hPa 0,0 l/m 4,3 km/h (1 Bft) N-NO 16 0 min 0,000 mm 2,5 UV-I 364 W/m 17,9 C 26,9 C 8,0 km/h (2 Bft) 93,62 %
09.07.2017 15:36 26,8 C 26,1 C 58 % 1011,6 hPa 0,0 l/m 1,1 km/h (1 Bft) N 10 0 min 0,000 mm 2,5 UV-I 377 W/m 17,8 C 26,8 C 3,2 km/h (1 Bft) 98,00 %
09.07.2017 15:38 26,9 C 26,1 C 58 % 1011,6 hPa 0,0 l/m 4,0 km/h (1 Bft) N-NO 25 2 min 0,000 mm 3,1 UV-I 453 W/m 17,9 C 26,9 C 8,0 km/h (2 Bft) 97,87 %
09.07.2017 15:40 27,1 C 26,1 C 57 % 1011,5 hPa 0,0 l/m 4,2 km/h (1 Bft) N-NO 22 2 min 0,000 mm 3,4 UV-I 627 W/m 17,8 C 27,1 C 8,0 km/h (2 Bft) 97,87 %
09.07.2017 15:42 27,1 C 26,1 C 57 % 1011,5 hPa 0,0 l/m 1,9 km/h (1 Bft) N-NO 17 2 min 0,000 mm 2,9 UV-I 422 W/m 17,8 C 27,1 C 6,4 km/h (2 Bft) 97,87 %
09.07.2017 15:44 27,1 C 26,1 C 56 % 1011,5 hPa 0,0 l/m 4,1 km/h (1 Bft) NO 36 0 min 0,000 mm 2,6 UV-I 358 W/m 17,5 C 27,1 C 8,0 km/h (2 Bft) 100,00 %
09.07.2017 15:46 27,1 C 26,1 C 57 % 1011,5 hPa 0,0 l/m 5,0 km/h (1 Bft) NO 53 0 min 0,000 mm 2,4 UV-I 321 W/m 17,8 C 27,1 C 8,0 km/h (2 Bft) 97,87 %
09.07.2017 15:48 26,8 C 26,1 C 57 % 1011,5 hPa 0,0 l/m 0,8 km/h (0 Bft) NO 53 0 min 0,000 mm 2,6 UV-I 372 W/m 17,6 C 26,8 C 3,2 km/h (1 Bft) 100,00 %
09.07.2017 15:50 26,8 C 26,1 C 58 % 1011,4 hPa 0,0 l/m 4,0 km/h (1 Bft) NO 52 2 min 0,000 mm 2,8 UV-I 420 W/m 17,8 C 26,8 C 8,0 km/h (2 Bft) 100,00 %
09.07.2017 15:52 27,1 C 26,1 C 58 % 1011,4 hPa 0,0 l/m 5,0 km/h (1 Bft) N-NO 26 2 min 0,000 mm 2,9 UV-I 463 W/m 18,1 C 27,1 C 11,3 km/h (2 Bft) 97,87 %
09.07.2017 15:54 27,2 C 26,1 C 56 % 1011,4 hPa 0,0 l/m 3,1 km/h (1 Bft) N-NO 19 2 min 0,000 mm 3,0 UV-I 468 W/m 17,6 C 27,2 C 6,4 km/h (2 Bft) 100,00 %
09.07.2017 15:56 27,2 C 26,1 C 56 % 1011,3 hPa 0,0 l/m 0,9 km/h (0 Bft) N 11 2 min 0,000 mm 3,2 UV-I 550 W/m 17,6 C 27,2 C 4,8 km/h (1 Bft) 97,87 %
09.07.2017 15:58 27,4 C 26,1 C 56 % 1011,3 hPa 0,0 l/m 1,9 km/h (1 Bft) N 355 2 min 0,000 mm 3,3 UV-I 577 W/m 17,8 C 27,4 C 3,2 km/h (1 Bft) 93,75 %
09.07.2017 16:00 27,6 C 26,1 C 56 % 1011,3 hPa 0,0 l/m 4,9 km/h (1 Bft) NO 44 2 min 0,279 mm 3,4 UV-I 579 W/m 18,0 C 27,6 C 6,4 km/h (2 Bft) 97,83 %
09.07.2017 16:03 27,7 C 26,1 C 55 % 1011,2 hPa 0,0 l/m 6,5 km/h (2 Bft) NO 42 3 min 0,000 mm 3,1 UV-I 524 W/m 17,8 C 27,7 C 12,9 km/h (3 Bft) 98,80 %
09.07.2017 16:04 27,7 C 26,1 C 54 % 1011,2 hPa 0,0 l/m 2,6 km/h (1 Bft) NO 42 1 min 0,000 mm 2,9 UV-I 444 W/m 17,5 C 27,7 C 4,8 km/h (1 Bft) 100,00 %
09.07.2017 16:06 27,6 C 26,1 C 56 % 1011,1 hPa 0,0 l/m 4,6 km/h (1 Bft) NO 38 2 min 0,000 mm 2,7 UV-I 402 W/m 18,0 C 27,6 C 6,4 km/h (2 Bft) 95,74 %
09.07.2017 16:08 27,5 C 26,1 C 55 % 1011,0 hPa 0,0 l/m 4,8 km/h (1 Bft) O-NO 77 0 min 0,000 mm 2,5 UV-I 356 W/m 17,6 C 27,5 C 14,5 km/h (3 Bft) 95,74 %
09.07.2017 16:10 27,3 C 26,1 C 55 % 1011,0 hPa 0,0 l/m 5,1 km/h (1 Bft) NO 53 0 min 0,000 mm 2,2 UV-I 316 W/m 17,4 C 27,3 C 12,9 km/h (3 Bft) 97,87 %
09.07.2017 16:12 27,2 C 26,1 C 56 % 1011,0 hPa 0,0 l/m 2,7 km/h (1 Bft) NO 53 0 min 0,000 mm 2,2 UV-I 294 W/m 17,6 C 27,2 C 4,8 km/h (1 Bft) 97,87 %
09.07.2017 16:14 27,1 C 26,1 C 56 % 1010,9 hPa 0,0 l/m 3,9 km/h (1 Bft) NO 38 0 min 0,000 mm 2,1 UV-I 293 W/m 17,5 C 27,1 C 6,4 km/h (2 Bft) 95,74 %
09.07.2017 16:16 27,1 C 26,1 C 56 % 1011,0 hPa 0,0 l/m 0,4 km/h (0 Bft) NO 38 0 min 0,000 mm 2,3 UV-I 352 W/m 17,5 C 27,1 C 1,6 km/h (1 Bft) 100,00 %
09.07.2017 16:18 27,1 C 26,1 C 57 % 1010,9 hPa 0,0 l/m 1,6 km/h (1 Bft) NW 318 2 min 0,000 mm 2,5 UV-I 450 W/m 17,8 C 27,1 C 4,8 km/h (1 Bft) 97,87 %
09.07.2017 16:20 27,3 C 26,1 C 56 % 1010,9 hPa 0,0 l/m 2,5 km/h (1 Bft) N-NW 332 2 min 0,000 mm 3,2 UV-I 595 W/m 17,7 C 27,3 C 4,8 km/h (1 Bft) 100,00 %
09.07.2017 16:22 27,7 C 26,1 C 54 % 1010,9 hPa 0,0 l/m 4,3 km/h (1 Bft) O-NO 67 2 min 0,000 mm 3,6 UV-I 762 W/m 17,5 C 27,7 C 8,0 km/h (2 Bft) 97,87 %
09.07.2017 16:24 27,8 C 26,1 C 54 % 1010,9 hPa 0,0 l/m 6,2 km/h (2 Bft) O-SO 111 2 min 0,000 mm 3,7 UV-I 828 W/m 17,6 C 27,8 C 9,7 km/h (2 Bft) 97,87 %
09.07.2017 16:26 27,8 C 26,1 C 53 % 1010,8 hPa 0,0 l/m 7,0 km/h (2 Bft) O 88 2 min 0,000 mm 3,8 UV-I 809 W/m 17,3 C 27,7 C 12,9 km/h (3 Bft) 97,37 %
09.07.2017 16:28 28,0 C 26,1 C 57 % 1010,8 hPa 0,0 l/m 2,0 km/h (1 Bft) O 83 2 min 0,000 mm 3,8 UV-I 785 W/m 18,7 C 28,0 C 6,4 km/h (2 Bft) 95,74 %
09.07.2017 16:30 28,4 C 26,1 C 55 % 1010,8 hPa 0,0 l/m 5,5 km/h (1 Bft) O 82 2 min 0,000 mm 3,7 UV-I 767 W/m 18,5 C 28,4 C 11,3 km/h (2 Bft) 97,87 %
09.07.2017 16:32 28,7 C 26,1 C 51 % 1010,7 hPa 0,0 l/m 6,5 km/h (2 Bft) O-SO 112 2 min 0,000 mm 3,5 UV-I 727 W/m 17,5 C 28,7 C 11,3 km/h (2 Bft) 95,74 %
09.07.2017 16:34 28,3 C 26,1 C 51 % 1010,7 hPa 0,0 l/m 4,4 km/h (1 Bft) S-SO 155 2 min 0,000 mm 3,4 UV-I 704 W/m 17,2 C 28,3 C 11,3 km/h (2 Bft) 97,87 %
09.07.2017 16:36 28,2 C 26,1 C 53 % 1010,7 hPa 0,0 l/m 1,9 km/h (1 Bft) NO 49 2 min 0,000 mm 3,3 UV-I 680 W/m 17,7 C 28,2 C 4,8 km/h (1 Bft) 97,87 %
09.07.2017 16:38 28,4 C 26,1 C 52 % 1010,8 hPa 0,0 l/m 7,4 km/h (2 Bft) O 84 2 min 0,000 mm 3,2 UV-I 656 W/m 17,6 C 28,3 C 12,9 km/h (3 Bft) 97,87 %
09.07.2017 16:40 28,8 C 26,1 C 50 % 1010,8 hPa 0,0 l/m 7,6 km/h (2 Bft) O-NO 60 2 min 0,000 mm 3,1 UV-I 638 W/m 17,3 C 28,6 C 12,9 km/h (3 Bft) 95,74 %
09.07.2017 16:42 28,7 C 26,1 C 50 % 1010,8 hPa 0,0 l/m 6,0 km/h (2 Bft) NO 37 2 min 0,000 mm 3,0 UV-I 624 W/m 17,2 C 28,7 C 9,7 km/h (2 Bft) 95,83 %
09.07.2017 16:44 28,7 C 26,1 C 52 % 1010,8 hPa 0,0 l/m 6,5 km/h (2 Bft) NO 41 2 min 0,000 mm 2,9 UV-I 608 W/m 17,8 C 28,7 C 11,3 km/h (2 Bft) 95,74 %
09.07.2017 16:46 28,7 C 26,1 C 50 % 1010,8 hPa 0,0 l/m 5,7 km/h (1 Bft) N-NO 23 2 min 0,000 mm 2,8 UV-I 596 W/m 17,2 C 28,7 C 9,7 km/h (2 Bft) 97,96 %
09.07.2017 16:48 28,6 C 26,1 C 50 % 1010,8 hPa 0,0 l/m 5,5 km/h (1 Bft) N 5 2 min 0,000 mm 2,8 UV-I 588 W/m 17,1 C 28,6 C 9,7 km/h (2 Bft) 93,62 %
09.07.2017 16:50 28,6 C 26,1 C 53 % 1010,7 hPa 0,0 l/m 2,2 km/h (1 Bft) N-NO 13 2 min 0,000 mm 2,7 UV-I 577 W/m 18,1 C 28,6 C 8,0 km/h (2 Bft) 91,49 %
09.07.2017 16:52 28,8 C 26,1 C 50 % 1010,7 hPa 0,0 l/m 8,4 km/h (2 Bft) O 100 2 min 0,000 mm 2,7 UV-I 567 W/m 17,3 C 28,5 C 14,5 km/h (3 Bft) 98,00 %
09.07.2017 16:54 28,8 C 26,1 C 49 % 1010,7 hPa 0,0 l/m 8,5 km/h (2 Bft) O-SO 121 2 min 0,000 mm 2,6 UV-I 559 W/m 17,0 C 28,5 C 14,5 km/h (3 Bft) 94,74 %
09.07.2017 16:56 28,8 C 26,1 C 52 % 1010,6 hPa 0,0 l/m 5,3 km/h (1 Bft) O-SO 116 2 min 0,000 mm 2,5 UV-I 553 W/m 17,9 C 28,8 C 9,7 km/h (2 Bft) 95,92 %
09.07.2017 16:58 28,8 C 26,1 C 50 % 1010,6 hPa 0,0 l/m 5,3 km/h (1 Bft) O 87 2 min 0,000 mm 2,5 UV-I 546 W/m 17,3 C 28,8 C 9,7 km/h (2 Bft) 97,87 %
09.07.2017 17:00 28,8 C 26,1 C 50 % 1010,6 hPa 0,0 l/m 11,3 km/h (2 Bft) O-SO 113 2 min 0,000 mm 2,5 UV-I 541 W/m 17,3 C 28,2 C 14,5 km/h (3 Bft) 97,87 %
09.07.2017 17:02 28,6 C 26,1 C 51 % 1010,5 hPa 0,0 l/m 2,2 km/h (1 Bft) S-SO 150 2 min 0,407 mm 2,4 UV-I 534 W/m 17,4 C 28,6 C 3,2 km/h (1 Bft) 100,00 %
09.07.2017 17:04 28,6 C 26,1 C 51 % 1010,4 hPa 0,0 l/m 7,6 km/h (2 Bft) O-NO 69 2 min 0,000 mm 2,4 UV-I 528 W/m 17,4 C 28,4 C 11,3 km/h (2 Bft) 97,14 %
09.07.2017 17:06 28,7 C 26,1 C 51 % 1010,4 hPa 0,0 l/m 7,8 km/h (2 Bft) NO 44 2 min 0,000 mm 2,3 UV-I 522 W/m 17,5 C 28,5 C 11,3 km/h (2 Bft) 100,00 %
09.07.2017 17:08 28,7 C 26,1 C 51 % 1010,4 hPa 0,0 l/m 10,0 km/h (2 Bft) NO 38 2 min 0,000 mm 2,3 UV-I 517 W/m 17,5 C 28,3 C 17,7 km/h (3 Bft) 97,87 %
09.07.2017 17:10 28,8 C 26,1 C 50 % 1010,4 hPa 0,0 l/m 8,3 km/h (2 Bft) O-NO 63 2 min 0,000 mm 2,2 UV-I 514 W/m 17,3 C 28,6 C 16,1 km/h (3 Bft) 100,00 %
09.07.2017 17:12 29,0 C 26,1 C 50 % 1010,4 hPa 0,0 l/m 7,1 km/h (2 Bft) O-SO 109 2 min 0,000 mm 2,2 UV-I 510 W/m 17,5 C 28,9 C 16,1 km/h (3 Bft) 95,74 %
09.07.2017 17:14 28,9 C 26,1 C 49 % 1010,4 hPa 0,0 l/m 8,6 km/h (2 Bft) SO 126 2 min 0,000 mm 2,2 UV-I 501 W/m 17,1 C 28,6 C 14,5 km/h (3 Bft) 95,74 %
09.07.2017 17:16 28,9 C 26,1 C 48 % 1010,3 hPa 0,0 l/m 7,5 km/h (2 Bft) NO 53 2 min 0,000 mm 2,1 UV-I 496 W/m 16,8 C 28,8 C 16,1 km/h (3 Bft) 100,00 %
09.07.2017 17:18 28,6 C 26,1 C 49 % 1010,3 hPa 0,0 l/m 4,6 km/h (1 Bft) O-NO 61 2 min 0,000 mm 2,1 UV-I 491 W/m 16,8 C 28,6 C 11,3 km/h (2 Bft) 97,87 %
09.07.2017 17:20 28,6 C 26,1 C 50 % 1010,3 hPa 0,0 l/m 7,7 km/h (2 Bft) O 84 2 min 0,000 mm 2,0 UV-I 485 W/m 17,1 C 28,4 C 12,9 km/h (3 Bft) 100,00 %
09.07.2017 17:22 28,6 C 26,1 C 51 % 1010,3 hPa 0,0 l/m 7,2 km/h (2 Bft) O-NO 62 2 min 0,000 mm 2,0 UV-I 479 W/m 17,4 C 28,5 C 11,3 km/h (2 Bft) 94,87 %
09.07.2017 17:24 28,6 C 26,1 C 50 % 1010,2 hPa 0,0 l/m 1,8 km/h (1 Bft) O-NO 62 2 min 0,000 mm 1,9 UV-I 474 W/m 17,1 C 28,6 C 4,8 km/h (1 Bft) 100,00 %
09.07.2017 17:26 28,6 C 26,1 C 52 % 1010,2 hPa 0,0 l/m 3,0 km/h (1 Bft) O 95 2 min 0,000 mm 1,9 UV-I 468 W/m 17,8 C 28,6 C 11,3 km/h (2 Bft) 100,00 %
09.07.2017 17:28 28,7 C 26,1 C 51 % 1010,2 hPa 0,0 l/m 7,3 km/h (2 Bft) O-NO 64 2 min 0,000 mm 1,8 UV-I 463 W/m 17,5 C 28,6 C 12,9 km/h (3 Bft) 100,00 %
09.07.2017 17:30 28,8 C 26,1 C 51 % 1010,2 hPa 0,0 l/m 7,6 km/h (2 Bft) O-NO 57 2 min 0,000 mm 1,8 UV-I 458 W/m 17,6 C 28,6 C 12,9 km/h (3 Bft) 95,74 %
09.07.2017 17:32 28,9 C 26,1 C 51 % 1010,2 hPa 0,0 l/m 9,4 km/h (2 Bft) O-NO 63 2 min 0,000 mm 1,8 UV-I 454 W/m 17,7 C 28,5 C 16,1 km/h (3 Bft) 96,23 %
09.07.2017 17:34 28,9 C 26,1 C 50 % 1010,2 hPa 0,0 l/m 11,6 km/h (2 Bft) NO 53 2 min 0,000 mm 1,7 UV-I 450 W/m 17,4 C 28,3 C 17,7 km/h (3 Bft) 91,89 %
09.07.2017 17:36 28,9 C 26,1 C 49 % 1010,2 hPa 0,0 l/m 7,6 km/h (2 Bft) O-SO 104 2 min 0,000 mm 1,7 UV-I 445 W/m 17,1 C 28,7 C 12,9 km/h (3 Bft) 96,00 %
09.07.2017 17:38 28,8 C 26,1 C 50 % 1010,2 hPa 0,0 l/m 10,3 km/h (2 Bft) O-NO 71 2 min 0,000 mm 1,6 UV-I 441 W/m 17,3 C 28,3 C 19,3 km/h (3 Bft) 95,74 %
09.07.2017 17:40 28,8 C 26,1 C 50 % 1010,2 hPa 0,0 l/m 10,4 km/h (2 Bft) O-NO 61 2 min 0,000 mm 1,6 UV-I 437 W/m 17,3 C 28,3 C 16,1 km/h (3 Bft) 95,74 %
09.07.2017 17:42 28,7 C 26,1 C 50 % 1010,1 hPa 0,0 l/m 8,0 km/h (2 Bft) O-SO 119 2 min 0,000 mm 1,6 UV-I 413 W/m 17,2 C 28,5 C 12,9 km/h (3 Bft) 98,00 %
09.07.2017 17:44 28,7 C 26,1 C 51 % 1010,1 hPa 0,0 l/m 9,3 km/h (2 Bft) NO 42 2 min 0,000 mm 1,4 UV-I 346 W/m 17,5 C 28,3 C 19,3 km/h (3 Bft) 91,43 %
09.07.2017 17:46 28,7 C 26,1 C 51 % 1010,1 hPa 0,0 l/m 11,1 km/h (2 Bft) NO 54 2 min 0,000 mm 1,3 UV-I 302 W/m 17,5 C 28,1 C 14,5 km/h (3 Bft) 98,11 %
09.07.2017 17:48 28,7 C 26,1 C 52 % 1010,0 hPa 0,0 l/m 5,6 km/h (1 Bft) O 101 2 min 0,000 mm 1,3 UV-I 371 W/m 17,8 C 28,7 C 8,0 km/h (2 Bft) 95,74 %
09.07.2017 17:50 28,8 C 26,1 C 50 % 1010,0 hPa 0,0 l/m 4,9 km/h (1 Bft) O-SO 110 2 min 0,000 mm 1,3 UV-I 379 W/m 17,3 C 28,8 C 9,7 km/h (2 Bft) 96,00 %
09.07.2017 17:52 28,8 C 26,1 C 51 % 1010,0 hPa 0,0 l/m 5,1 km/h (1 Bft) O-SO 109 2 min 0,000 mm 1,3 UV-I 373 W/m 17,6 C 28,8 C 9,7 km/h (2 Bft) 97,73 %
09.07.2017 17:54 28,8 C 26,1 C 51 % 1009,9 hPa 0,0 l/m 8,0 km/h (2 Bft) O-NO 76 2 min 0,000 mm 1,3 UV-I 400 W/m 17,6 C 28,6 C 19,3 km/h (3 Bft) 95,74 %
09.07.2017 17:56 28,8 C 26,1 C 51 % 1009,9 hPa 0,0 l/m 12,5 km/h (3 Bft) NO 48 2 min 0,000 mm 1,3 UV-I 399 W/m 17,6 C 28,1 C 17,7 km/h (3 Bft) 97,87 %
09.07.2017 17:58 28,8 C 26,1 C 50 % 1009,9 hPa 0,0 l/m 11,6 km/h (2 Bft) O-NO 63 2 min 0,000 mm 1,3 UV-I 374 W/m 17,3 C 28,2 C 16,1 km/h (3 Bft) 97,87 %
09.07.2017 18:00 28,8 C 26,1 C 52 % 1009,9 hPa 0,0 l/m 6,0 km/h (2 Bft) O 92 2 min 0,000 mm 1,3 UV-I 376 W/m 17,9 C 28,8 C 9,7 km/h (2 Bft) 95,83 %
09.07.2017 18:02 28,7 C 26,1 C 52 % 1009,9 hPa 0,0 l/m 3,5 km/h (1 Bft) O 85 2 min 0,355 mm 1,2 UV-I 376 W/m 17,8 C 28,7 C 9,7 km/h (2 Bft) 94,00 %
09.07.2017 18:04 28,8 C 26,1 C 52 % 1009,8 hPa 0,0 l/m 7,1 km/h (2 Bft) O-NO 59 2 min 0,000 mm 1,1 UV-I 311 W/m 17,9 C 28,7 C 17,7 km/h (3 Bft) 95,74 %
09.07.2017 18:06 28,8 C 26,1 C 51 % 1009,8 hPa 0,0 l/m 12,8 km/h (3 Bft) NO 49 2 min 0,000 mm 1,1 UV-I 316 W/m 17,6 C 28,1 C 20,9 km/h (4 Bft) 93,62 %
09.07.2017 18:08 28,8 C 26,1 C 52 % 1009,8 hPa 0,0 l/m 13,4 km/h (3 Bft) O 100 2 min 0,000 mm 1,0 UV-I 299 W/m 17,9 C 28,0 C 19,3 km/h (3 Bft) 93,62 %
09.07.2017 18:10 28,8 C 26,1 C 52 % 1009,8 hPa 0,0 l/m 11,8 km/h (2 Bft) O-NO 77 2 min 0,000 mm 1,0 UV-I 301 W/m 17,9 C 28,2 C 16,1 km/h (3 Bft) 97,87 %
09.07.2017 18:12 28,7 C 26,1 C 51 % 1009,7 hPa 0,0 l/m 8,8 km/h (2 Bft) O-NO 74 2 min 0,000 mm 1,0 UV-I 301 W/m 17,5 C 28,4 C 16,1 km/h (3 Bft) 97,87 %
09.07.2017 18:14 28,7 C 26,1 C 51 % 1009,7 hPa 0,0 l/m 7,5 km/h (2 Bft) O-NO 65 2 min 0,000 mm 1,0 UV-I 331 W/m 17,5 C 28,6 C 9,7 km/h (2 Bft) 97,87 %
09.07.2017 18:16 28,8 C 26,1 C 52 % 1009,7 hPa 0,0 l/m 6,7 km/h (2 Bft) NO 55 2 min 0,000 mm 1,0 UV-I 305 W/m 17,9 C 28,8 C 14,5 km/h (3 Bft) 95,12 %
09.07.2017 18:18 28,8 C 26,1 C 51 % 1009,6 hPa 0,0 l/m 11,2 km/h (2 Bft) O-NO 77 2 min 0,000 mm 1,0 UV-I 308 W/m 17,6 C 28,2 C 16,1 km/h (3 Bft) 93,62 %
09.07.2017 18:20 28,8 C 26,1 C 52 % 1009,6 hPa 0,0 l/m 7,9 km/h (2 Bft) NO 45 2 min 0,000 mm 0,9 UV-I 300 W/m 17,9 C 28,6 C 12,9 km/h (3 Bft) 93,62 %
09.07.2017 18:22 28,9 C 26,1 C 52 % 1009,6 hPa 0,0 l/m 11,0 km/h (2 Bft) NO 55 2 min 0,000 mm 0,9 UV-I 293 W/m 18,0 C 28,4 C 17,7 km/h (3 Bft) 91,49 %
09.07.2017 18:24 28,8 C 26,1 C 50 % 1009,5 hPa 0,0 l/m 10,1 km/h (2 Bft) NO 38 2 min 0,000 mm 0,9 UV-I 293 W/m 17,3 C 28,4 C 17,7 km/h (3 Bft) 90,00 %
09.07.2017 18:26 28,8 C 26,1 C 50 % 1009,6 hPa 0,0 l/m 13,6 km/h (3 Bft) NO 44 2 min 0,000 mm 0,9 UV-I 294 W/m 17,3 C 28,0 C 17,7 km/h (3 Bft) 96,00 %
09.07.2017 18:28 28,8 C 26,1 C 50 % 1009,6 hPa 0,0 l/m 11,7 km/h (2 Bft) O-NO 68 2 min 0,000 mm 0,8 UV-I 292 W/m 17,3 C 28,2 C 17,7 km/h (3 Bft) 97,37 %
09.07.2017 18:30 28,7 C 26,1 C 50 % 1009,6 hPa 0,0 l/m 13,3 km/h (3 Bft) O-NO 62 2 min 0,000 mm 0,8 UV-I 302 W/m 17,2 C 27,9 C 17,7 km/h (3 Bft) 96,23 %
09.07.2017 18:32 28,7 C 26,1 C 50 % 1009,6 hPa 0,0 l/m 8,3 km/h (2 Bft) O-NO 65 2 min 0,000 mm 0,8 UV-I 247 W/m 17,2 C 28,4 C 14,5 km/h (3 Bft) 93,62 %
09.07.2017 18:34 28,7 C 26,1 C 50 % 1009,6 hPa 0,0 l/m 11,3 km/h (2 Bft) O-NO 61 2 min 0,000 mm 0,8 UV-I 286 W/m 17,2 C 28,1 C 17,7 km/h (3 Bft) 93,62 %
09.07.2017 18:36 28,7 C 26,1 C 51 % 1009,5 hPa 0,0 l/m 4,6 km/h (1 Bft) O 101 2 min 0,000 mm 0,8 UV-I 287 W/m 17,5 C 28,7 C 6,4 km/h (2 Bft) 95,74 %
09.07.2017 18:38 28,8 C 26,1 C 50 % 1009,5 hPa 0,0 l/m 5,2 km/h (1 Bft) O-NO 68 2 min 0,000 mm 0,7 UV-I 281 W/m 17,3 C 28,8 C 11,3 km/h (2 Bft) 95,74 %
09.07.2017 18:40 28,8 C 26,1 C 50 % 1009,5 hPa 0,0 l/m 10,2 km/h (2 Bft) O-NO 72 2 min 0,000 mm 0,7 UV-I 276 W/m 17,3 C 28,3 C 16,1 km/h (3 Bft) 95,74 %
09.07.2017 18:42 28,9 C 26,1 C 51 % 1009,6 hPa 0,0 l/m 5,8 km/h (2 Bft) O-NO 59 2 min 0,000 mm 0,7 UV-I 269 W/m 17,7 C 28,9 C 12,9 km/h (3 Bft) 97,22 %
09.07.2017 18:44 29,0 C 26,1 C 50 % 1009,6 hPa 0,0 l/m 11,4 km/h (2 Bft) O-NO 74 2 min 0,000 mm 0,7 UV-I 262 W/m 17,5 C 28,4 C 16,1 km/h (3 Bft) 94,34 %
09.07.2017 18:46 28,9 C 26,1 C 50 % 1009,6 hPa 0,0 l/m 12,4 km/h (3 Bft) O-NO 59 2 min 0,000 mm 0,6 UV-I 258 W/m 17,4 C 28,2 C 17,7 km/h (3 Bft) 100,00 %
09.07.2017 18:48 28,8 C 26,1 C 50 % 1009,6 hPa 0,0 l/m 11,6 km/h (2 Bft) NO 46 2 min 0,000 mm 0,6 UV-I 257 W/m 17,3 C 28,2 C 16,1 km/h (3 Bft) 95,74 %
09.07.2017 18:50 28,8 C 26,1 C 50 % 1009,7 hPa 0,0 l/m 8,6 km/h (2 Bft) O-NO 68 2 min 0,000 mm 0,5 UV-I 194 W/m 17,3 C 28,5 C 14,5 km/h (3 Bft) 98,00 %
09.07.2017 18:52 28,8 C 26,1 C 50 % 1009,7 hPa 0,0 l/m 11,7 km/h (2 Bft) O 88 0 min 0,000 mm 0,5 UV-I 153 W/m 17,3 C 28,2 C 17,7 km/h (3 Bft) 100,00 %
09.07.2017 18:54 28,6 C 26,1 C 51 % 1009,7 hPa 0,0 l/m 11,4 km/h (2 Bft) NO 53 2 min 0,000 mm 0,5 UV-I 192 W/m 17,4 C 28,0 C 16,1 km/h (3 Bft) 97,87 %
09.07.2017 18:56 28,6 C 26,1 C 51 % 1009,7 hPa 0,0 l/m 12,4 km/h (3 Bft) O 79 0 min 0,000 mm 0,3 UV-I 156 W/m 17,4 C 27,9 C 19,3 km/h (3 Bft) 95,12 %
09.07.2017 18:58 28,4 C 26,1 C 52 % 1009,6 hPa 0,0 l/m 8,2 km/h (2 Bft) O-NO 57 0 min 0,000 mm 0,0 UV-I 119 W/m 17,6 C 28,1 C 16,1 km/h (3 Bft) 94,00 %
09.07.2017 19:00 28,3 C 26,1 C 52 % 1009,6 hPa 0,0 l/m 11,0 km/h (2 Bft) NO 55 0 min 0,000 mm 0,0 UV-I 108 W/m 17,5 C 27,7 C 17,7 km/h (3 Bft) 97,87 %
09.07.2017 19:02 28,2 C 26,1 C 52 % 1009,6 hPa 0,0 l/m 8,4 km/h (2 Bft) NO 53 0 min 0,254 mm 0,0 UV-I 102 W/m 17,4 C 27,9 C 12,9 km/h (3 Bft) 98,00 %
09.07.2017 19:04 28,0 C 26,1 C 53 % 1009,6 hPa 0,0 l/m 9,2 km/h (2 Bft) NO 37 0 min 0,000 mm 0,0 UV-I 100 W/m 17,5 C 27,6 C 12,9 km/h (3 Bft) 93,62 %
09.07.2017 19:06 27,8 C 26,1 C 53 % 1009,5 hPa 0,0 l/m 7,5 km/h (2 Bft) N-NO 30 0 min 0,000 mm 0,0 UV-I 103 W/m 17,3 C 27,6 C 12,9 km/h (3 Bft) 100,00 %
09.07.2017 19:08 27,8 C 26,1 C 54 % 1009,5 hPa 0,0 l/m 10,3 km/h (2 Bft) NO 54 0 min 0,000 mm 0,0 UV-I 105 W/m 17,6 C 27,2 C 16,1 km/h (3 Bft) 97,87 %
09.07.2017 19:10 27,7 C 26,1 C 54 % 1009,5 hPa 0,0 l/m 8,1 km/h (2 Bft) NO 46 0 min 0,000 mm 0,0 UV-I 106 W/m 17,5 C 27,4 C 14,5 km/h (3 Bft) 97,87 %
09.07.2017 19:12 27,6 C 26,1 C 55 % 1009,5 hPa 0,0 l/m 7,4 km/h (2 Bft) NO 55 0 min 0,000 mm 0,0 UV-I 104 W/m 17,7 C 27,4 C 11,3 km/h (2 Bft) 94,44 %
09.07.2017 19:14 27,6 C 26,1 C 55 % 1009,6 hPa 0,0 l/m 7,3 km/h (2 Bft) NO 55 0 min 0,000 mm 0,0 UV-I 100 W/m 17,7 C 27,4 C 12,9 km/h (3 Bft) 96,00 %
09.07.2017 19:16 27,6 C 26,1 C 55 % 1009,7 hPa 0,0 l/m 4,8 km/h (1 Bft) O-NO 69 0 min 0,000 mm 0,0 UV-I 96 W/m 17,7 C 27,6 C 9,7 km/h (2 Bft) 100,00 %
09.07.2017 19:18 27,6 C 26,1 C 55 % 1009,7 hPa 0,0 l/m 5,9 km/h (2 Bft) O-NO 59 0 min 0,000 mm 0,0 UV-I 90 W/m 17,7 C 27,6 C 8,0 km/h (2 Bft) 95,74 %
09.07.2017 19:20 27,5 C 26,1 C 56 % 1009,8 hPa 0,0 l/m 3,9 km/h (1 Bft) O-NO 77 0 min 0,000 mm 0,0 UV-I 84 W/m 17,9 C 27,5 C 6,4 km/h (2 Bft) 93,62 %
09.07.2017 19:22 27,4 C 26,1 C 55 % 1009,8 hPa 0,0 l/m 4,1 km/h (1 Bft) O-NO 66 0 min 0,000 mm 0,0 UV-I 78 W/m 17,5 C 27,4 C 6,4 km/h (2 Bft) 97,87 %
09.07.2017 19:24 27,4 C 26,1 C 56 % 1009,8 hPa 0,0 l/m 4,5 km/h (1 Bft) O-NO 66 0 min 0,000 mm 0,0 UV-I 72 W/m 17,8 C 27,4 C 6,4 km/h (2 Bft) 97,87 %
09.07.2017 19:26 27,4 C 26,1 C 56 % 1009,8 hPa 0,0 l/m 3,9 km/h (1 Bft) O-NO 66 0 min 0,000 mm 0,0 UV-I 66 W/m 17,8 C 27,4 C 4,8 km/h (1 Bft) 98,00 %
09.07.2017 19:28 27,3 C 26,1 C 56 % 1009,9 hPa 0,0 l/m 3,2 km/h (1 Bft) O-NO 66 0 min 0,000 mm 0,0 UV-I 61 W/m 17,7 C 27,3 C 6,4 km/h (2 Bft) 95,74 %
09.07.2017 19:30 27,3 C 26,1 C 56 % 1009,8 hPa 0,0 l/m 1,9 km/h (1 Bft) O-NO 66 0 min 0,000 mm 0,0 UV-I 56 W/m 17,7 C 27,3 C 3,2 km/h (1 Bft) 100,00 %
09.07.2017 19:32 27,2 C 26,1 C 57 % 1009,7 hPa 0,0 l/m 1,6 km/h (1 Bft) NO 46 0 min 0,000 mm 0,0 UV-I 52 W/m 17,9 C 27,2 C 3,2 km/h (1 Bft) 97,87 %
09.07.2017 19:34 27,1 C 26,1 C 57 % 1009,7 hPa 0,0 l/m 0,3 km/h (0 Bft) NO 46 0 min 0,000 mm 0,0 UV-I 47 W/m 17,8 C 27,1 C 1,6 km/h (1 Bft) 100,00 %
09.07.2017 19:36 26,9 C 26,1 C 59 % 1009,7 hPa 0,0 l/m 0,0 km/h (0 Bft) NO 46 0 min 0,000 mm 0,0 UV-I 42 W/m 18,2 C 26,9 C 0,0 km/h (0 Bft) 97,87 %
09.07.2017 19:38 26,7 C 26,1 C 59 % 1009,6 hPa 0,0 l/m 0,0 km/h (0 Bft) NO 46 0 min 0,000 mm 0,0 UV-I 36 W/m 18,0 C 26,7 C 1,6 km/h (1 Bft) 95,74 %
09.07.2017 19:40 26,6 C 26,1 C 59 % 1009,6 hPa 0,0 l/m 0,0 km/h (0 Bft) NO 46 0 min 0,000 mm 0,0 UV-I 32 W/m 17,9 C 26,6 C 0,0 km/h (0 Bft) 100,00 %
09.07.2017 19:42 26,5 C 26,1 C 59 % 1009,7 hPa 0,0 l/m 0,0 km/h (0 Bft) NO 46 0 min 0,000 mm 0,0 UV-I 27 W/m 17,8 C 26,5 C 0,0 km/h (0 Bft) 100,00 %
09.07.2017 19:44 26,5 C 26,1 C 59 % 1009,8 hPa 0,0 l/m 0,0 km/h (0 Bft) NO 46 0 min 0,000 mm 0,0 UV-I 23 W/m 17,8 C 26,5 C 0,0 km/h (0 Bft) 100,00 %
09.07.2017 19:46 26,5 C 26,1 C 59 % 1009,8 hPa 0,0 l/m 0,0 km/h (0 Bft) NO 46 0 min 0,000 mm 0,0 UV-I 20 W/m 17,8 C 26,5 C 0,0 km/h (0 Bft) 100,00 %
09.07.2017 19:48 26,6 C 26,1 C 58 % 1009,8 hPa 0,0 l/m 0,0 km/h (0 Bft) W-SW 244 0 min 0,000 mm 0,0 UV-I 18 W/m 17,6 C 26,6 C 0,0 km/h (0 Bft) 95,74 %
09.07.2017 19:50 26,6 C 26,1 C 58 % 1009,7 hPa 0,0 l/m 0,0 km/h (0 Bft) W-SW 244 0 min 0,000 mm 0,0 UV-I 16 W/m 17,6 C 26,6 C 0,0 km/h (0 Bft) 97,87 %
09.07.2017 19:52 26,6 C 26,1 C 58 % 1009,7 hPa 0,0 l/m 0,0 km/h (0 Bft) W-SW 244 0 min 0,000 mm 0,0 UV-I 15 W/m 17,6 C 26,6 C 0,0 km/h (0 Bft) 100,00 %
09.07.2017 19:54 26,6 C 26,1 C 58 % 1009,8 hPa 0,0 l/m 0,0 km/h (0 Bft) W-SW 244 0 min 0,000 mm 0,0 UV-I 13 W/m 17,6 C 26,6 C 0,0 km/h (0 Bft) 95,83 %
09.07.2017 19:56 26,5 C 26,1 C 58 % 1009,8 hPa 0,0 l/m 0,0 km/h (0 Bft) W-SW 244 0 min 0,000 mm 0,0 UV-I 12 W/m 17,5 C 26,5 C 0,0 km/h (0 Bft) 100,00 %
09.07.2017 19:58 26,4 C 26,1 C 58 % 1009,9 hPa 0,0 l/m 0,0 km/h (0 Bft) W-SW 244 0 min 0,000 mm 0,0 UV-I 11 W/m 17,5 C 26,4 C 0,0 km/h (0 Bft) 97,87 %
09.07.2017 20:00 26,4 C 26,1 C 59 % 1009,9 hPa 0,0 l/m 0,0 km/h (0 Bft) W-SW 248 0 min 0,077 mm 0,0 UV-I 10 W/m 17,7 C 26,4 C 0,0 km/h (0 Bft) 100,00 %
09.07.2017 20:02 26,4 C 26,1 C 60 % 1010,0 hPa 0,0 l/m 0,2 km/h (0 Bft) W-SW 244 0 min 0,000 mm 0,0 UV-I 9 W/m 18,0 C 26,4 C 1,6 km/h (1 Bft) 97,87 %
09.07.2017 20:04 26,4 C 26,1 C 60 % 1010,1 hPa 0,0 l/m 2,4 km/h (1 Bft) W-SW 245 0 min 0,000 mm 0,0 UV-I 7 W/m 18,0 C 26,4 C 4,8 km/h (1 Bft) 97,87 %
09.07.2017 20:06 26,3 C 26,1 C 60 % 1010,2 hPa 0,0 l/m 3,0 km/h (1 Bft) W-SW 245 0 min 0,000 mm 0,0 UV-I 7 W/m 17,9 C 26,3 C 4,8 km/h (1 Bft) 95,74 %
09.07.2017 20:08 26,3 C 26,1 C 61 % 1010,2 hPa 0,0 l/m 3,8 km/h (1 Bft) W-SW 245 0 min 0,000 mm 0,0 UV-I 7 W/m 18,2 C 26,3 C 4,8 km/h (1 Bft) 93,62 %
09.07.2017 20:10 26,2 C 26,1 C 61 % 1010,3 hPa 0,0 l/m 2,7 km/h (1 Bft) W-SW 245 0 min 0,000 mm 0,0 UV-I 6 W/m 18,1 C 26,2 C 4,8 km/h (1 Bft) 95,74 %
09.07.2017 20:12 26,2 C 26,1 C 61 % 1010,3 hPa 0,0 l/m 2,5 km/h (1 Bft) W-SW 245 0 min 0,000 mm 0,0 UV-I 5 W/m 18,1 C 26,2 C 4,8 km/h (1 Bft) 91,49 %
09.07.2017 20:14 26,1 C 26,1 C 61 % 1010,3 hPa 0,0 l/m 1,9 km/h (1 Bft) W-SW 245 0 min 0,000 mm 0,0 UV-I 5 W/m 18,0 C 26,1 C 3,2 km/h (1 Bft) 97,87 %
09.07.2017 20:16 26,1 C 26,1 C 62 % 1010,3 hPa 0,0 l/m 1,8 km/h (1 Bft) W-SW 245 0 min 0,000 mm 0,0 UV-I 5 W/m 18,2 C 26,1 C 3,2 km/h (1 Bft) 93,62 %
09.07.2017 20:18 26,0 C 26,1 C 63 % 1010,4 hPa 0,0 l/m 1,9 km/h (1 Bft) W-SW 245 0 min 0,000 mm 0,0 UV-I 5 W/m 18,4 C 26,0 C 3,2 km/h (1 Bft) 97,87 %
09.07.2017 20:20 25,9 C 26,1 C 64 % 1010,5 hPa 0,0 l/m 2,7 km/h (1 Bft) W-SW 238 0 min 0,000 mm 0,0 UV-I 5 W/m 18,6 C 25,9 C 6,4 km/h (2 Bft) 98,00 %
09.07.2017 20:22 25,8 C 26,1 C 64 % 1010,8 hPa 0,0 l/m 5,1 km/h (1 Bft) SW 219 0 min 0,000 mm 0,0 UV-I 5 W/m 18,5 C 25,8 C 6,4 km/h (2 Bft) 95,74 %
09.07.2017 20:24 25,7 C 26,1 C 66 % 1010,8 hPa 0,0 l/m 6,4 km/h (2 Bft) SW 223 0 min 0,000 mm 0,0 UV-I 5 W/m 18,9 C 25,7 C 9,7 km/h (2 Bft) 95,74 %
09.07.2017 20:26 25,6 C 26,1 C 67 % 1011,0 hPa 0,0 l/m 8,0 km/h (2 Bft) S-SW 212 0 min 0,000 mm 0,0 UV-I 0 W/m 19,0 C 25,2 C 12,9 km/h (3 Bft) 96,00 %
09.07.2017 20:28 25,4 C 26,1 C 68 % 1011,2 hPa 0,0 l/m 9,4 km/h (2 Bft) SW 231 0 min 0,000 mm 0,0 UV-I 0 W/m 19,1 C 24,7 C 12,9 km/h (3 Bft) 94,29 %
09.07.2017 20:30 25,2 C 26,1 C 70 % 1011,4 hPa 0,0 l/m 11,1 km/h (2 Bft) SW 230 0 min 0,000 mm 0,0 UV-I 0 W/m 19,3 C 24,2 C 17,7 km/h (3 Bft) 94,00 %
09.07.2017 20:32 25,0 C 26,1 C 71 % 1011,5 hPa 0,0 l/m 16,4 km/h (3 Bft) W-SW 248 0 min 0,000 mm 0,0 UV-I 0 W/m 19,4 C 23,1 C 22,5 km/h (4 Bft) 93,62 %
09.07.2017 20:34 24,8 C 26,1 C 72 % 1011,8 hPa 0,2 l/m 25,9 km/h (4 Bft) W-SW 248 0 min 0,000 mm 0,0 UV-I 0 W/m 19,4 C 21,8 C 57,9 km/h (7 Bft) 95,83 %
09.07.2017 20:36 24,4 C 26,1 C 72 % 1012,2 hPa 0,2 l/m 35,8 km/h (5 Bft) S-SW 202 0 min 0,000 mm 0,0 UV-I 0 W/m 19,0 C 20,5 C 59,5 km/h (7 Bft) 97,87 %
09.07.2017 20:38 23,9 C 26,1 C 73 % 1012,1 hPa 0,4 l/m 37,5 km/h (5 Bft) S-SW 205 0 min 0,000 mm 0,0 UV-I 0 W/m 18,8 C 19,7 C 62,8 km/h (8 Bft) 97,37 %
09.07.2017 20:40 23,1 C 26,1 C 75 % 1012,1 hPa 0,8 l/m 27,0 km/h (4 Bft) SW 233 0 min 0,000 mm 0,0 UV-I 0 W/m 18,4 C 19,4 C 56,3 km/h (7 Bft) 98,00 %
09.07.2017 20:42 22,3 C 26,1 C 78 % 1012,1 hPa 0,4 l/m 30,9 km/h (5 Bft) W-SW 239 0 min 0,000 mm 0,0 UV-I 0 W/m 18,3 C 17,9 C 45,1 km/h (6 Bft) 96,00 %
09.07.2017 20:44 21,7 C 26,1 C 80 % 1012,0 hPa 0,2 l/m 27,3 km/h (4 Bft) W 268 0 min 0,000 mm 0,0 UV-I 0 W/m 18,1 C 17,4 C 40,2 km/h (6 Bft) 100,00 %
09.07.2017 20:46 21,3 C 26,1 C 82 % 1011,9 hPa 0,2 l/m 30,5 km/h (5 Bft) W-SW 240 0 min 0,000 mm 0,0 UV-I 0 W/m 18,1 C 16,5 C 45,1 km/h (6 Bft) 95,74 %
09.07.2017 20:48 21,0 C 26,1 C 84 % 1011,9 hPa 0,0 l/m 20,5 km/h (4 Bft) SW 220 0 min 0,000 mm 0,0 UV-I 0 W/m 18,2 C 17,4 C 38,6 km/h (5 Bft) 100,00 %
09.07.2017 20:50 20,7 C 26,1 C 85 % 1011,8 hPa 0,0 l/m 25,4 km/h (4 Bft) SW 235 0 min 0,000 mm 0,0 UV-I 0 W/m 18,1 C 16,3 C 37,0 km/h (5 Bft) 97,37 %
09.07.2017 20:52 20,6 C 26,1 C 86 % 1011,8 hPa 0,0 l/m 19,8 km/h (3 Bft) S-SW 198 0 min 0,000 mm 0,0 UV-I 0 W/m 18,2 C 17,0 C 35,4 km/h (5 Bft) 100,00 %
09.07.2017 20:54 20,4 C 26,1 C 87 % 1011,8 hPa 0,2 l/m 18,1 km/h (3 Bft) W-SW 240 0 min 0,000 mm 0,0 UV-I 0 W/m 18,2 C 17,1 C 27,4 km/h (4 Bft) 97,87 %
09.07.2017 20:56 20,3 C 26,1 C 87 % 1011,8 hPa 0,2 l/m 14,3 km/h (3 Bft) S-SW 209 0 min 0,000 mm 0,0 UV-I 0 W/m 18,1 C 17,8 C 22,5 km/h (4 Bft) 100,00 %
09.07.2017 20:59 20,2 C 26,1 C 88 % 1011,7 hPa 0,0 l/m 15,0 km/h (3 Bft) S-SW 200 0 min 0,000 mm 0,0 UV-I 0 W/m 18,1 C 17,5 C 27,4 km/h (4 Bft) 98,59 %
09.07.2017 21:00 20,1 C 26,1 C 88 % 1011,7 hPa 0,2 l/m 17,9 km/h (3 Bft) W-SW 238 0 min 0,000 mm 0,0 UV-I 0 W/m 18,0 C 16,7 C 24,1 km/h (4 Bft) 95,65 %
09.07.2017 21:04 19,9 C 26,1 C 89 % 1011,5 hPa 0,0 l/m 12,0 km/h (2 Bft) S-SW 200 0 min 0,076 mm 0,0 UV-I 0 W/m 18,0 C 17,9 C 19,3 km/h (3 Bft) 98,94 %
09.07.2017 21:06 19,9 C 26,1 C 89 % 1011,5 hPa 0,2 l/m 9,3 km/h (2 Bft) SW 221 0 min 0,000 mm 0,0 UV-I 0 W/m 18,0 C 18,8 C 16,1 km/h (3 Bft) 97,87 %
09.07.2017 21:08 19,9 C 26,1 C 89 % 1011,4 hPa 0,0 l/m 8,2 km/h (2 Bft) SW 227 0 min 0,000 mm 0,0 UV-I 0 W/m 18,0 C 19,2 C 12,9 km/h (3 Bft) 100,00 %
09.07.2017 21:10 19,9 C 26,1 C 89 % 1011,2 hPa 0,2 l/m 11,0 km/h (2 Bft) S 182 0 min 0,000 mm 0,0 UV-I 0 W/m 18,0 C 18,2 C 16,1 km/h (3 Bft) 94,44 %
09.07.2017 21:12 19,9 C 26,1 C 89 % 1011,2 hPa 0,2 l/m 7,0 km/h (2 Bft) W-SW 242 0 min 0,000 mm 0,0 UV-I 0 W/m 18,0 C 19,7 C 14,5 km/h (3 Bft) 96,00 %
09.07.2017 21:14 19,9 C 26,1 C 89 % 1011,1 hPa 0,2 l/m 3,3 km/h (1 Bft) S 184 0 min 0,000 mm 0,0 UV-I 0 W/m 18,0 C 19,9 C 8,0 km/h (2 Bft) 96,00 %
09.07.2017 21:16 19,9 C 26,1 C 89 % 1011,0 hPa 0,0 l/m 1,9 km/h (1 Bft) S-SO 165 0 min 0,000 mm 0,0 UV-I 0 W/m 18,0 C 19,9 C 6,4 km/h (2 Bft) 95,74 %
09.07.2017 21:18 19,9 C 26,1 C 89 % 1011,0 hPa 0,2 l/m 5,0 km/h (1 Bft) S-SW 196 0 min 0,000 mm 0,0 UV-I 0 W/m 18,0 C 19,9 C 8,0 km/h (2 Bft) 97,87 %
09.07.2017 21:20 19,9 C 26,1 C 89 % 1011,0 hPa 0,0 l/m 1,5 km/h (1 Bft) S 185 0 min 0,000 mm 0,0 UV-I 0 W/m 18,0 C 19,9 C 4,8 km/h (1 Bft) 95,74 %
09.07.2017 21:22 19,9 C 26,1 C 89 % 1010,8 hPa 0,0 l/m 0,4 km/h (0 Bft) S 185 0 min 0,000 mm 0,0 UV-I 0 W/m 18,0 C 19,9 C 1,6 km/h (1 Bft) 93,62 %
09.07.2017 21:24 19,8 C 26,1 C 90 % 1010,7 hPa 0,2 l/m 1,0 km/h (0 Bft) S-SO 163 0 min 0,000 mm 0,0 UV-I 0 W/m 18,1 C 19,8 C 3,2 km/h (1 Bft) 95,92 %
09.07.2017 21:26 19,8 C 26,1 C 90 % 1010,8 hPa 0,2 l/m 2,4 km/h (1 Bft) O-SO 113 0 min 0,000 mm 0,0 UV-I 0 W/m 18,1 C 19,8 C 4,8 km/h (1 Bft) 95,74 %
09.07.2017 21:28 19,8 C 26,1 C 90 % 1011,1 hPa 0,0 l/m 3,0 km/h (1 Bft) O-SO 113 0 min 0,000 mm 0,0 UV-I 0 W/m 18,1 C 19,8 C 6,4 km/h (2 Bft) 98,00 %
09.07.2017 21:30 19,8 C 26,1 C 90 % 1011,2 hPa 0,0 l/m 4,3 km/h (1 Bft) SO 131 0 min 0,000 mm 0,0 UV-I 0 W/m 18,1 C 19,8 C 6,4 km/h (2 Bft) 95,74 %
09.07.2017 21:32 19,8 C 26,1 C 90 % 1011,3 hPa 0,0 l/m 3,5 km/h (1 Bft) SO 146 0 min 0,000 mm 0,0 UV-I 0 W/m 18,1 C 19,8 C 6,4 km/h (2 Bft) 94,29 %
09.07.2017 21:34 19,8 C 26,1 C 90 % 1011,3 hPa 0,2 l/m 0,9 km/h (0 Bft) SO 146 0 min 0,000 mm 0,0 UV-I 0 W/m 18,1 C 19,8 C 3,2 km/h (1 Bft) 93,88 %
09.07.2017 21:36 19,8 C 26,1 C 90 % 1011,3 hPa 0,2 l/m 2,7 km/h (1 Bft) S 184 0 min 0,000 mm 0,0 UV-I 0 W/m 18,1 C 19,8 C 6,4 km/h (2 Bft) 93,62 %
09.07.2017 21:38 19,8 C 26,1 C 90 % 1011,3 hPa 0,0 l/m 4,2 km/h (1 Bft) S 180 0 min 0,000 mm 0,0 UV-I 0 W/m 18,1 C 19,8 C 8,0 km/h (2 Bft) 97,87 %
09.07.2017 21:40 19,8 C 26,1 C 90 % 1011,1 hPa 0,0 l/m 2,0 km/h (1 Bft) S 180 0 min 0,000 mm 0,0 UV-I 0 W/m 18,1 C 19,8 C 4,8 km/h (1 Bft) 95,74 %
09.07.2017 21:42 19,8 C 26,1 C 90 % 1010,9 hPa 0,0 l/m 0,8 km/h (0 Bft) S 180 0 min 0,000 mm 0,0 UV-I 0 W/m 18,1 C 19,8 C 3,2 km/h (1 Bft) 98,00 %
09.07.2017 21:44 19,8 C 26,1 C 91 % 1010,7 hPa 0,0 l/m 0,6 km/h (0 Bft) S 180 0 min 0,000 mm 0,0 UV-I 0 W/m 18,3 C 19,8 C 1,6 km/h (1 Bft) 95,74 %
09.07.2017 21:46 19,8 C 26,1 C 91 % 1010,6 hPa 0,0 l/m 0,0 km/h (0 Bft) S 180 0 min 0,000 mm 0,0 UV-I 0 W/m 18,3 C 19,8 C 0,0 km/h (0 Bft) 95,74 %
09.07.2017 21:48 19,7 C 26,1 C 90 % 1010,7 hPa 0,0 l/m 1,1 km/h (1 Bft) S 180 0 min 0,000 mm 0,0 UV-I 0 W/m 18,0 C 19,7 C 3,2 km/h (1 Bft) 93,62 %
09.07.2017 21:50 19,7 C 26,1 C 90 % 1010,8 hPa 0,0 l/m 2,7 km/h (1 Bft) S-SW 194 0 min 0,000 mm 0,0 UV-I 0 W/m 18,0 C 19,7 C 6,4 km/h (2 Bft) 97,87 %
09.07.2017 21:52 19,7 C 26,1 C 91 % 1011,0 hPa 0,0 l/m 5,9 km/h (2 Bft) S-SW 211 0 min 0,000 mm 0,0 UV-I 0 W/m 18,2 C 19,7 C 8,0 km/h (2 Bft) 91,49 %
09.07.2017 21:54 19,7 C 26,1 C 91 % 1011,0 hPa 0,0 l/m 5,3 km/h (1 Bft) S-SW 206 0 min 0,000 mm 0,0 UV-I 0 W/m 18,2 C 19,7 C 8,0 km/h (2 Bft) 97,87 %
09.07.2017 21:56 19,7 C 26,1 C 91 % 1011,0 hPa 0,0 l/m 5,4 km/h (1 Bft) S-SW 195 0 min 0,000 mm 0,0 UV-I 0 W/m 18,2 C 19,7 C 9,7 km/h (2 Bft) 93,75 %
09.07.2017 21:58 19,7 C 26,1 C 91 % 1011,0 hPa 0,0 l/m 3,4 km/h (1 Bft) S-SW 195 0 min 0,000 mm 0,0 UV-I 0 W/m 18,2 C 19,7 C 6,4 km/h (2 Bft) 95,74 %
09.07.2017 22:00 19,7 C 26,1 C 91 % 1011,0 hPa 0,0 l/m 3,3 km/h (1 Bft) S-SW 192 0 min 0,000 mm 0,0 UV-I 0 W/m 18,2 C 19,7 C 4,8 km/h (1 Bft) 93,62 %
09.07.2017 22:02 19,7 C 26,1 C 91 % 1011,1 hPa 0,0 l/m 3,0 km/h (1 Bft) S-SW 193 0 min 0,000 mm 0,0 UV-I 0 W/m 18,2 C 19,7 C 6,4 km/h (2 Bft) 95,74 %
09.07.2017 22:04 19,7 C 26,1 C 91 % 1011,1 hPa 0,0 l/m 4,1 km/h (1 Bft) S 171 0 min 0,000 mm 0,0 UV-I 0 W/m 18,2 C 19,7 C 8,0 km/h (2 Bft) 95,74 %
09.07.2017 22:06 19,7 C 26,1 C 91 % 1011,1 hPa 0,0 l/m 3,7 km/h (1 Bft) S 173 0 min 0,000 mm 0,0 UV-I 0 W/m 18,2 C 19,7 C 9,7 km/h (2 Bft) 93,62 %
09.07.2017 22:08 19,7 C 26,1 C 91 % 1011,1 hPa 0,0 l/m 5,0 km/h (1 Bft) S-SO 163 0 min 0,000 mm 0,0 UV-I 0 W/m 18,2 C 19,7 C 11,3 km/h (2 Bft) 91,49 %
09.07.2017 22:10 19,6 C 26,1 C 91 % 1011,1 hPa 0,0 l/m 5,4 km/h (1 Bft) S-SO 166 0 min 0,000 mm 0,0 UV-I 0 W/m 18,1 C 19,6 C 8,0 km/h (2 Bft) 93,62 %
09.07.2017 22:12 19,6 C 26,1 C 91 % 1011,1 hPa 0,0 l/m 4,1 km/h (1 Bft) S-SW 200 0 min 0,000 mm 0,0 UV-I 0 W/m 18,1 C 19,6 C 11,3 km/h (2 Bft) 95,12 %
09.07.2017 22:14 19,6 C 26,1 C 92 % 1011,1 hPa 0,0 l/m 6,4 km/h (2 Bft) S-SO 167 0 min 0,000 mm 0,0 UV-I 0 W/m 18,3 C 19,6 C 11,3 km/h (2 Bft) 90,00 %
09.07.2017 22:16 19,6 C 26,1 C 92 % 1011,1 hPa 0,0 l/m 5,5 km/h (1 Bft) S-SO 164 0 min 0,000 mm 0,0 UV-I 0 W/m 18,3 C 19,6 C 11,3 km/h (2 Bft) 98,00 %
09.07.2017 22:18 19,6 C 26,1 C 92 % 1011,0 hPa 0,0 l/m 7,0 km/h (2 Bft) S 190 0 min 0,000 mm 0,0 UV-I 0 W/m 18,3 C 19,3 C 14,5 km/h (3 Bft) 95,74 %
09.07.2017 22:20 19,5 C 26,1 C 92 % 1011,0 hPa 0,0 l/m 7,6 km/h (2 Bft) S 188 0 min 0,000 mm 0,0 UV-I 0 W/m 18,2 C 19,0 C 12,9 km/h (3 Bft) 91,43 %
09.07.2017 22:22 19,5 C 26,1 C 92 % 1011,0 hPa 0,0 l/m 9,2 km/h (2 Bft) S 183 0 min 0,000 mm 0,0 UV-I 0 W/m 18,2 C 18,4 C 17,7 km/h (3 Bft) 90,57 %
09.07.2017 22:24 19,5 C 26,1 C 92 % 1011,0 hPa 0,0 l/m 8,8 km/h (2 Bft) S-SW 196 0 min 0,000 mm 0,0 UV-I 0 W/m 18,2 C 18,5 C 14,5 km/h (3 Bft) 95,74 %
09.07.2017 22:26 19,4 C 26,1 C 92 % 1011,0 hPa 0,0 l/m 9,4 km/h (2 Bft) S 173 0 min 0,000 mm 0,0 UV-I 0 W/m 18,1 C 18,2 C 14,5 km/h (3 Bft) 95,74 %
09.07.2017 22:28 19,4 C 26,1 C 91 % 1011,0 hPa 0,0 l/m 9,0 km/h (2 Bft) S-SW 205 0 min 0,000 mm 0,0 UV-I 0 W/m 17,9 C 18,3 C 14,5 km/h (3 Bft) 95,74 %
09.07.2017 22:30 19,3 C 26,1 C 91 % 1011,0 hPa 0,0 l/m 6,4 km/h (2 Bft) S 170 0 min 0,000 mm 0,0 UV-I 0 W/m 17,8 C 19,3 C 11,3 km/h (2 Bft) 95,74 %
09.07.2017 22:32 19,3 C 26,1 C 91 % 1010,9 hPa 0,0 l/m 7,2 km/h (2 Bft) S 190 0 min 0,000 mm 0,0 UV-I 0 W/m 17,8 C 19,0 C 11,3 km/h (2 Bft) 95,74 %
09.07.2017 22:34 19,3 C 26,1 C 91 % 1010,8 hPa 0,0 l/m 4,9 km/h (1 Bft) S 172 0 min 0,000 mm 0,0 UV-I 0 W/m 17,8 C 19,3 C 9,7 km/h (2 Bft) 97,92 %
09.07.2017 22:36 19,3 C 26,1 C 91 % 1010,8 hPa 0,0 l/m 4,5 km/h (1 Bft) S 175 0 min 0,000 mm 0,0 UV-I 0 W/m 17,8 C 19,3 C 9,7 km/h (2 Bft) 100,00 %
09.07.2017 22:38 19,3 C 25,6 C 91 % 1010,8 hPa 0,0 l/m 4,8 km/h (1 Bft) S 177 0 min 0,000 mm 0,0 UV-I 0 W/m 17,8 C 19,3 C 8,0 km/h (2 Bft) 95,74 %
09.07.2017 22:40 19,3 C 26,1 C 91 % 1010,8 hPa 0,0 l/m 4,9 km/h (1 Bft) S 169 0 min 0,000 mm 0,0 UV-I 0 W/m 17,8 C 19,3 C 8,0 km/h (2 Bft) 100,00 %
09.07.2017 22:42 19,3 C 26,1 C 91 % 1010,8 hPa 0,0 l/m 4,0 km/h (1 Bft) S 172 0 min 0,000 mm 0,0 UV-I 0 W/m 17,8 C 19,3 C 11,3 km/h (2 Bft) 95,74 %
09.07.2017 22:44 19,3 C 26,1 C 91 % 1010,8 hPa 0,0 l/m 5,0 km/h (1 Bft) S-SO 167 0 min 0,000 mm 0,0 UV-I 0 W/m 17,8 C 19,3 C 8,0 km/h (2 Bft) 100,00 %
09.07.2017 22:46 19,3 C 25,6 C 91 % 1010,9 hPa 0,0 l/m 4,2 km/h (1 Bft) S-SO 157 0 min 0,000 mm 0,0 UV-I 0 W/m 17,8 C 19,3 C 6,4 km/h (2 Bft) 98,11 %
09.07.2017 22:48 19,2 C 26,1 C 91 % 1010,9 hPa 0,0 l/m 4,1 km/h (1 Bft) S-SW 211 0 min 0,000 mm 0,0 UV-I 0 W/m 17,7 C 19,2 C 9,7 km/h (2 Bft) 100,00 %
09.07.2017 22:50 19,2 C 26,1 C 90 % 1010,8 hPa 0,0 l/m 5,3 km/h (1 Bft) SO 134 0 min 0,000 mm 0,0 UV-I 0 W/m 17,5 C 19,2 C 11,3 km/h (2 Bft) 92,00 %
09.07.2017 22:52 19,2 C 25,6 C 90 % 1010,8 hPa 0,0 l/m 4,2 km/h (1 Bft) S-SO 159 0 min 0,000 mm 0,0 UV-I 0 W/m 17,5 C 19,2 C 12,9 km/h (3 Bft) 100,00 %
09.07.2017 22:54 19,2 C 25,6 C 90 % 1010,7 hPa 0,0 l/m 5,1 km/h (1 Bft) S 177 0 min 0,000 mm 0,0 UV-I 0 W/m 17,5 C 19,2 C 9,7 km/h (2 Bft) 98,39 %
09.07.2017 22:56 19,2 C 25,6 C 90 % 1010,8 hPa 0,0 l/m 6,0 km/h (2 Bft) SO 146 0 min 0,000 mm 0,0 UV-I 0 W/m 17,5 C 19,2 C 9,7 km/h (2 Bft) 95,74 %
09.07.2017 22:58 19,2 C 25,6 C 90 % 1010,8 hPa 0,0 l/m 4,1 km/h (1 Bft) S-SO 152 0 min 0,000 mm 0,0 UV-I 0 W/m 17,5 C 19,2 C 11,3 km/h (2 Bft) 94,00 %
09.07.2017 23:00 19,1 C 25,6 C 90 % 1010,8 hPa 0,0 l/m 5,3 km/h (1 Bft) SO 138 0 min 0,000 mm 0,0 UV-I 0 W/m 17,4 C 19,1 C 12,9 km/h (3 Bft) 97,87 %
09.07.2017 23:03 19,1 C 25,6 C 90 % 1010,8 hPa 0,0 l/m 7,0 km/h (2 Bft) S-SO 159 0 min 0,000 mm 0,0 UV-I 0 W/m 17,4 C 18,8 C 12,9 km/h (3 Bft) 97,30 %
09.07.2017 23:04 19,1 C 25,6 C 90 % 1010,8 hPa 0,0 l/m 9,5 km/h (2 Bft) O-SO 121 0 min 0,000 mm 0,0 UV-I 0 W/m 17,4 C 17,8 C 12,9 km/h (3 Bft) 100,00 %
09.07.2017 23:06 19,1 C 25,6 C 89 % 1010,7 hPa 0,0 l/m 10,0 km/h (2 Bft) O-SO 121 0 min 0,000 mm 0,0 UV-I 0 W/m 17,2 C 17,6 C 16,1 km/h (3 Bft) 100,00 %
09.07.2017 23:08 19,1 C 25,6 C 89 % 1010,7 hPa 0,0 l/m 10,6 km/h (2 Bft) SO 128 0 min 0,000 mm 0,0 UV-I 0 W/m 17,2 C 17,4 C 16,1 km/h (3 Bft) 95,74 %
09.07.2017 23:10 19,1 C 25,6 C 89 % 1010,6 hPa 0,0 l/m 7,1 km/h (2 Bft) SO 140 0 min 0,000 mm 0,0 UV-I 0 W/m 17,2 C 18,8 C 12,9 km/h (3 Bft) 100,00 %
09.07.2017 23:12 19,1 C 25,6 C 89 % 1010,5 hPa 0,0 l/m 10,9 km/h (2 Bft) O-SO 123 0 min 0,000 mm 0,0 UV-I 0 W/m 17,2 C 17,3 C 16,1 km/h (3 Bft) 93,75 %
09.07.2017 23:14 19,1 C 25,6 C 89 % 1010,5 hPa 0,0 l/m 7,5 km/h (2 Bft) SO 144 0 min 0,000 mm 0,0 UV-I 0 W/m 17,2 C 18,6 C 11,3 km/h (2 Bft) 97,87 %
09.07.2017 23:16 19,1 C 25,6 C 89 % 1010,5 hPa 0,0 l/m 6,2 km/h (2 Bft) SO 144 0 min 0,000 mm 0,0 UV-I 0 W/m 17,2 C 19,1 C 14,5 km/h (3 Bft) 95,74 %
09.07.2017 23:18 19,1 C 25,6 C 89 % 1010,6 hPa 0,0 l/m 5,4 km/h (1 Bft) SO 142 0 min 0,000 mm 0,0 UV-I 0 W/m 17,2 C 19,1 C 9,7 km/h (2 Bft) 100,00 %
09.07.2017 23:20 19,1 C 25,6 C 89 % 1010,7 hPa 0,0 l/m 2,9 km/h (1 Bft) SO 136 0 min 0,000 mm 0,0 UV-I 0 W/m 17,2 C 19,1 C 6,4 km/h (2 Bft) 97,87 %
09.07.2017 23:22 19,1 C 25,6 C 89 % 1010,7 hPa 0,0 l/m 5,3 km/h (1 Bft) SO 126 0 min 0,000 mm 0,0 UV-I 0 W/m 17,2 C 19,1 C 9,7 km/h (2 Bft) 100,00 %
09.07.2017 23:24 19,1 C 25,6 C 89 % 1010,7 hPa 0,0 l/m 5,8 km/h (2 Bft) O-SO 123 0 min 0,000 mm 0,0 UV-I 0 W/m 17,2 C 19,1 C 11,3 km/h (2 Bft) 97,87 %
09.07.2017 23:26 19,1 C 25,6 C 89 % 1010,7 hPa 0,0 l/m 6,2 km/h (2 Bft) SO 136 0 min 0,000 mm 0,0 UV-I 0 W/m 17,2 C 19,1 C 11,3 km/h (2 Bft) 97,87 %
09.07.2017 23:28 19,1 C 25,6 C 89 % 1010,7 hPa 0,0 l/m 2,5 km/h (1 Bft) S 175 0 min 0,000 mm 0,0 UV-I 0 W/m 17,2 C 19,1 C 8,0 km/h (2 Bft) 97,87 %
09.07.2017 23:30 19,1 C 25,6 C 89 % 1010,7 hPa 0,0 l/m 7,0 km/h (2 Bft) SW 222 0 min 0,000 mm 0,0 UV-I 0 W/m 17,2 C 18,8 C 11,3 km/h (2 Bft) 97,14 %
09.07.2017 23:32 19,2 C 25,6 C 89 % 1010,7 hPa 0,0 l/m 3,0 km/h (1 Bft) S 177 0 min 0,000 mm 0,0 UV-I 0 W/m 17,3 C 19,2 C 4,8 km/h (1 Bft) 98,04 %
09.07.2017 23:34 19,2 C 25,6 C 89 % 1010,8 hPa 0,0 l/m 2,4 km/h (1 Bft) S 173 0 min 0,000 mm 0,0 UV-I 0 W/m 17,3 C 19,2 C 4,8 km/h (1 Bft) 100,00 %
09.07.2017 23:36 19,2 C 25,6 C 89 % 1010,8 hPa 0,0 l/m 2,9 km/h (1 Bft) S 172 0 min 0,000 mm 0,0 UV-I 0 W/m 17,3 C 19,2 C 4,8 km/h (1 Bft) 94,00 %
09.07.2017 23:38 19,1 C 25,6 C 89 % 1010,8 hPa 0,0 l/m 2,2 km/h (1 Bft) S 172 0 min 0,000 mm 0,0 UV-I 0 W/m 17,2 C 19,1 C 4,8 km/h (1 Bft) 97,87 %
09.07.2017 23:40 19,1 C 25,6 C 89 % 1010,7 hPa 0,0 l/m 4,6 km/h (1 Bft) S 181 0 min 0,000 mm 0,0 UV-I 0 W/m 17,2 C 19,1 C 8,0 km/h (2 Bft) 97,87 %
09.07.2017 23:42 19,1 C 25,6 C 89 % 1010,8 hPa 0,0 l/m 3,9 km/h (1 Bft) S 169 0 min 0,000 mm 0,0 UV-I 0 W/m 17,2 C 19,1 C 8,0 km/h (2 Bft) 97,87 %
09.07.2017 23:44 19,1 C 25,6 C 89 % 1010,7 hPa 0,0 l/m 4,4 km/h (1 Bft) S-SO 167 0 min 0,000 mm 0,0 UV-I 0 W/m 17,2 C 19,1 C 8,0 km/h (2 Bft) 100,00 %
09.07.2017 23:46 19,1 C 25,6 C 89 % 1010,6 hPa 0,0 l/m 5,2 km/h (1 Bft) S-SO 148 0 min 0,000 mm 0,0 UV-I 0 W/m 17,2 C 19,1 C 8,0 km/h (2 Bft) 97,87 %
09.07.2017 23:48 19,1 C 25,6 C 89 % 1010,5 hPa 0,0 l/m 3,7 km/h (1 Bft) SO 144 0 min 0,000 mm 0,0 UV-I 0 W/m 17,2 C 19,1 C 4,8 km/h (1 Bft) 98,00 %
09.07.2017 23:50 19,1 C 25,6 C 89 % 1010,5 hPa 0,0 l/m 3,5 km/h (1 Bft) SO 140 0 min 0,000 mm 0,0 UV-I 0 W/m 17,2 C 19,1 C 4,8 km/h (1 Bft) 97,22 %
09.07.2017 23:52 19,1 C 25,6 C 89 % 1010,5 hPa 0,0 l/m 1,3 km/h (1 Bft) SO 140 0 min 0,000 mm 0,0 UV-I 0 W/m 17,2 C 19,1 C 3,2 km/h (1 Bft) 97,87 %
09.07.2017 23:54 19,1 C 25,6 C 89 % 1010,4 hPa 0,0 l/m 0,2 km/h (0 Bft) SO 140 0 min 0,000 mm 0,0 UV-I 0 W/m 17,2 C 19,1 C 1,6 km/h (1 Bft) 100,00 %
09.07.2017 23:56 19,1 C 25,6 C 89 % 1010,4 hPa 0,0 l/m 1,2 km/h (1 Bft) SO 138 0 min 0,000 mm 0,0 UV-I 0 W/m 17,2 C 19,1 C 4,8 km/h (1 Bft) 95,74 %
09.07.2017 23:58 19,1 C 25,6 C 89 % 1010,4 hPa 0,0 l/m 0,4 km/h (0 Bft) SO 138 0 min 0,000 mm 0,0 UV-I 0 W/m 17,2 C 19,1 C 1,6 km/h (1 Bft) 100,00 %
_ Min-Zeit 05:56 00:46 11:38 18:24 - 02:42 - - - - - - 05:56 20:50 02:44 04:02
Minimum _ 16,3 C 25,0 C 48 % 1009,5 hPa - 0,0 km/h (0 Bft) - - - - - - 15,2 C 16,3 C 0,0 km/h (0 Bft) 86,67 %
_ Max-Zeit 17:14 14:32 05:42 01:06 20:40 20:38 - - 16:03 12:00 12:58 12:58 20:34 17:12 20:38 00:28
Maximum _ 29,1 C 26,1 C 94 % 1014,4 hPa 0,8 l/m 37,5 km/h
S-SW (5 Bft)
- - 3 min 0,584 mm 7,4 UV-I 1218 W/m 19,4 C 28,9 C 62,8 km/h
SW (8 Bft)
100,00 %
Durchschnitt _ 23,0 C 25,5 C 72 % 1012,4 hPa #4,8 l/m 4,6 km/h (1 Bft) NO - #9:32 h #4,242 mm 2,7 UV-I 375 W/m 17,2 C 22,8 C 8,3 km/h (2 Bft) 96,29 %